     2              OBSERVATION DATA    GPS                 RINEX VERSION / TYPE
teqc 1997Sep10 19971030 21:30:09UTC                         PGM / RUN BY / DATE
                                                            COMMENT
Original Marker Name: 55474.MONU                            COMMENT
Campaign Name: NGS Imperial Valley 1990                     COMMENT
4-Character Station Name: MONU                              COMMENT
6-Character Antenna Code: TI4100                            COMMENT
Vertical Measurement Point: PAE                             COMMENT
Vertical Offset to Rinex Ref. Point: 0.0000                 COMMENT
Radial Measurement Point: RRP                               COMMENT
Radial Offset to Rinex Ref. Point: 0.0000                   COMMENT
Antenna Height from Field Measurement: 1.3770 m             COMMENT
Original XYZ: -2386231.2344 -4802409.1239 3444894.8284      COMMENT
New XYZ position is based on association with SCEC monument COMMENT
E1C8W5H0+0011. Position of that monument is believed to be  COMMENT
valid to within 1 m horizontally; vertical accuracy         COMMENT
should be no worse than 3-times this value.                 COMMENT
                                                            COMMENT
Revised Rinex header created by UCSD GPS archive for        COMMENT
GSAC on 10-Apr-1999 (1999:100) 06:35:31 GMT                 COMMENT
For assistance contact dagnew@ucsd.edu or hjohnson@ucsd.edu COMMENT
                                                            COMMENT
MONUMENT PEAK NCMN 1983                                     MARKER NAME
05 NATIONAL GEODETIC SURVEY                                 OBSERVER / AGENCY
111 TI 4100 1.9                                             REC # / TYPE / VERS
4053 TI 4100                                                ANT # / TYPE
 -2386290.0000 -4802346.0000  3444884.0000                  APPROX POSITION XYZ
        1.3770        0.0000        0.0000                  ANTENNA: DELTA H/E/N
     1     1     0                                          WAVELENGTH FACT L1/2
     4    P1    P2    L1    L2                              # / TYPES OF OBSERV
    15                                                      INTERVAL
  1990     3     3     4     7   29.000000                  TIME OF FIRST OBS
  1990     3     3     8    18   14.000000                  TIME OF LAST OBS
     0                                                      # OF SATELLITES
                                                            END OF HEADER
 90  3  3  4  7 29.0800000  0  1G13
                  23816368.424      -22907.793 7
 90  3  3  4  7 44.0800000  0  3G 6G11G13
                  20592042.303       44236.566 8
                  20922916.339       20310.167 6
                  23806036.411      -77498.407 7
 90  3  3  4  7 59.0800000  0  4G 6G 9G11G13
  20589792.799    20589799.180       32128.881 8    322368.188 9
                  22099064.331      -77193.964 9
  20919124.802    20919135.115         163.624 8    320897.506 7
  23795635.996    23795649.028     -132034.510 7    252318.980 6
 90  3  3  4  8 14.0800000  0  4G 6G 9G11G13
  20587507.990    20587512.190       20123.722 8    313013.013 8
  22091434.696    22091443.173     -117438.972 9    406471.066 8
  20915317.691    20915324.093      -19849.214 8    305303.132 8
  23785267.939    23785280.688     -186515.516 8    209866.904 7
 90  3  3  4  8 29.0800000  0  4G 6G 9G11G13
  20585239.672    20585245.480        8220.879 8    303738.114 8
  22083785.001    22083789.596     -157638.416 9    375147.381 7
  20911533.549    20911541.238      -39729.067 8    289812.361 7
  23774910.598    23774920.183     -240941.375 8    167457.289 7
 90  3  3  4  8 44.0800000  0  4G 6G 9G11G13
  20582993.293    20583001.340       -3579.304 8    294543.162 8
  22076144.868    22076148.500     -197792.943 8    343858.164 8
  20907776.219    20907782.743      -59476.082 8    274425.102 8
  23764565.463    23764574.784     -295311.995 8    125090.715 7
 90  3  3  4  8 59.0800000  0  4G 6G 9G11G13
  20580768.204    20580775.211      -15276.482 8    285428.498 7
  22068512.592    22068517.213     -237901.912 9    312604.470 7
  20904044.671    20904051.208      -79090.053 7    259141.507 7
  23754229.722    23754237.455     -349627.278 8     82767.268 7
 90  3  3  4  9 14.0800000  0  4G 6G 9G11G13
  20578563.088    20578567.703      -26870.554 7    276394.171 8
  22060889.272    22060893.662     -277965.456 8    281386.155 8
  20900336.469    20900343.189      -98571.015 8    243961.560 6
  23743906.340    23743913.927     -403886.690 7     40487.339 7
 90  3  3  4  9 29.0800000  0  4G 6G 9G11G13
  20576379.297    20576380.647      -38361.066 9    267440.540 8
  22053274.223    22053277.480     -317982.920 8    250203.774 8
  20896655.466    20896661.532     -117918.820 8    228885.375 6
  23733591.406    23733598.436     -458089.855 7     -1748.756 6
 90  3  3  4  9 44.0800000  0  4G 6G 9G11G13
  20574211.615    20574215.585      -49747.847 8    258567.727 8
  22045667.251    22045672.018     -357954.004 8    219057.506 7
  20892999.467    20893004.667     -137133.292 8    213913.081 6
  23723288.431    23723296.429     -512236.732 7    -43940.982 6
 90  3  3  4  9 59.0800000  0  4G 6G 9G11G13
  20572065.218    20572069.425      -61030.620 8    249775.973 8
  22038069.475    22038075.501     -397878.339 8    187947.678 7
  20889368.837    20889372.654     -156214.503 8    199044.634 7
  23712996.216    23713003.497     -566326.841 7    -86089.009 7
 90  3  3  4 10 14.0800000  0  4G 6G 9G11G13
  20569937.830    20569942.654      -72209.047 8    241065.504 8
  22030481.265    22030487.233     -437755.803 7    156874.377 7
  20885764.251    20885767.195     -175162.353 8    184280.085 7
  23702711.755    23702723.116     -620359.854 7   -128192.520 6
 90  3  3  4 10 29.0800000  0  4G 6G 9G11G13
  20567828.140    20567835.469      -83282.999 8    232436.446 7
  22022902.810    22022907.778     -477586.196 8    125837.745 8
  20882183.001    20882186.856     -193976.911 8    169619.422 7
  23692441.684    23692450.859     -674335.653 8   -170251.432 7
 90  3  3  4 10 44.0800000  0  4G 6G 9G11G13
  20565740.945    20565747.084      -94252.116 8    223889.082 7
  22015332.120    22015336.858     -517368.831 8     94838.332 7
  20878628.238    20878631.475     -212657.979 8    155062.786 6
  23682181.226    23682191.057     -728253.830 8   -212265.475 6
 90  3  3  4 10 59.0800000  0  4G 6G 9G11G13
  20563675.469    20563678.959     -105116.179 8    215423.585 7
  22007769.448    22007775.324     -557103.682 8     63876.141 7
  20875099.131    20875103.258     -231205.537 7    140610.175 7
  23671930.521    23671941.813     -782114.102 8   -254234.380 8
 90  3  3  4 11 14.0800000  0  4G 6G 9G11G13
  20561627.129    20561631.564     -115874.868 8    207040.206 7
  22000217.297    22000222.914     -596790.208 8     32951.630 7
  20871595.684    20871599.905     -249619.556 7    126261.613 8
  23661692.315    23661705.247     -835916.378 8   -296158.104 7
 90  3  3  4 11 29.0800000  0  4G 6G 9G11G13
  20559599.877    20559604.490     -126527.892 7    198739.153 8
  21992674.767    21992680.609     -636428.235 8      2064.897 8
  20868117.016    20868120.061     -267900.008 8    112017.122 6
  23651462.403    23651476.408     -889660.332 8   -338036.372 7
 90  3  3  4 11 44.0800000  0  4G 6G 9G11G13
  20557591.925    20557597.983     -137074.967 8    190520.682 7
  21985142.214    21985147.329     -676017.592 8    -28783.903 8
  20864661.564    20864668.994     -286046.858 7     97876.716 7
  23641247.816    23641261.618     -943345.601 7   -379868.916 7
 90  3  3  4 11 59.0800000  0  4G 6G 9G11G13
  20555607.116    20555612.024     -147515.908 8    182384.897 7
  21977616.907    21977622.872     -715557.806 8    -59594.422 8
  20861233.720    20861240.724     -304060.054 7     83840.484 7
  23631042.541    23631056.387     -996971.826 8   -421655.452 7
 90  3  3  4 12 14.0800000  0  4G 6G 9G11G13
  20553639.762    20553645.655     -157850.340 7    174332.105 9
  21970102.853    21970108.636     -755048.259 9    -90366.157 8
  20857833.134    20857839.024     -321939.464 8     69908.484 6
  23620849.231    23620863.633    -1050538.605 7   -463395.662 8
 90  3  3  4 12 29.0800000  0  4G 6G 9G11G13
  20551692.110    20551698.482     -168078.075 8    166362.461 8
  21962596.583    21962602.081     -794489.055 8   -121099.188 7
  20854454.635    20854463.285     -339685.196 7     56080.665 7
  23610668.260    23610680.873    -1104045.801 9   -505089.457 7
 90  3  3  4 12 44.0800000  0  4G 6G 9G11G13
  20549767.419    20549772.379     -178198.802 8    158476.211 7
  21955101.863    21955106.065     -833879.664 8   -151793.116 8
  20851103.404    20851110.936     -357297.068 7     42357.141 8
  23600497.498    23600510.362    -1157493.009 9   -546736.491 9
 90  3  3  4 12 59.0800000  0  4G 6G 9G11G13
  20547861.499    20547867.062     -188212.332 7    150673.473 8
  21947614.487    21947620.648     -873219.989 8   -182447.875 8
  20847776.946    20847783.738     -374775.175 8     28737.858 7
  23590337.977    23590350.378    -1210880.134 8   -588336.733 7
 90  3  3  4 13 14.0800000  0  4G 6G 9G11G13
  20545975.958    20545982.780     -198118.331 7    142954.550 8
  21940139.532    21940143.879     -912509.382 8   -213062.923 8
  20844476.322    20844484.381     -392119.333 7     15222.956 7
  23580190.123    23580203.643    -1264206.789 9   -629889.861 7
 90  3  3  4 13 29.0800000  0  4G 6G 9G11G13
  20544112.919    20544118.408     -207916.619 9    135319.540 8
  21932672.750    21932677.147     -951747.671 9   -243638.165 8
  20841201.714    20841209.628     -409329.627 8      1812.363 8
  23570054.195    23570066.593    -1317472.452 9   -671395.426 7
 90  3  3  4 13 44.0800000  0  4G 6G 9G11G13
  20542269.794    20542273.638     -217606.898 7    127768.691 8
  21925215.182    21925220.588     -990934.727 8   -274173.493 8
  20837953.589    20837959.083     -426406.043 7    -11493.895 6
  23559928.389    23559941.135    -1370677.032 8   -712853.403 7
 90  3  3  4 13 59.0800000  0  4G 6G 9G11G13
  20540446.830    20540450.449     -227188.794 8    120302.306 8
  21917768.249    21917773.536    -1030069.992 9   -304668.457 8
  20834730.007    20834732.503     -443348.480 8    -24695.770 7
  23549815.444    23549828.223    -1423820.222 8   -754263.545 7
 90  3  3  4 14 14.0800000  0  4G 6G 9G11G13
  20538642.567    20538647.193     -236662.077 7    112920.526 8
  21910330.995    21910336.114    -1069153.130 9   -335122.797 8
  20831530.281    20831537.330     -460156.941 7    -37793.262 6
  23539715.370    23539725.711    -1476901.620 5   -795625.556 5
 90  3  3  4 14 29.0800000  0  4G 6G 9G11G13
  20536860.809    20536865.282     -246026.623 7    105623.486 8
  21902904.396    21902907.748    -1108184.035 8   -365536.443 7
  20828355.058    20828362.533     -476831.471 7    -50786.385 7
  23529626.415    23529636.701    -1529921.049 3   -836939.287 3
 90  3  3  4 14 44.0800000  0  4G 6G 9G11G13
  20535100.893    20535104.352     -255282.184 8     98411.385 8
  21895486.561    21895491.206    -1147162.026 8   -395908.860 7
  20825208.929    20825215.431     -493372.089 6    -63675.172 7
  23519550.067    23519559.395    -1582878.480 4   -878204.672 5
 90  3  3  4 14 59.0800000  0  4G 6G 9G11G13
  20533360.255    20533363.378     -264428.271 6     91284.562 5
  21888079.840    21888083.853    -1186086.962 8   -426239.938 8
  20822088.273    20822093.229     -509778.536 7    -76459.410 6
  23509484.540    23509492.842    -1635773.319 5   -919421.340 5
 90  3  3  4 15 14.0800000  0  4G 6G 9G11G13
  20531638.795    20531643.171     -273464.863 6     84243.085 4
  21880682.079    21880685.918    -1224958.978 8   -456529.773 7
  20818991.304    20818997.296     -526051.004 8    -89139.240 7
  23499433.324    23499441.445    -1688605.432 3   -960589.110 3
 90  3  3  4 15 29.0800000  0  4G 6G 9G11G13
  20529940.893    20529943.589     -282391.562 5     77287.224 5
  21873295.467    21873298.833    -1263777.192 8   -486777.675 8
  20815920.488    20815926.372     -542189.265 8   -101714.496 7
  23489389.285    23489397.872    -1741374.539 3  -1001707.798 3
 90  3  3  4 15 44.0800000  0  4G 6G 9G11G13
  20528263.629    20528264.662     -291208.070 4     70417.235 3
  21865917.662    21865923.057    -1302541.256 8   -516983.399 8
  20812873.713    20812882.013     -558193.322 6   -114185.179 7
  23479359.159    23479366.323    -1794080.071 6  -1042776.933 6
 90  3  3  4 15 59.0800000  0  4G 6G 9G11G13
  20526608.148    20526609.083     -299914.223 3     63633.228 3
  21858552.674    21858556.771    -1341251.064 8   -547146.842 6
  20809853.835    20809860.623     -574063.419 7   -126551.470 7
  23469340.432    23469347.411    -1846722.155 9  -1083796.624 7
 90  3  3  4 16 14.0800000  0  4G 6G 9G11G13
  20524970.747    20524974.430     -308509.788 5     56935.391 3
  21851196.323    21851200.102    -1379906.198 9   -577267.692 7
  20806859.340    20806866.674     -589799.300 6   -138813.173 7
  23459334.793    23459342.126    -1899300.353 8  -1124766.536 7
 90  3  3  4 16 29.0800000  0  4G 6G 9G11G13
  20523356.278    20523358.947     -316994.484 5     50323.954 3
  21843850.728    21843855.795    -1418506.452 8   -607345.762 7
  20803892.550    20803897.304     -605400.980 8   -150970.302 6
  23449340.357    23449349.799    -1951814.332 8  -1165686.417 6
 90  3  3  4 16 44.0800000  0  4G 6G 9G11G13
  20521762.860    20521767.936     -325368.035 8     43799.113 8
  21836515.738    21836521.473    -1457051.545 8   -637380.868 8
  20800947.362    20800951.258     -620868.508 8   -163022.887 7
  23439358.463    23439367.150    -2004263.895 7  -1206556.077 7
 90  3  3  4 16 59.0800000  0  4G 6G 9G11G13
  20520188.507    20520196.133     -333630.209 8     37361.053 7
  21829190.788    21829196.921    -1495541.087 8   -667372.703 8
  20798029.133    20798032.907     -636201.903 7   -174970.983 7
  23429390.580    23429399.831    -2056648.681 7  -1247375.287 7
 90  3  3  4 17 14.0800000  0  4G 6G 9G11G13
  20518640.095    20518644.212     -341780.744 8     31010.013 9
  21821877.772    21821883.643    -1533974.494 7   -697320.753 7
  20795137.247    20795138.672     -651401.154 8   -186814.511 6
  23419434.295    23419443.981    -2108968.349 7  -1288143.764 6
 90  3  3  4 17 29.0800000  0  4G 6G 9G11G13
  20517112.798    20517113.584     -349819.391 5     24746.175 4
  21814575.270    21814579.095    -1572351.605 7   -727224.938 8
  20792270.824    20792275.403     -666466.148 7   -198553.428 7
  23409490.915    23409499.605    -2161222.611 7  -1328861.261 7
 90  3  3  4 17 44.0800000  0  4G 6G 9G11G13
  20515600.847    20515604.049     -357745.881 4     18569.697 4
  21807283.425    21807285.557    -1610672.282 8   -757085.156 7
  20789430.578    20789435.523     -681396.978 8   -210187.818 6
  23399560.211    23399568.070    -2213411.473 7  -1369527.810 8
 90  3  3  4 17 59.0800000  0  4G 6G 9G11G13
  20514112.786    20514118.188     -365559.985 5     12480.784 4
  21800000.473    21800006.042    -1648935.970 8   -786900.993 7
  20786613.720    20786618.419     -696193.550 7   -221717.591 6
  23389644.018    23389650.826    -2265534.325 7  -1410142.909 7
 90  3  3  4 18 14.0800000  0  4G 6G 9G11G13
  20512648.891    20512654.523     -373261.428 8      6479.666 7
  21792730.500    21792735.729    -1687142.293 7   -816672.110 7
  20783823.608    20783828.227     -710855.840 7   -233142.712 7
  23379736.673    23379745.423    -2317590.697 8  -1450706.256 7
 90  3  3  4 18 29.0800000  0  4G 6G 9G11G13
  20511207.269    20511209.295     -380849.951 9       566.548 8
  21785471.751    21785477.170    -1725291.002 8   -846398.340 7
  20781058.921    20781062.857     -725383.827 8   -244463.214 8
  23369843.282    23369852.760    -2369580.622 8  -1491217.781 8
 90  3  3  4 18 44.0800000  0  4G 6G 9G11G13
  20509783.506    20509786.019     -388325.363 9     -5258.431 8
  21778222.548    21778228.380    -1763381.929 8   -876079.552 8
  20778319.772    20778324.294     -739777.557 7   -255679.100 7
  23359961.578    23359972.235    -2421504.104 7  -1531677.542 7
 90  3  3  4 18 59.0800000  0  4G 6G 9G11G13
  20508382.964    20508384.924     -395687.400 5    -10995.077 4
  21770985.373    21770989.840    -1801414.770 8   -905715.493 7
  20775606.988    20775612.822     -754037.142 7   -266790.440 7
  23350094.198    23350105.605    -2473360.787 8  -1572085.260 8
 90  3  3  4 19 14.0800000  0  4G 6G 9G11G13
  20507003.373    20507005.522     -402935.810 5    -16643.180 4
  21763759.274    21763762.640    -1839388.825 8   -935305.614 8
  20772918.726    20772926.271     -768162.517 7   -277797.222 7
  23340238.270    23340249.984    -2525150.050 7  -1612440.433 8
 90  3  3  4 19 29.0800000  0  4G 6G 9G11G13
  20505642.910    20505648.743     -410070.363 3    -22202.586 3
  21756543.309    21756547.632    -1877304.118 7   -964849.970 8
  20770256.734    20770262.701     -782153.624 8   -288699.382 8
  23330395.210    23330408.618    -2576871.793 7  -1652743.019 8
 90  3  3  4 19 44.0800000  0  4G 6G 9G11G13
  20504306.909    20504312.499     -417090.705 6    -27672.972 7
  21749340.189    21749344.856    -1915160.225 9   -994348.192 8
  20767620.224    20767625.635     -796010.492 7   -299496.932 6
  23320566.048    23320579.610    -2628525.527 7  -1692992.589 7
 90  3  3  4 19 59.0800000  0  4G 6G 9G11G13
  20502994.199    20502998.002     -423996.755 9    -33054.280 8
  21742148.283    21742152.386    -1952956.662 9  -1023799.934 7
  20765008.746    20765012.531     -809733.097 7   -310189.869 7
  23310749.682    23310761.759    -2680111.086 7  -1733189.028 8
 90  3  3  4 20 14.0800000  0  4G 6G 9G11G13
  20501702.478    20501704.998     -430788.180 8    -38346.267 7
  21734967.200    21734972.412    -1990693.186 8  -1053205.000 8
  20762422.272    20762428.320     -823321.444 7   -320778.164 7
  23300947.310    23300956.739    -2731628.260 8  -1773332.217 7
 90  3  3  4 20 29.0800000  0  4G 6G 9G11G13
  20500430.755    20500433.885     -437464.755 8    -43548.797 8
  21727798.446    21727801.209    -2028369.606 9  -1082563.211 8
  20759863.467    20759866.930     -836775.530 7   -331261.845 6
  23291156.379    23291166.218    -2783076.736 8  -1813421.865 8
 90  3  3  4 20 44.0800000  0  4G 6G 9G11G13
  20499181.887    20499184.091     -444026.088 8    -48661.523 6
  21720640.488    21720644.934    -2065985.367 9  -1111874.157 7
  20757327.320    20757333.917     -850095.408 8   -341640.966 5
  23281379.887    23281388.817    -2834456.194 9  -1853457.740 7
 90  3  3  4 20 59.0800000  0  4G 6G 9G11G13
  20497955.792    20497958.682     -450472.120 9    -53684.402 6
  21713493.864    21713496.785    -2103540.196 9  -1141137.628 7
  20754817.962    20754823.684     -863281.060 8   -351915.466 7
  23271616.099    23271625.545    -2885766.441 8  -1893439.686 8
 90  3  3  4 21 14.0800000  0  4G 6G 9G11G13
  20496750.488    20496754.480     -456802.568 8    -58617.215 7
  21706358.305    21706363.488    -2141033.915 8  -1170353.493 8
  20752333.810    20752338.345     -876332.551 6   -362085.436 7
  23261864.670    23261875.610    -2937007.245 8  -1933367.531 6
 90  3  3  4 21 29.0800000  0  4G 6G 9G11G13
  20495568.292    20495572.685     -463017.191 8    -63459.773 7
  21699234.359    21699240.003    -2178465.959 9  -1199521.287 8
  20749875.222    20749882.360     -889249.840 7   -372150.851 7
  23252126.114    23252135.885    -2988178.502 8  -1973241.172 7
 90  3  3  4 21 44.0800000  0  4G 6G 9G11G13
  20494407.804    20494411.609     -469115.797 9    -68211.946 7
  21692122.669    21692126.565    -2215836.116 8  -1228640.845 8
  20747444.133    20747448.980     -902033.080 8   -382111.778 7
  23242400.929    23242412.533    -3039279.694 8  -2013060.204 6
 90  3  3  4 21 59.0800000  0  4G 6G 9G11G13
  20493270.151    20493274.947     -475098.018 8    -72873.406 8
  21685022.518    21685028.956    -2253144.065 7  -1257711.957 7
  20745037.660    20745041.475     -914682.200 8   -391968.213 7
  23232689.884    23232701.410    -3090310.428 8  -2052824.348 6
 90  3  3  4 22 14.0800000  0  4G 6G 9G11G13
  20492153.463    20492158.227     -480963.571 9    -77443.959 7
  21677935.525    21677939.136    -2290389.409 7  -1286734.267 7
  20742656.437    20742660.380     -927197.084 8   -401720.075 7
  23222993.213    23223004.002    -3141270.418 8  -2092533.340 7
 90  3  3  4 22 29.0800000  0  4G 6G 9G11G13
  20491056.964    20491062.460     -486712.331 6    -81923.508 7
  21670859.685    21670865.332    -2327571.737 9  -1315707.479 7
  20740299.590    20740306.060     -939577.796 8   -411367.351 6
  23213309.105    23213321.577    -3192159.554 8  -2132187.132 6
 90  3  3  4 22 44.0800000  0  4G 6G 9G11G13
  20489987.926    20489991.417     -492344.161 8    -86311.941 7
  21663796.496    21663801.584    -2364690.991 8  -1344631.542 7
  20737969.369    20737974.577     -951824.484 7   -420910.227 7
  23203639.332    23203648.719    -3242977.774 8  -2171785.657 7
 90  3  3  4 22 59.0800000  0  4G 6G 9G11G13
  20488937.574    20488943.730     -497858.632 8    -90608.926 7
  21656744.655    21656750.022    -2401746.531 8  -1373505.952 7
  20735663.710    20735669.775     -963937.169 8   -430348.661 6
  23193982.249    23193991.032    -3293724.583 8  -2211328.546 7
 90  3  3  4 23 14.0800000  0  4G 6G 9G11G13
  20487911.134    20487916.814     -503255.649 9    -94814.386 8
  21649705.600    21649711.016    -2438738.266 8  -1402330.652 7
  20733384.644    20733388.796     -975915.834 7   -439682.653 7
  23184338.272    23184348.170    -3344399.849 7  -2250815.713 7
 90  3  3  4 23 29.0800000  0  4G 6G 9G11G13
  20486906.230    20486909.734     -508534.939 8    -98928.099 8
  21642679.245    21642683.375    -2475665.725 9  -1431105.257 8
  20731131.327    20731135.683     -987760.504 7   -448912.260 7
  23174708.995    23174719.228    -3395003.231 7  -2290246.855 7
 90  3  3  4 23 44.0800000  0  4G 6G 9G11G13
  20485925.122    20485927.382     -513696.210 7   -102949.862 7
  21635664.686    21635669.030    -2512528.707 7  -1459829.627 8
  20728901.887    20728909.054     -999471.291 7   -458037.525 7
  23165093.644    23165103.411    -3445534.607 8  -2329621.895 6
 90  3  3  4 23 59.0800000  0  4G 6G 9G11G13
  20484964.290    20484970.615     -518739.290 8   -106879.522 6
  21628662.075    21628666.605    -2549326.530 8  -1488503.231 8
  20726698.163    20726705.516    -1011048.037 6   -467058.360 7
  23155491.337    23155502.114    -3495993.464 8  -2368940.397 6
 90  3  3  4 24 14.0800000  0  4G 6G 9G11G13
  20484025.104    20484033.074     -523663.937 7   -110716.923 7
  21621673.005    21621676.710    -2586059.178 8  -1517126.033 7
  20724521.835    20724527.093    -1022490.836 8   -475974.779 6
  23145901.899    23145912.059    -3546379.567 8  -2408202.226 7
 90  3  3  4 24 29.0800000  0  4G 6G 9G11G13
  20483112.114    20483116.631     -528469.911 8   -114461.796 7
  21614694.529    21614699.467    -2622726.217 8  -1545697.730 7
  20722368.719    20722374.766    -1033799.664 7   -484786.844 7
  23136325.370    23136338.688    -3596692.930 8  -2447407.380 7
 90  3  3  4 24 44.0800000  0  4G 6G 9G11G13
  20482221.647    20482225.567     -533156.996 7   -118114.055 7
  21607728.277    21607734.852    -2659327.308 8  -1574218.042 8
  20720243.129    20720247.806    -1044974.667 7   -493494.629 8
  23126766.184    23126778.883    -3646933.039 7  -2486555.447 7
 90  3  3  4 24 59.0800000  0  4G 6G 9G11G13
  20481352.826    20481354.053     -537724.954 8   -121673.474 6
  21600775.634    21600781.376    -2695862.084 9  -1602686.668 8
  20718141.908    20718146.873    -1056015.858 7   -502098.126 8
  23117218.903    23117232.459    -3697099.591 7  -2525646.159 7
 90  3  3  4 25 14.0800000  0  4G 6G 9G11G13
  20480505.192    20480507.553     -542173.561 7   -125139.905 7
  21593836.063    21593840.525    -2732330.203 8  -1631103.359 6
  20716067.746    20716072.425    -1066923.227 8   -510597.375 7
  23107687.706    23107699.241    -3747192.207 7  -2564679.306 7
 90  3  3  4 25 29.0800000  0  4G 6G 9G11G13
  20479681.096    20479683.461     -546502.594 7   -128513.170 7
  21586910.086    21586913.236    -2768731.571 8  -1659468.027 6
  20714016.940    20714020.879    -1077696.793 8   -518992.324 8
  23098169.619    23098180.543    -3797210.955 7  -2603654.875 7
 90  3  3  4 25 44.0800000  0  4G 6G 9G11G13
  20478880.870    20478883.004     -550711.835 8   -131793.094 6
  21579996.875    21579999.873    -2805065.479 9  -1687780.131 7
  20711991.550    20711996.681    -1088336.639 8   -527283.112 8
  23088665.773    23088675.667    -3847155.320 8  -2642572.477 7
 90  3  3  4 25 59.0800000  0  4G 6G 9G11G13
  20478102.225    20478102.464     -554801.084 7   -134979.518 7
  21573094.865    21573100.246    -2841331.802 9  -1716039.594 7
  20709992.840    20709996.227    -1098842.832 8   -535469.734 6
  23079179.201    23079186.176    -3897025.123 7  -2681431.990 6
 90  3  3  4 26 14.0800000  0  4G 6G 9G11G13
  20477346.286    20477349.177     -558769.982 8   -138072.182 7
  21566207.536    21566209.540    -2877530.210 9  -1744246.102 7
  20708018.339    20708021.910    -1109215.402 8   -543552.250 7
  23069702.942    23069711.333    -3946820.200 8  -2720233.262 7
 90  3  3  4 26 29.0800000  0  4G 6G 9G11G13
  20476615.445    20476617.722     -562618.582 8   -141071.082 6
  21559331.683    21559335.084    -2913660.343 9  -1772399.435 7
  20706068.446    20706074.457    -1119454.421 7   -551530.671 7
  23060241.088    23060248.493    -3996540.208 7  -2758976.065 7
 90  3  3  4 26 44.0800000  0  4G 6G 9G11G13
  20475906.112    20475908.211     -566346.332 9   -143975.847 6
  21552469.798    21552473.441    -2949721.741 8  -1800499.201 7
  20704146.024    20704152.451    -1129559.836 7   -559405.020 7
  23050793.023    23050801.654    -4046184.861 7  -2797660.121 7
 90  3  3  4 26 59.0800000  0  4G 6G 9G11G13
  20475218.370    20475222.433     -569953.209 9   -146786.389 7
  21545620.309    21545624.031    -2985714.182 9  -1828545.232 7
  20702248.323    20702254.852    -1139531.820 7   -567175.374 6
  23041361.540    23041368.885    -4095754.008 7  -2836285.355 8
 90  3  3  4 27 14.0800000  0  4G 6G 9G11G13
  20474555.482    20474558.458     -573438.830 8   -149502.445 7
  21538783.128    21538787.794    -3021637.252 9  -1856537.207 7
  20700376.674    20700382.568    -1149370.382 7   -574841.759 7
  23031940.895    23031951.514    -4145247.228 7  -2874851.418 7
 90  3  3  4 27 29.0800000  0  4G 6G 9G11G13
  20473917.568    20473919.266     -576803.062 8   -152123.905 7
  21531961.126    21531966.297    -3057490.531 8  -1884474.806 7
  20698529.449    20698533.984    -1159075.502 6   -582404.152 7
  23022536.781    23022547.651    -4194664.406 7  -2913358.215 7
 90  3  3  4 27 44.0800000  0  4G 6G 9G11G13
  20473298.278    20473301.569     -580045.648 8   -154650.591 7
  21525151.062    21525157.695    -3093273.754 7  -1912357.826 8
  20696708.167    20696714.026    -1168647.063 7   -589862.495 7
  23013148.042    23013159.183    -4244005.383 7  -2951805.643 7
 90  3  3  4 27 59.0800000  0  4G 6G 9G11G13
  20472704.564    20472709.142     -583166.342 8   -157082.298 7
  21518354.852    21518360.381    -3128986.700 8  -1940186.070 7
  20694912.875    20694918.292    -1178085.256 7   -597216.919 7
  23003774.090    23003784.013    -4293269.688 7  -2990193.336 7
 90  3  3  4 28 14.0800000  0  4G 6G 9G11G13
  20472135.485    20472137.517     -586165.079 8   -159418.967 8
  21511573.730    21511577.844    -3164628.901 8  -1967959.168 7
  20693143.465    20693147.206    -1187390.102 7   -604467.424 7
  22994415.059    22994424.781    -4342457.075 8  -3028521.089 8
 90  3  3  4 28 29.0800000  0  4G 6G 9G11G13
  20471588.419    20471590.736     -589041.496 8   -161660.311 8
  21504803.714    21504809.118    -3200200.015 8  -1995676.887 8
  20691395.567    20691402.867    -1196561.753 7   -611614.156 7
  22985068.247    22985079.025    -4391567.446 9  -3066788.843 7
 90  3  3  4 28 44.0800000  0  4G 6G 9G11G13
  20471063.588    20471067.881     -591795.489 9   -163806.275 8
  21498049.778    21498051.174    -3235699.675 8  -2023338.920 7
  20689676.023    20689683.147    -1205600.289 7   -618657.149 7
  22975738.126    22975749.212    -4440600.534 8  -3104996.385 8
 90  3  3  4 28 59.0800000  0  4G 6G 9G11G13
  20470561.364    20470566.603     -594426.723 8   -165856.587 8
  21491308.065    21491311.012    -3271127.534 8  -2050945.008 8
  20687982.404    20687987.811    -1214505.723 8   -625596.462 7
  22966421.557    22966433.602    -4489555.854 8  -3143143.319 7
 90  3  3  4 29 14.0800000  0  4G 6G 9G11G13
  20470085.128    20470087.845     -596935.106 8   -167811.156 8
  21484580.198    21484583.006    -3306483.273 8  -2078494.907 7
  20686313.625    20686319.518    -1223278.111 8   -632432.068 7
  22957120.579    22957132.049    -4538433.315 8  -3181229.580 8
 90  3  3  4 29 29.0800000  0  4G 6G 9G11G13
  20469631.545    20469633.417     -599320.392 8   -169669.784 7
  21477863.983    21477867.887    -3341766.690 8  -2105988.460 8
  20684670.693    20684675.290    -1231917.511 8   -639164.047 7
  22947832.945    22947845.979    -4587232.638 9  -3219254.960 8
 90  3  3  4 29 44.0800000  0  4G 6G 9G11G13
  20469199.722    20469203.169     -601582.392 9   -171432.373 7
  21471164.267    21471168.043    -3376977.358 8  -2133425.316 7
  20683050.172    20683055.105    -1240424.023 8   -645792.479 7
  22938561.405    22938575.321    -4635953.569 8  -3257219.248 8
 90  3  3  4 29 59.0800000  0  4G 6G 9G11G13
  20468794.356    20468797.444     -603720.786 8   -173098.647 8
  21464476.751    21464482.748    -3412114.803 8  -2160805.120 7
  20681456.108    20681462.451    -1248797.594 8   -652317.313 7
  22929304.255    22929318.007    -4684595.734 8  -3295122.152 8
 90  3  3  4 30 14.0800000  0  4G 6G 9G11G13
  20468412.703    20468413.532     -605735.423 8   -174668.478 8
  21457805.198    21457811.391    -3447178.647 8  -2188127.579 8
  20679888.344    20679894.164    -1257038.308 8   -658738.633 8
  22920063.940    22920076.311    -4733159.076 9  -3332963.649 7
 90  3  3  4 30 29.0800000  0  4G 6G 9G11G13
  20468051.839    20468053.284     -607626.054 7   -176141.683 7
  21451147.066    21451151.511    -3482168.917 8  -2215392.697 6
  20678346.418    20678350.545    -1265146.228 8   -665056.452 7
  22910839.238    22910850.625    -4781643.323 9  -3370743.515 8
 90  3  3  4 30 44.0800000  0  4G 6G 9G11G13
  20467713.802    20467718.081     -609392.562 8   -177518.198 8
  21444503.418    21444508.322    -3517084.873 8  -2242599.892 8
  20676827.186    20676832.348    -1273121.396 7   -671270.866 7
  22901626.642    22901640.394    -4830048.171 8  -3408461.534 8
 90  3  3  4 30 59.0800000  0  4G 6G 9G11G13
  20467400.186    20467404.737     -611034.793 9   -178797.851 8
  21437872.003    21437878.007    -3551926.422 8  -2269749.139 7
  20675334.206    20675339.658    -1280963.989 7   -677381.964 7
  22892431.561    22892444.191    -4878373.464 8  -3446117.560 8
 90  3  3  4 31 14.0800000  0  4G 6G 9G11G13
  20467113.062    20467116.898     -612552.439 8   -179980.422 8
  21431257.365    21431262.263    -3586693.023 9  -2296839.977 7
  20673866.981    20673874.103    -1288674.052 7   -683389.811 6
  22883251.071    22883262.828    -4926618.815 9  -3483711.292 7
 90  3  3  4 31 29.0800000  0  4G 6G 9G11G13
  20466847.756    20466849.972     -613945.232 8   -181065.723 8
  21424654.795    21424659.653    -3621384.536 7  -2323872.287 6
  20672425.767    20672432.169    -1296251.687 7   -689294.445 6
  22874084.606    22874098.082    -4974784.109 9  -3521242.643 7
 90  3  3  4 31 44.0800000  0  4G 6G 9G11G13
  20466606.031    20466607.862     -615213.105 8   -182053.671 6
  21418068.503    21418073.463    -3656000.334 8  -2350845.623 7
  20671008.871    20671014.930    -1303696.855 7   -695095.838 6
  22864933.846    22864947.686    -5022869.176 8  -3558711.482 8
 90  3  3  4 31 59.0800000  0  4G 6G 9G11G13
  20466389.761    20466391.625     -616355.767 8   -182944.051 7
  21411495.089    21411499.925    -3690540.444 8  -2377759.964 7
  20669617.878    20669623.802    -1311009.663 7   -700794.121 7
  22855798.345    22855811.597    -5070873.687 8  -3596117.496 7
 90  3  3  4 32 14.0800000  0  4G 6G 9G11G13
  20466196.175    20466199.452     -617373.118 8   -183736.799 8
  21404936.566    21404941.834    -3725004.334 8  -2404614.926 7
  20668250.369    20668255.827    -1318190.286 7   -706389.391 7
  22846678.728    22846692.240    -5118797.307 8  -3633460.509 8
 90  3  3  4 32 29.0800000  0  4G 6G 9G11G13
  20466025.267    20466031.921     -618264.874 7   -184431.680 7
  21398393.584    21398395.974    -3759391.513 8  -2431410.110 7
  20666910.726    20666915.424    -1325238.861 7   -711881.770 7
  22837574.718    22837587.485    -5166639.884 7  -3670740.368 7
 90  3  3  4 32 44.0800000  0  4G 6G 9G11G13
  20465879.643    20465885.509     -619030.824 8   -185028.529 7
  21391864.507    21391868.580    -3793701.843 9  -2458145.410 8
  20665593.442    20665599.694    -1332155.295 8   -717271.184 7
  22828485.310    22828499.911    -5214401.055 7  -3707956.799 7
 90  3  3  4 32 59.0800000  0  4G 6G 9G11G13
  20465758.830    20465762.253     -619670.807 8   -185527.211 8
  21385350.553    21385352.746    -3827934.970 9  -2484820.556 7
  20664303.030    20664308.093    -1338939.536 8   -722557.598 7
  22819413.508    22819425.422    -5262080.614 8  -3745109.627 7
 90  3  3  4 33 14.0800000  0  4G 6G 9G11G13
  20465658.953    20465663.576     -620184.565 8   -185927.523 7
  21378850.657    21378854.835    -3862090.394 7  -2511435.158 7
  20663037.502    20663043.193    -1345591.697 7   -727741.076 7
  22810355.839    22810368.493    -5309678.233 7  -3782198.631 7
 90  3  3  4 33 29.0800000  0  4G 6G 9G11G13
  20465586.090    20465591.374     -620572.079 8   -186229.475 8
  21372367.061    21372369.196    -3896167.827 9  -2537988.976 8
  20661795.573    20661801.740    -1352112.104 7   -732821.893 8
  22801313.496    22801326.005    -5357193.869 7  -3819223.733 7
 90  3  3  4 33 44.0800000  0  4G 6G 9G11G13
  20465536.157    20465541.950     -620832.702 8   -186432.580 7
  21365896.173    21365900.419    -3930166.884 8  -2564481.731 7
  20660581.014    20660584.722    -1358500.583 7   -737799.888 7
  22792287.325    22792299.891    -5404626.969 7  -3856184.505 7
 90  3  3  4 33 59.0800000  0  4G 6G 9G11G13
  20465511.543    20465516.166     -620966.583 8   -186536.876 8
  21359441.136    21359446.094    -3964087.268 9  -2590913.166 7
  20659389.676    20659395.440    -1364757.361 8   -742675.298 6
  22783276.492    22783288.414    -5451977.639 7  -3893081.060 7
 90  3  3  4 34 14.0800000  0  4G 6G 9G11G13
  20465510.703    20465515.253     -620973.996 7   -186542.655 8
  21353001.929    21353005.971    -3997929.159 8  -2617283.439 7
  20658222.575    20658229.654    -1370883.041 8   -747448.551 7
  22774281.782    22774293.753    -5499246.078 8  -3929913.552 6
 90  3  3  4 34 29.0800000  0  4G 6G 9G11G13
  20465531.824    20465537.574     -620853.610 8   -186448.847 8
  21346575.160    21346582.046    -4031691.029 8  -2643591.380 7
  20657082.926    20657088.279    -1376876.624 8   -752118.853 7
  22765303.098    22765312.737    -5546430.857 7  -3966680.846 7
 90  3  3  4 34 44.0800000  0  4G 6G 9G11G13
  20465579.703    20465584.798     -620606.100 8   -186255.976 9
  21340166.931    21340170.196    -4065373.363 8  -2669837.324 6
  20655967.330    20655971.807    -1382738.907 7   -756686.832 6
  22756341.254    22756350.758    -5593532.497 8  -4003383.365 7
 90  3  3  4 34 59.0800000  0  4G 6G 9G11G13
  20465653.483    20465656.546     -620230.997 7   -185963.675 8
  21333772.026    21333775.683    -4098975.497 8  -2696020.770 7
  20654875.806    20654881.912    -1388469.671 7   -761152.359 7
  22747392.935    22747401.817    -5640550.827 7  -4040020.940 7
 90  3  3  4 35 14.0800000  0  4G 6G 9G11G13
  20465746.681    20465751.330     -619728.246 8   -185571.909 7
  21327392.920    21327396.812    -4132497.319 8  -2722141.645 7
  20653812.078    20653815.391    -1394069.249 6   -765515.667 7
  22738462.485    22738470.878    -5687485.455 8  -4076593.328 7
 90  3  3  4 35 29.0800000  0  4G 6G 9G11G13
  20465865.220    20465870.528     -619097.542 7   -185080.449 8
  21321029.183    21321034.430    -4165938.477 8  -2748199.690 8
  20652768.903    20652773.948    -1399537.606 7   -769776.726 6
  22729546.612    22729555.511    -5734336.174 8  -4113100.323 6
 90  3  3  4 35 44.0800000  0  4G 6G 9G11G13
  20466010.961    20466015.764     -618338.738 8   -184489.166 8
  21314682.843    21314686.481    -4199298.435 8  -2774194.426 8
  20651755.967    20651759.124    -1404874.881 7   -773935.615 7
  22720648.343    22720655.595    -5781102.778 8  -4149541.768 7
 90  3  3  4 35 59.0800000  0  4G 6G 9G11G13
  20466179.365    20466185.760     -617451.670 7   -183797.951 8
  21308349.822    21308353.202    -4232576.876 8  -2800125.641 7
  20650764.375    20650769.369    -1410081.041 7   -777992.370 6
  22711765.237    22711770.416    -5827784.949 9  -4185917.395 7
 90  3  3  4 36 14.0800000  0  4G 6G 9G11G13
  20466371.927    20466377.105     -616436.054 8   -183006.570 8
  21302033.004    21302036.829    -4265773.477 8  -2825993.102 8
  20649798.705    20649804.925    -1415156.319 8   -781947.112 7
  22702899.393    22702903.771    -5874382.426 8  -4222227.065 8
 90  3  3  4 36 29.0800000  0  4G 6G 9G11G13
  20466590.742    20466595.122     -615291.833 8   -182114.963 7
  21295731.465    21295734.442    -4298888.079 8  -2851796.660 8
  20648858.687    20648863.487    -1420100.714 7   -785799.879 7
  22694048.436    22694052.774    -5920894.929 8  -4258470.495 7
 90  3  3  4 36 44.0800000  0  4G 6G 9G11G13
  20466834.902    20466836.487     -614018.873 7   -181123.027 7
  21289445.078    21289450.519    -4331920.284 8  -2877536.031 8
  20647942.288    20647948.075    -1424914.506 7   -789550.867 7
  22685212.071    22685218.604    -5967322.308 8  -4294647.620 8
 90  3  3  4 36 59.0800000  0  4G 6G 9G11G13
  20467101.051    20467102.726     -612616.920 7   -180030.589 7
  21283174.090    21283178.821    -4364869.606 8  -2903210.805 7
  20647051.305    20647056.371    -1429597.622 7   -793200.022 7
  22676392.861    22676399.169    -6013664.344 9  -4330758.234 7
 90  3  3  4 37 14.0800000  0  4G 6G 9G11G13
  20467391.031    20467395.406     -611085.614 8   -178837.373 7
  21276919.214    21276925.414    -4397735.556 7  -2928820.626 8
  20646183.823    20646190.534    -1434150.145 7   -796747.438 7
  22667590.088    22667597.395    -6059920.773 8  -4366802.146 7
 90  3  3  4 37 29.0800000  0  4G 6G 9G11G13
  20467707.954    20467711.012     -609425.006 8   -177543.391 7
  21270682.262    21270685.246    -4430518.074 8  -2954365.406 8
  20645342.301    20645348.405    -1438572.371 6   -800193.297 7
  22658804.505    22658812.404    -6106091.671 8  -4402779.378 8
 90  3  3  4 37 44.0800000  0  4G 6G 9G11G13
  20468049.769    20468048.798     -607634.924 8   -176148.499 6
  21264459.546    21264463.418    -4463216.902 7  -2979844.988 7
  20644525.809    20644532.262    -1442864.380 7   -803537.709 7
  22650036.296    22650043.444    -6152176.468 8  -4438689.546 7
 90  3  3  4 37 59.0800000  0  4G 6G 9G11G13
  20468412.852    20468415.999     -605715.151 8   -174652.567 7
  21258252.934    21258256.333    -4495831.393 8  -3005258.857 8
  20643734.163    20643739.243    -1447026.191 7   -806780.653 6
  22641283.468    22641287.643    -6198174.956 9  -4474532.444 7
 90  3  3  4 38 14.0800000  0  4G 6G 9G11G13
  20468803.753    20468806.931     -603665.409 7   -173055.350 6
  21252064.059    21252066.177    -4528361.358 8  -3030606.849 8
  20642967.331    20642971.947    -1451057.880 6   -809922.190 8
  22632547.558    22632552.178    -6244086.887 9  -4510307.906 7
 90  3  3  4 38 29.0800000  0  4G 6G 9G11G13
  20469219.123    20469222.639     -601485.603 7   -171356.819 7
  21245890.422    21245891.677    -4560806.412 8  -3055888.674 8
  20642223.683    20642228.028    -1454959.491 8   -812962.409 6
  22623826.477    22623831.797    -6289912.142 9  -4546015.855 6
 90  3  3  4 38 44.0800000  0  4G 6G 9G11G13
  20469659.330    20469660.849     -599175.541 8   -169556.741 7
  21239731.503    21239735.280    -4593166.340 7  -3081104.171 8
  20641507.448    20641511.498    -1458731.294 9   -815901.467 7
  22615123.168    22615127.097    -6335650.496 8  -4581656.059 7
 90  3  3  4 38 59.0800000  0  4G 6G 9G11G13
  20470123.936    20470125.438     -596735.104 7   -167655.113 6
  21233587.935    21233592.884    -4625440.501 8  -3106252.860 8
  20640812.806    20640819.011    -1462373.339 8   -818739.403 8
  22606435.006    22606440.860    -6381301.671 9  -4617228.345 8
 90  3  3  4 39 14.0800000  0  4G 6G 9G11G13
  20470610.708    20470613.667     -594163.991 7   -165651.645 7
  21227464.237    21227468.273    -4657628.665 8  -3131334.509 8
  20640145.086    20640151.135    -1465885.747 7   -821476.336 8
  22597764.453    22597769.938    -6426865.488 8  -4652732.531 6
 90  3  3  4 39 29.0800000  0  4G 6G 9G11G13
  20471126.927    20471129.288     -591462.255 8   -163546.376 6
  21221354.910    21221359.534    -4689730.380 9  -3156348.817 7
  20639502.019    20639506.984    -1469268.684 7   -824112.396 7
  22589109.083    22589116.448    -6472341.928 7  -4688168.677 6
 90  3  3  4 39 44.0800000  0  4G 6G 9G11G13
  20471665.757    20471668.231     -588629.546 8   -161339.068 7
  21215263.117    21215266.537    -4721745.262 8  -3181295.461 6
  20638882.666    20638887.638    -1472522.087 8   -826647.507 7
  22580472.888    22580479.154    -6517730.595 8  -4723536.392 6
 90  3  3  4 39 59.0800000  0  4G 6G 9G11G13
  20472228.651    20472231.297     -585665.732 8   -159029.615 7
  21209186.606    21209192.075    -4753673.663 8  -3206174.722 7
  20638287.823    20638292.122    -1475646.065 7   -829081.753 8
  22571852.862    22571859.040    -6563031.199 8  -4758835.492 7
 90  3  3  4 40 14.0800000  0  4G 6G 9G11G13
  20472816.735    20472819.921     -582570.584 7   -156617.801 7
  21203126.982    21203132.653    -4785514.381 9  -3230985.643 7
  20637718.043    20637721.307    -1478640.893 8   -831415.356 7
  22563249.448    22563257.871    -6608243.541 9  -4794065.837 7
 90  3  3  4 40 29.0800000  0  4G 6G 9G11G13
  20473432.215    20473435.105     -579343.954 8   -154103.538 7
  21197085.106    21197087.763    -4817267.387 7  -3255728.211 6
  20637172.697    20637177.452    -1481506.573 8   -833648.371 8
  22554662.164    22554669.344    -6653367.497 9  -4829227.315 7
 90  3  3  4 40 44.0800000  0  4G 6G 9G11G13
  20474070.777    20474073.238     -575985.958 9   -151486.916 8
  21191060.093    21191062.060    -4848932.474 8  -3280402.272 8
  20636651.475    20636657.031    -1484243.352 7   -835780.924 8
  22546091.443    22546099.860    -6698402.824 8  -4864319.724 6
 90  3  3  4 40 59.0800000  0  4G 6G 9G11G13
  20474733.251    20474739.020     -572496.171 8   -148767.631 7
  21185050.627    21185053.851    -4880509.197 7  -3305007.496 7
  20636155.052    20636161.458    -1486851.235 6   -837813.021 8
  22537535.426    22537544.233    -6743349.182 8  -4899342.808 6
 90  3  3  4 41 14.0800000  0  4G 6G 9G11G13
  20475423.086    20475427.322     -568874.470 8   -145945.522 7
  21179058.282    21179062.091    -4911997.145 7  -3329543.536 7
  20635683.409    20635689.983    -1489330.320 8   -839744.744 8
  22529000.172    22529009.190    -6788206.348 9  -4934296.393 7
 90  3  3  4 41 29.0800000  0  4G 6G 9G11G13
  20476138.532    20476142.466     -565120.724 9   -143020.520 8
  21173084.252    21173088.320    -4943395.739 9  -3354009.943 7
  20635237.342    20635241.860    -1491680.872 8   -841576.322 7
  22520481.583    22520490.285    -6832974.221 7  -4969180.379 6
 90  3  3  4 41 44.0800000  0  4G 6G 9G11G13
  20476876.844    20476880.878     -561234.677 8   -139992.421 8
  21167126.263    21167131.413    -4974705.081 8  -3378406.820 8
  20634814.667    20634818.647    -1493902.973 8   -843307.823 8
  22511980.800    22511988.782    -6877652.402 7  -5003994.490 6
 90  3  3  4 41 59.0800000  0  4G 6G 9G11G13
  20477641.773    20477646.337     -557216.227 7   -136861.170 7
  21161185.996    21161190.427    -5005924.471 8  -3402733.621 7
  20634415.099    20634420.038    -1495996.777 7   -844939.328 7
  22503496.492    22503502.527    -6922240.887 8  -5038738.733 7
 90  3  3  4 42 14.0800000  0  4G 6G 9G11G13
  20478433.530    20478437.036     -553065.249 8   -133626.639 8
  21155262.413    21155267.690    -5037054.113 8  -3426990.459 8
  20634041.435    20634045.730    -1497962.267 7   -846470.880 8
  22495028.961    22495035.355    -6966739.446 8  -5073412.895 6
 90  3  3  4 42 29.0800000  0  4G 6G 9G11G13
  20479248.969    20479251.827     -548781.479 9   -130288.639 7
  21149356.150    21149360.041    -5068093.013 8  -3451176.599 8
  20633690.202    20633697.694    -1499799.499 7   -847902.488 8
  22486575.618    22486585.180    -7011147.720 8  -5108016.721 7
 90  3  3  4 42 44.0800000  0  4G 6G 9G11G13
  20480088.375    20480091.066     -544364.855 8   -126847.085 7
  21143466.540    21143470.156    -5099041.035 8  -3475291.911 7
  20633366.142    20633372.294    -1501508.794 8   -849234.381 8
  22478142.439    22478153.168    -7055465.626 8  -5142550.119 6
 90  3  3  4 42 59.0800000  0  4G 6G 9G11G13
  20480953.019    20480957.290     -539815.191 8   -123301.894 8
  21137594.005    21137599.056    -5129897.541 8  -3499335.931 7
  20633065.438    20633071.380    -1503090.265 8   -850466.688 7
  22469725.648    22469735.991    -7099692.879 8  -5177012.849 6
 90  3  3  4 43 14.0800000  0  4G 6G 9G11G13
  20481844.488    20481848.352     -535132.423 8   -119653.006 7
  21131739.672    21131744.962    -5160662.622 8  -3523308.695 7
  20632789.878    20632792.895    -1504543.926 8   -851599.390 8
  22461325.065    22461336.536    -7143829.213 8  -5211404.741 7
 90  3  3  4 43 29.0800000  0  4G 6G 9G11G13
  20482761.109    20482767.263     -530316.373 8   -115900.222 7
  21125903.153    21125907.018    -5191335.912 9  -3547209.937 7
  20632536.499    20632541.139    -1505869.918 8   -852632.630 7
  22452944.612    22452955.413    -7187874.653 8  -5245725.794 8
 90  3  3  4 43 44.0800000  0  4G 6G 9G11G13
  20483702.697    20483707.889     -525366.802 8   -112043.413 8
  21120083.010    21120087.059    -5221917.140 9  -3571039.432 7
  20632307.805    20632312.699    -1507068.439 7   -853566.541 7
  22444581.638    22444590.756    -7231828.692 8  -5279975.640 8
 90  3  3  4 43 59.0800000  0  4G 6G 9G11G13
  20484670.244    20484674.707     -520283.654 8   -108082.523 7
  21114282.123    21114284.422    -5252405.453 8  -3594796.537 8
  20632103.730    20632110.113    -1508139.603 7   -854401.189 8
  22436236.537    22436242.962    -7275691.359 8  -5314154.276 7
 90  3  3  4 44 14.0800000  0  4G 6G 9G11G13
  20485663.457    20485667.736     -515066.849 8   -104017.459 8
  21108498.607    21108500.852    -5282801.303 7  -3618481.583 8
  20631924.719    20631930.239    -1509083.686 8   -855136.832 8
  22427907.699    22427915.848    -7319462.593 8  -5348261.692 6
 90  3  3  4 44 29.0800000  0  4G 6G 9G11G13
  20486682.761    20486684.235     -509716.017 8    -99847.948 7
  21102731.782    21102736.011    -5313103.356 8  -3642093.555 8
  20631769.432    20631774.669    -1509900.780 7   -855773.514 8
  22419595.798    22419601.893    -7363141.902 9  -5382297.448 7
 90  3  3  4 44 44.0800000  0  4G 6G 9G11G13
  20487724.773    20487728.977     -504231.151 8    -95574.044 7
  21096984.145    21096987.418    -5343312.050 8  -3665632.767 7
  20631637.881    20631642.984    -1510590.918 7   -856311.276 7
  22411301.450    22411309.622    -7406729.059 9  -5416261.420 7
 90  3  3  4 44 59.0800000  0  4G 6G 9G11G13
  20488794.573    20488799.252     -498612.148 8    -91195.592 6
  21091252.400    21091256.637    -5373426.696 8  -3689098.707 7
  20631529.990    20631536.867    -1511154.348 7   -856750.295 7
  22403023.627    22403031.870    -7450224.011 8  -5450153.537 7
 90  3  3  4 45 14.0800000  0  4G 6G 9G11G13
  20489889.553    20489893.822     -492858.852 8    -86712.490 8
  21085540.221    21085542.821    -5403446.998 8  -3712491.138 8
  20631448.773    20631452.745    -1511591.035 7   -857090.564 7
  22394765.048    22394771.184    -7493626.670 9  -5483973.720 7
 90  3  3  4 45 29.0800000  0  4G 6G 9G11G13
  20491010.052    20491013.942     -486970.999 7    -82124.550 8
  21079843.529    21079848.934    -5433372.652 8  -3735809.809 7
  20631389.073    20631392.716    -1511901.192 8   -857332.236 7
  22386522.489    22386528.951    -7536936.905 9  -5517721.908 7
 90  3  3  4 45 44.0800000  0  4G 6G 9G11G13
  20492155.276    20492161.515     -480948.489 8    -77431.705 8
  21074167.784    21074172.687    -5463203.267 8  -3759054.420 7
  20631352.164    20631358.157    -1512084.941 7   -857475.407 8
  22378300.253    22378305.447    -7580154.225 8  -5551397.658 7
 90  3  3  4 45 59.0800000  0  4G 6G 9G11G13
  20493326.610    20493332.293     -474791.801 8    -72634.284 8
  21068509.850    21068512.658    -5492938.907 7  -3782225.023 7
  20631340.635    20631348.133    -1512143.018 8   -857520.655 8
  22370093.642    22370098.410    -7623279.072 9  -5585001.379 7
 90  3  3  4 46 14.0800000  0  4G 6G 9G11G13
  20494523.645    20494529.229     -468500.138 7    -67731.673 8
  21062869.292    21062872.026    -5522578.707 8  -3805320.960 8
  20631355.821    20631360.606    -1512074.926 7   -857467.572 7
  22361904.717    22361908.491    -7666310.675 9  -5618532.435 7
 90  3  3  4 46 29.0800000  0  4G 6G 9G11G13
  20495745.770    20495750.633     -462073.027 7    -62723.535 8
  21057248.760    21057250.566    -5552122.093 8  -3828341.750 7
  20631392.583    20631398.824    -1511880.417 7   -857315.993 7
  22353735.072    22353737.461    -7709248.432 8  -5651990.365 7
 90  3  3  4 46 44.0800000  0  4G 6G 9G11G13
  20496995.851    20497000.973     -455510.932 7    -57610.197 8
  21051644.312    21051647.461    -5581569.282 8  -3851287.601 7
  20631454.066    20631460.166    -1511560.211 7   -857066.475 8
  22345582.091    22345586.213    -7752092.762 9  -5685375.521 7
 90  3  3  4 46 59.0800000  0  4G 6G 9G11G13
  20498270.328    20498276.579     -448813.655 8    -52391.552 8
  21046058.753    21046062.211    -5610919.556 9  -3874157.943 7
  20631539.966    20631545.084    -1511114.362 7   -856719.067 8
  22337446.881    22337451.253    -7794843.146 9  -5718687.456 8
 90  3  3  4 47 14.0800000  0  4G 6G 9G11G13
  20499572.123    20499576.487     -441980.880 7    -47067.297 8
  21040492.944    21040495.458    -5640172.646 9  -3896952.550 7
  20631648.354    20631653.708    -1510542.941 7   -856273.801 7
  22329327.982    22329333.299    -7837499.449 8  -5751926.076 8
 90  3  3  4 47 29.0800000  0  4G 6G 9G11G13
  20500897.842    20500903.179     -435012.576 8    -41637.457 7
  21034944.170    21034947.794    -5669328.339 8  -3919671.249 7
  20631779.625    20631785.148    -1509846.204 7   -855730.871 8
  22321229.179    22321234.491    -7880061.400 8  -5785091.179 7
 90  3  3  4 47 44.0800000  0  4G 6G 9G11G13
  20502249.720    20502254.942     -427908.700 7    -36101.953 8
  21029414.435    21029418.613    -5698386.238 8  -3942313.762 7
  20631935.840    20631941.175    -1509024.385 7   -855090.482 8
  22313148.076    22313152.189    -7922528.991 8  -5818182.722 7
 90  3  3  4 47 59.0800000  0  4G 6G 9G11G13
  20503627.596    20503631.086     -420668.994 8    -30460.619 7
  21023902.761    21023907.430    -5727345.977 8  -3964879.770 7
  20632115.533    20632122.657    -1508077.551 7   -854352.667 7
  22305085.047    22305090.230    -7964901.845 9  -5851200.498 7
 90  3  3  4 48 14.0800000  0  4G 6G 9G11G13
  20505030.727    20505035.477     -413293.390 7    -24713.366 8
  21018411.457    21018416.291    -5756207.364 9  -3987369.139 8
  20632320.461    20632326.076    -1507005.753 7   -853517.488 7
  22297039.519    22297044.044    -8007179.917 8  -5884144.396 7
 90  3  3  4 48 29.0800000  0  4G 6G 9G11G13
  20506460.188    20506463.421     -405781.766 7    -18860.145 7
  21012938.021    21012940.941    -5784969.773 9  -4009781.376 7
  20632546.280    20632552.484    -1505809.253 7   -852585.121 8
  22289011.204    22289016.828    -8049362.941 9  -5917014.252 6
 90  3  3  4 48 44.0800000  0  4G 6G 9G11G13
  20507914.432    20507918.665     -398133.944 8    -12900.817 8
  21007484.583    21007487.199    -5813633.251 8  -4032116.522 7
  20632799.815    20632804.600    -1504488.286 8   -851555.796 8
  22281000.438    22281009.163    -8091450.836 8  -5949809.985 7
 90  3  3  4 48 59.0800000  0  4G 6G 9G11G13
  20509396.353    20509400.557     -390350.011 8     -6835.404 7
  21002049.221    21002051.292    -5842197.219 8  -4054374.140 7
  20633074.647    20633080.302    -1503042.959 7   -850429.563 8
  22273008.780    22273018.057    -8133443.471 8  -5982531.472 7
 90  3  3  4 49 14.0800000  0  4G 6G 9G11G13
  20510903.008    20510907.488     -382429.725 7      -663.739 8
  20996631.171    20996636.182    -5870661.233 9  -4076553.881 7
  20633373.665    20633378.897    -1501473.454 8   -849206.561 6
  22265036.086    22265046.349    -8175340.455 8  -6015178.422 7
 90  3  3  4 49 29.0800000  0  4G 6G 9G11G13
  20512436.241    20512441.238     -374372.883 8      5614.304 8
  20991233.356    20991238.633    -5899024.984 8  -4098655.473 7
  20633694.525    20633701.231    -1499779.908 7   -847886.910 8
  22257081.835    22257090.781    -8217141.540 8  -6047750.637 7
 90  3  3  4 49 44.0800000  0  4G 6G 9G11G13
  20513995.757    20513999.622     -366179.219 8     11998.976 7
  20985855.607    20985858.600    -5927288.090 8  -4120678.642 7
  20634041.499    20634047.558    -1497962.246 7   -846470.542 8
  22249145.977    22249155.383    -8258846.561 9  -6080248.003 7
 90  3  3  4 49 59.0800000  0  4G 6G 9G11G13
  20515582.460    20515584.768     -357848.169 8     18490.724 8
  20980497.459    20980500.235    -5955449.780 8  -4142622.798 7
  20634410.711    20634415.864    -1496020.231 8   -844957.269 8
  22241227.830    22241237.203    -8300455.001 9  -6112670.118 7
 90  3  3  4 50 14.0800000  0  4G 6G 9G11G13
  20517192.704    20517194.350     -349380.413 7     25088.972 7
  20975157.183    20975160.040    -5983510.288 9  -4164488.110 7
  20634803.541    20634808.746    -1493954.688 8   -843347.767 8
  22233328.529    22233335.317    -8341967.249 9  -6145017.256 7
 90  3  3  4 50 29.0800000  0  4G 6G 9G11G13
  20518829.376    20518832.156     -340775.561 8     31794.060 7
  20969835.630    20969839.831    -6011469.071 8  -4186274.159 7
  20635220.444    20635226.022    -1491765.587 7   -841641.960 8
  22225447.355    22225454.621    -8383383.026 8  -6177289.242 7
 90  3  3  4 50 44.0800000  0  4G 6G 9G11G13
  20520492.722    20520495.945     -332033.666 7     38605.925 7
  20964535.450    20964539.001    -6039326.068 8  -4207980.889 7
  20635661.792    20635664.648    -1489453.288 8   -839840.149 8
  22217584.218    22217590.621    -8424702.128 9  -6209485.877 7
 90  3  3  4 50 59.0800000  0  4G 6G 9G11G13
  20522184.787    20522186.232     -323154.615 8     45524.665 8
  20959252.617    20959255.967    -6067080.614 8  -4229607.794 8
  20636123.683    20636128.540    -1487017.914 8   -837942.455 8
  22209740.577    22209747.100    -8465924.470 8  -6241607.135 6
 90  3  3  4 51 14.0800000  0  4G 6G 9G11G13
  20523900.231    20523901.047     -314138.294 9     52550.400 7
  20953990.042    20953993.244    -6094732.706 9  -4251154.843 6
  20636609.146    20636615.334    -1484459.637 7   -835948.972 7
  22201914.502    22201920.297    -8507049.840 9  -6273652.819 6
 90  3  3  4 51 29.0800000  0  4G 6G 9G11G13
  20525639.069    20525641.417     -304984.393 9     59683.301 8
  20948748.032    20948750.137    -6122281.748 8  -4272621.592 8
  20637119.294    20637122.550    -1481778.513 8   -833859.727 7
  22194106.147    22194110.854    -8548077.696 9  -6305622.499 8
 90  3  3  4 51 44.0800000  0  4G 6G 9G11G13
  20527406.173    20527408.061     -295693.003 8     66923.333 7
  20943525.210    20943526.986    -6149727.512 8  -4294007.876 7
  20637651.674    20637656.332    -1478974.913 8   -831675.101 7
  22186317.015    22186323.385    -8589008.403 9  -6337516.515 7
 90  3  3  4 51 59.0800000  0  4G 6G 9G11G13
  20529202.362    20529203.032     -286264.029 9     74270.569 7
  20938321.674    20938323.951    -6177069.704 9  -4315313.461 7
  20638210.501    20638214.382    -1476048.929 8   -829395.104 7
  22178545.913    22178552.749    -8629841.785 8  -6369334.652 8
 90  3  3  4 52 14.0800000  0  4G 6G 9G11G13
  20531023.094    20531024.712     -276697.436 9     81725.050 7
  20933140.472    20933141.277    -6204307.985 8  -4336538.075 7
  20638791.035    20638793.553    -1473000.671 8   -827019.834 7
  22170794.852    22170803.629    -8670577.452 8  -6401076.694 7
 90  3  3  4 52 29.0800000  0  4G 6G 9G11G13
  20532869.998    20532872.344     -266992.985 8     89286.945 9
  20927976.692    20927980.610    -6231441.732 7  -4357681.263 7
  20639393.581    20639399.302    -1469830.297 8   -824549.422 9
  22163063.386    22163067.410    -8711215.242 9  -6432742.419 6
 90  3  3  4 52 44.0800000  0  4G 6G 9G11G13
  20534741.915    20534747.421     -257150.604 8     96956.312 6
  20922832.117    20922835.920    -6258470.935 8  -4378742.951 6
  20640020.331    20640025.836    -1466538.099 7   -821984.047 7
  22155349.896    22155355.980    -8751754.989 9  -6464331.796 7
 90  3  3  4 52 59.0800000  0  4G 6G 9G11G13
  20536643.519    20536647.283     -247170.297 9    104733.174 8
  20917708.039    20917713.595    -6285395.257 7  -4399722.923 7
  20640669.178    20640676.071    -1463124.106 7   -819323.806 8
  22147654.460    22147658.104    -8792196.658 8  -6495844.732 6
 90  3  3  4 53 14.0800000  0  4G 6G 9G11G13
  20538569.339    20538572.073     -237051.842 8    112617.669 7
  20912605.421    20912609.226    -6312214.323 8  -4420620.886 7
  20641343.108    20641348.353    -1459588.492 7   -816568.766 8
  22139976.746    22139980.260    -8832539.855 9  -6527280.948 7
 90  3  3  4 53 29.0800000  0  4G 6G 9G11G13
  20540520.569    20540524.676     -226795.293 8    120609.807 7
  20907522.300    20907525.804    -6338927.818 8  -4441436.580 7
  20642039.888    20642044.933    -1455931.463 8   -813719.135 7
  22132319.029    22132322.977    -8872784.312 9  -6558640.205 7
 90  3  3  4 53 44.0800000  0  4G 6G 9G11G13
  20542497.872    20542502.436     -216400.328 8    128709.756 8
  20902459.338    20902463.385    -6365535.306 8  -4462169.660 7
  20642759.675    20642763.802    -1452153.415 7   -810775.187 8
  22124677.431    22124684.506    -8912929.903 9  -6589922.428 7
 90  3  3  4 53 59.0800000  0  4G 6G 9G11G13
  20544501.061    20544507.126     -205867.073 8    136917.476 8
  20897416.679    20897420.969    -6392036.394 9  -4482819.840 8
  20643502.050    20643504.201    -1448254.461 8   -807737.020 8
  22117059.755    22117063.786    -8952976.586 9  -6621127.568 6
 90  3  3  4 54 14.0800000  0  4G 6G 9G11G13
  20546531.479    20546538.635     -195195.318 8    145233.124 8
  20892393.402    20892397.492    -6418430.773 8  -4503386.866 7
  20644265.192    20644270.078    -1444234.704 7   -804604.741 8
  22109458.849    22109461.493    -8992924.080 8  -6652255.421 7
 90  3  3  4 54 29.0800000  0  4G 6G 9G11G13
  20548588.484    20548596.295     -184385.049 8    153656.702 8
  20887391.428    20887395.844    -6444718.216 8  -4523870.590 8
  20645053.161    20645058.253    -1440094.324 7   -801378.447 7
  22101875.454    22101877.964    -9032772.490 9  -6683306.071 7
 90  3  3  4 54 44.0800000  0  4G 6G 9G11G13
  20550672.306    20550677.567     -173436.149 7    162188.331 8
  20882408.985    20882412.174    -6470898.345 7  -4544270.659 7
  20645863.901    20645867.376    -1435833.430 7   -798058.256 8
  22094310.104    22094315.109    -9072521.503 9  -6714279.294 6
 90  3  3  4 54 59.0800000  0  4G 6G 9G11G13
  20552781.105    20552787.343     -162348.476 7    170828.069 8
  20877447.156    20877451.220    -6496970.771 9  -4564586.812 7
  20646697.596    20646702.297    -1431452.276 6   -794644.356 7
  22086765.599    22086770.233    -9112170.868 8  -6745174.854 7
 90  3  3  4 55 14.0800000  0  4G 6G 9G11G13
  20554919.160    20554924.254     -151121.991 7    179575.990 7
  20872507.151    20872510.005    -6522935.035 9  -4584818.693 6
  20647553.081    20647561.004    -1426951.017 7   -791136.878 8
  22079237.406    22079243.233    -9151720.640 8  -6775992.837 7
 90  3  3  4 55 29.0800000  0  4G 6G 9G11G13
  20557082.067    20557087.089     -139756.694 7    188432.080 8
  20867587.163    20867590.852    -6548791.220 8  -4604966.369 7
  20648431.422    20648438.435    -1422329.960 6   -787536.049 7
  22071731.526    22071738.707    -9191170.739 8  -6806733.114 6
 90  3  3  4 55 44.0800000  0  4G 6G 9G11G13
  20559271.304    20559275.396     -128252.470 8    197396.418 7
  20862689.042    20862691.257    -6574538.802 9  -4625029.385 7
  20649333.498    20649341.243    -1417589.194 7   -783841.961 8
  22064242.461    22064249.550    -9230520.861 8  -6837395.493 7
 90  3  3  4 55 59.0800000  0  4G 6G 9G11G13
  20561488.544    20561490.947     -116609.135 8    206469.142 8
  20857809.859    20857811.744    -6600177.271 8  -4645007.400 6
  20650258.812    20650266.120    -1412728.890 6   -780054.701 8
  22056773.835    22056782.063    -9269770.690 8  -6867979.751 6
 90  3  3  4 56 14.0800000  0  4G 6G 9G11G13
  20563730.953    20563734.601     -104826.662 8    215650.296 8
  20852950.602    20852956.028    -6625706.407 8  -4664900.230 6
  20651206.361    20651213.483    -1407749.205 7   -776174.427 7
  22049322.543    22049332.347    -9308920.126 9  -6898485.760 7
 90  3  3  4 56 29.0800000  0  4G 6G 9G11G13
  20566000.049    20566001.378      -92904.963 8    224939.946 8
  20848113.008    20848118.623    -6651125.792 8  -4684707.533 7
  20652178.178    20652182.820    -1402650.377 7   -772201.283 7
  22041891.593    22041900.400    -9347968.834 8  -6928913.278 8
 90  3  3  4 56 44.0800000  0  4G 6G 9G11G13
  20568292.852    20568297.374      -80843.733 7    234338.300 8
  20843297.029    20843301.071    -6676435.052 8  -4704429.019 6
  20653168.282    20653176.185    -1397432.440 7   -768135.361 8
  22034479.059    22034490.144    -9386916.576 9  -6959262.142 7
 90  3  3  4 56 59.0800000  0  4G 6G 9G11G13
  20570614.845    20570618.299      -68643.261 8    243845.170 7
  20838500.933    20838506.532    -6701634.031 8  -4724064.563 7
  20654186.362    20654189.987    -1392095.787 7   -763976.900 7
  22027087.325    22027096.004    -9425763.764 8  -6989532.628 8
 90  3  3  4 57 14.0800000  0  4G 6G 9G11G13
  20572963.477    20572965.695      -56303.292 7    253460.726 7
  20833727.413    20833730.582    -6726722.399 8  -4743613.916 6
  20655224.564    20655228.826    -1386640.481 7   -759726.006 8
  22019713.518    22019722.478    -9464510.159 8  -7019724.568 7
 90  3  3  4 57 29.0800000  0  4G 6G 9G11G13
  20575336.282    20575343.280      -43823.804 8    263184.984 8
  20828973.981    20828977.055    -6751699.756 8  -4763076.756 6
  20656285.975    20656289.505    -1381066.738 8   -755382.833 7
  22012359.538    22012370.135    -9503155.411 7  -7049837.723 6
 90  3  3  4 57 44.0800000  0  4G 6G 9G11G13
  20577738.001    20577744.050      -31204.724 7    273018.018 7
  20824243.472    20824245.437    -6776565.709 7  -4782452.806 6
  20657367.930    20657372.363    -1375374.802 8   -750947.553 7
  22005026.141    22005034.108    -9541699.326 8  -7079871.880 7
 90  3  3  4 57 59.0800000  0  4G 6G 9G11G13
  20580166.312    20580172.067      -18446.090 7    282959.804 8
  20819532.635    20819534.148    -6801320.062 8  -4801741.886 7
  20658472.751    20658479.752    -1369564.991 7   -746420.426 6
  21997710.741    21997719.999    -9580141.736 8  -7109826.985 7
 90  3  3  4 58 14.0800000  0  4G 6G 9G11G13
  20582621.041    20582626.466       -5547.692 8    293010.491 8
  20814842.656    20814846.596    -6825962.303 8  -4820943.638 6
  20659600.505    20659606.687    -1363637.408 7   -741801.519 6
  21990415.178    21990425.401    -9618482.488 8  -7139702.848 8
 90  3  3  4 58 29.0800000  0  4G 6G 9G11G13
  20585102.058    20585108.137        7490.503 8    303170.105 7
  20810174.690    20810179.130    -6850492.367 8  -4840057.965 7
  20660750.161    20660757.775    -1357592.167 7   -737090.933 7
  21983137.475    21983146.624    -9656721.520 9  -7169499.444 7
 90  3  3  4 58 44.0800000  0  4G 6G 9G11G13
  20587609.529    20587614.106       20668.651 8    313438.782 7
  20805526.978    20805532.319    -6874909.568 8  -4859084.359 8
  20661923.835    20661928.999    -1351429.437 7   -732288.801 7
  21975881.309    21975888.903    -9694858.533 9  -7199216.536 7
 90  3  3  4 58 59.0800000  0  4G 6G 9G11G13
  20590144.632    20590148.554       33986.672 9    323816.463 8
  20800902.722    20800906.531    -6899213.951 8  -4878022.817 7
  20663120.143    20663125.006    -1345149.564 7   -727395.375 7
  21968644.529    21968651.160    -9732893.525 8  -7228854.158 8
 90  3  3  4 59 14.0800000  0  4G 6G 9G11G13
  20592707.155    20592708.096       47444.777 8    334303.312 7
  20796300.322    20796303.944    -6923404.914 9  -4896872.930 6
  20664337.549    20664342.845    -1338752.651 8   -722410.760 8
  21961426.320    21961431.262    -9770826.332 9  -7258412.124 7
 90  3  3  4 59 29.0800000  0  4G 6G 9G11G13
  20595293.885    20595296.431       61042.833 7    344899.204 7
  20791718.777    20791721.568    -6947482.154 8  -4915634.382 7
  20665575.938    20665582.271    -1332238.919 7   -717335.140 7
  21954228.255    21954232.650    -9808656.908 8  -7287890.458 7
 90  3  3  4 59 44.0800000  0  4G 6G 9G11G13
  20597907.414    20597910.090       74780.989 7    355604.269 7
  20787159.126    20787162.080    -6971445.586 8  -4934307.174 7
  20666838.105    20666843.483    -1325608.701 7   -712168.745 7
  21947048.142    21947053.632    -9846385.192 8  -7317289.080 7
 90  3  3  4 59 59.0800000  0  4G 6G 9G11G13
  20600547.522    20600551.998       88659.278 7    366418.508 7
  20782621.465    20782624.305    -6995294.671 9  -4952890.876 8
  20668122.007    20668127.950    -1318862.118 6   -706911.632 7
  21939886.595    21939892.573    -9884010.870 9  -7346607.751 7
 90  3  3  5  0 14.0800000  0  4G 6G 9G11G13
  20603215.384    20603219.666      102677.781 8    377342.003 8
  20778103.303    20778106.853    -7019029.188 8  -4971385.278 6
  20669427.463    20669434.506    -1311999.278 7   -701563.988 7
  21932746.410    21932751.496    -9921533.898 9  -7375846.408 7
 90  3  3  5  0 29.0800000  0  4G 6G 9G11G13
  20605910.423    20605913.686      116836.508 8    388374.767 8
  20773607.035    20773613.687    -7042648.785 8  -4989790.167 8
  20670755.089    20670760.228    -1305020.509 7   -696125.948 7
  21925625.765    21925629.089    -9958953.829 8  -7405004.738 6
 90  3  3  5  0 44.0800000  0  4G 6G 9G11G13
  20608631.387    20608636.269      131135.636 7    399516.946 8
  20769136.130    20769140.355    -7066153.137 8  -5008105.222 8
  20672106.073    20672111.028    -1297926.003 7   -690597.758 7
  21918524.746    21918530.762    -9996270.672 9  -7434082.785 7
 90  3  3  5  0 59.0800000  0  4G 6G 9G11G13
  20611377.995    20611384.179      145575.201 7    410768.552 8
  20764684.864    20764689.171    -7089541.732 7  -5026330.101 7
  20673477.924    20673483.958    -1290715.859 7   -684979.460 7
  21911443.175    21911448.663   -10033484.128 9  -7463080.220 7
 90  3  3  5  1 14.0800000  0  4G 6G 9G11G13
  20614152.165    20614157.299      160155.283 6    422129.626 7
  20760255.881    20760260.264    -7112814.404 8  -5044464.625 7
  20674872.187    20674875.846    -1283390.149 8   -679271.094 7
  21904380.562    21904386.273   -10070594.312 8  -7491997.212 7
 90  3  3  5  1 29.0800000  0  4G 6G 9G11G13
  20616953.492    20616959.502      174875.909 7    433600.230 8
  20755849.217    20755852.534    -7135970.669 8  -5062508.443 6
  20676288.603    20676293.159    -1275949.277 7   -673473.008 7
  21897338.929    21897343.734   -10107600.919 9  -7520833.470 8
 90  3  3  5  1 44.0800000  0  4G 6G 9G11G13
  20619783.133    20619787.712      189737.129 8    445180.414 7
  20751465.578    20751468.067    -7159010.382 8  -5080461.440 7
  20677724.829    20677730.047    -1268393.306 7   -667585.236 7
  21890314.720    21890321.148   -10144503.652 8  -7549588.830 8
 90  3  3  5  1 59.0800000  0  4G 6G 9G11G13
  20622637.290    20622641.852      204738.789 7    456870.021 8
  20747103.812    20747106.028    -7181933.147 8  -5098323.335 7
  20679185.358    20679190.852    -1260722.625 8   -661608.089 7
  21883313.748    21883320.279   -10181302.694 9  -7578263.355 7
 90  3  3  5  2 14.0800000  0  4G 6G 9G11G13
  20625518.329    20625524.758      219881.195 8    468669.286 9
  20742763.574    20742768.373    -7204738.641 8  -5116093.831 7
  20680667.003    20680672.234    -1252937.415 7   -655541.679 8
  21876331.150    21876335.905   -10217997.884 8  -7606856.953 7
 90  3  3  5  2 29.0800000  0  4G 6G 9G11G13
  20628426.761    20628432.158      235164.158 7    480578.097 9
  20738443.978    20738450.196    -7227426.523 7  -5133772.698 7
  20682170.359    20682177.082    -1245037.876 8   -649386.186 8
  21869368.564    21869374.582   -10254589.071 9  -7635369.543 7
 90  3  3  5  2 44.0800000  0  4G 6G 9G11G13
  20631362.065    20631367.204      250587.827 8    492596.535 7
  20734150.614    20734155.847    -7249996.782 8  -5151359.890 7
  20683695.707    20683700.664    -1237024.149 7   -643141.713 7
  21862425.731    21862432.196   -10291076.007 9  -7663800.897 7
 90  3  3  5  2 59.0800000  0  4G 6G 9G11G13
  20634324.027    20634328.204      266152.166 8    504724.602 8
  20729878.849    20729884.044    -7272448.767 8  -5168854.935 7
  20685241.376    20685246.041    -1228896.561 8   -636808.521 7
  21855501.757    21855507.174   -10327458.694 9  -7692150.998 6
 90  3  3  5  3 14.0800000  0  4G 6G 9G11G13
  20637313.835    20637316.510      281857.283 8    516962.356 8
  20725628.787    20725633.457    -7294782.303 8  -5186257.673 7
  20686809.998    20686815.555    -1220655.271 8   -630386.743 7
  21848596.920    21848604.035   -10363736.996 9  -7720419.772 7
 90  3  3  5  3 29.0800000  0  4G 6G 9G11G13
  20640327.138    20640332.344      297703.265 8    529309.864 8
  20721400.552    20721404.428    -7316996.872 8  -5203567.718 6
  20688399.502    20688406.549    -1212300.452 8   -623876.493 7
  21841713.012    21841722.262   -10399910.775 8  -7748607.111 7
 90  3  3  5  3 44.0800000  0  4G 6G 9G11G13
  20643367.942    20643373.280      313689.854 7    541766.915 8
  20717197.555    20717201.553    -7339092.644 8  -5220785.201 6
  20690011.983    20690016.635    -1203832.566 7   -617278.117 7
  21834850.239    21834857.866   -10435980.202 9  -7776713.096 7
 90  3  3  5  3 59.0800000  0  4G 6G 9G11G13
  20646436.964    20646442.059      329816.870 8    554333.435 8
  20713014.952    20713018.546    -7361069.516 8  -5237910.026 7
  20691645.344    20691650.230    -1195252.067 8   -610592.020 7
  21828006.525    21828013.325   -10471945.273 9  -7804737.779 7
 90  3  3  5  4 14.0800000  0  4G 6G 9G11G13
  20649532.987    20649537.195      346084.919 8    567009.833 7
  20708855.353    20708857.927    -7382926.545 8  -5254941.457 6
  20693299.775    20693303.522    -1186558.538 7   -603817.819 7
  21821182.156    21821188.620   -10507805.216 9  -7832680.562 7
 90  3  3  5  4 29.0800000  0  4G 6G 9G11G13
  20652656.601    20652660.259      362494.361 7    579796.403 6
  20704718.915    20704723.496    -7404662.899 9  -5271878.883 7
  20694976.426    20694979.460    -1177751.992 8   -596955.546 7
  21814378.186    21814384.422   -10543559.650 9  -7860541.135 6
 90  3  3  5  4 44.0800000  0  4G 6G 9G11G13
  20655807.384    20655807.572      379044.867 7    592692.900 7
  20700605.544    20700609.117    -7426278.814 9  -5288722.422 6
  20696673.421    20696675.901    -1168832.959 7   -590005.656 7
  21807593.271    21807601.987   -10579208.821 8  -7888319.705 7
 90  3  3  5  4 59.0800000  0  4G 6G 9G11G13
  20658983.197    20658986.874      395736.354 7    605699.229 7
  20696515.307    20696518.610    -7447773.999 7  -5305471.928 7
  20698390.362    20698394.103    -1159801.885 7   -582968.436 7
  21800829.767    21800837.712   -10614752.721 8  -7916016.189 7
 90  3  3  5  5 14.0800000  0  4G 6G 9G11G13
  20662184.848    20662189.415      412568.745 8    618815.362 7
  20692447.481    20692452.156    -7469148.328 7  -5322127.242 6
  20700129.851    20700134.657    -1150658.951 7   -575844.075 7
  21794086.734    21794094.299   -10650191.283 8  -7943630.631 7
 90  3  3  5  5 29.0800000  0  4G 6G 9G11G13
  20665416.171    20665420.171      429542.195 8    632041.421 8
  20688403.359    20688407.783    -7490401.356 8  -5338688.042 7
  20701892.216    20701894.933    -1141404.316 7   -568632.666 7
  21787365.037    21787371.796   -10685524.352 9  -7971162.841 7
 90  3  3  5  5 44.0800000  0  4G 6G 9G11G13
  20668672.869    20668678.692      446656.756 9    645377.431 7
  20684381.974    20684387.035    -7511532.542 8  -5355153.890 7
  20703672.556    20703678.909    -1132038.175 7   -561334.383 8
  21780660.885    21780666.599   -10720751.798 8  -7998612.747 7
 90  3  3  5  5 59.0800000  0  4G 6G 9G11G13
  20671956.216    20671961.828      463912.426 8    658823.406 8
  20680386.330    20680389.791    -7532541.892 7  -5371524.810 7
  20705476.687    20705481.724    -1122560.853 8   -553949.438 7
  21773976.833    21773981.444   -10755873.400 9  -8025980.175 6
 90  3  3  5  6 14.0800000  0  4G 6G 9G11G13
  20675266.933    20675272.891      481309.229 8    672379.332 7
  20676410.521    20676414.353    -7553428.902 8  -5387800.387 7
  20707301.679    20707307.160    -1112972.405 7   -546477.906 7
  21767313.989    21767317.406   -10790889.143 9  -8053265.144 6
 90  3  3  5  6 29.0800000  0  4G 6G 9G11G13
  20678604.742    20678607.818      498847.124 8    686045.234 7
  20672458.962    20672463.310    -7574193.394 7  -5403980.489 7
  20709146.226    20709154.689    -1103273.132 8   -538920.028 7
  21760669.522    21760673.402   -10825798.811 8  -8080467.437 6
 90  3  3  5  6 44.0800000  0  4G 6G 9G11G13
  20681968.808    20681973.684      516526.137 8    699821.067 7
  20668530.411    20668535.173    -7594835.059 8  -5420064.878 7
  20711014.055    20711019.537    -1093463.309 8   -531276.008 7
  21754046.858    21754049.071   -10860602.401 8  -8107587.061 6
 90  3  3  5  6 59.0800000  0  4G 6G 9G11G13
  20685360.042    20685363.303      534346.377 8    713706.965 7
  20664625.620    20664630.945    -7615353.505 7  -5436053.278 8
  20712902.475    20712906.523    -1083543.161 8   -523546.006 8
  21747444.733    21747446.884   -10895299.872 8  -8134624.027 7
 90  3  3  5  7 14.0800000  0  4G 6G 9G11G13
  20688777.237    20688782.513      552307.220 8    727702.395 7
  20660744.761    20660750.966    -7635748.763 7  -5451945.673 8
  20714810.036    20714812.626    -1073513.469 8   -515730.646 7
  21740861.840    21740864.898   -10929891.561 9  -8161578.545 6
 90  3  3  5  7 29.0800000  0  4G 6G 9G11G13
  20692220.915    20692225.880      570409.092 7    741807.742 7
  20656886.739    20656892.807    -7656020.495 7  -5467741.811 7
  20716740.321    20716744.551    -1063374.012 8   -507829.779 7
  21734298.893    21734302.863   -10964376.780 9  -8188450.095 6
 90  3  3  5  7 44.0800000  0  4G 6G 9G11G13
  20695694.188    20695697.435      588652.266 7    756023.200 7
  20653052.505    20653058.676    -7676167.979 8  -5483441.149 8
  20718691.083    20718695.118    -1053124.792 8   -499843.373 7
  21727756.920    21727761.840   -10998755.279 8  -8215238.503 8
 90  3  3  5  7 59.0800000  0  4G 6G 9G11G13
  20699191.514    20699196.579      607036.489 8    770348.537 8
  20649243.237    20649248.349    -7696191.142 8  -5499043.592 7
  20720663.401    20720666.116    -1042766.137 8   -491771.676 7
  21721235.633    21721241.291   -11033027.289 9  -8241943.942 6
 90  3  3  5  8 14.0800000  0  4G 6G 9G11G13
  20702717.787    20702720.762      625561.934 8    784783.962 7
  20645456.217    20645460.373    -7716089.674 7  -5514548.919 7
  20722654.135    20722658.086    -1032298.196 7   -483614.837 7
  21714733.541    21714740.482   -11067192.550 9  -8268566.157 6
 90  3  3  5  8 29.0800000  0  4G 6G 9G11G13
  20706270.304    20706271.532      644228.767 7    799329.573 7
  20641694.359    20641698.595    -7735862.975 8  -5529956.669 7
  20724665.700    20724670.167    -1021721.135 7   -475372.946 7
  21708252.799    21708259.363   -11101250.742 9  -8295104.959 7
 90  3  3  5  8 44.0800000  0  4G 6G 9G11G13
  20709849.473    20709852.381      663037.145 8    813985.446 7
  20637954.738    20637958.813    -7755510.621 8  -5545266.505 7
  20726697.690    20726705.069    -1011034.891 8   -467046.015 7
  21701792.516    21701798.686   -11135201.515 8  -8321560.080 7
 90  3  3  5  8 59.0800000  0  4G 6G 9G11G13
  20713455.992    20713459.300      681986.886 8    828751.481 8
  20634240.339    20634245.085    -7775032.522 8  -5560478.374 7
  20728751.660    20728758.904    -1000240.022 6   -458634.423 7
  21695352.510    21695358.203   -11169045.117 9  -8347931.679 6
 90  3  3  5  9 14.0800000  0  4G 6G 9G11G13
  20717087.198    20717092.863      701077.653 7    843627.360 8
  20630549.723    20630554.457    -7794428.607 8  -5575592.192 8
  20730827.936    20730832.617     -989337.074 7   -450138.608 7
  21688931.993    21688937.077   -11202781.525 9  -8374219.779 7
 90  3  3  5  9 29.0800000  0  4G 6G 9G11G13
  20720747.919    20720753.239      720309.717 6    858613.387 7
  20626883.147    20626886.833    -7813698.349 7  -5590607.554 8
  20732923.139    20732927.311     -978326.046 7   -441558.573 8
  21682530.840    21682538.872   -11236410.335 9  -8400424.035 7
 90  3  3  5  9 44.0800000  0  4G 6G 9G11G13
  20724434.139    20724438.889      739683.171 7    873709.580 7
  20623239.143    20623244.068    -7832841.391 8  -5605524.210 8
  20735040.550    20735044.740     -967207.069 8   -432894.438 7
  21676152.299    21676161.668   -11269931.584 8  -8426544.468 8
 90  3  3  5  9 59.0800000  0  4G 6G 9G11G13
  20728146.290    20728151.752      759197.688 7    888915.679 7
  20619620.114    20619624.082    -7851857.870 7  -5620342.228 7
  20737176.599    20737181.029     -955980.670 9   -424146.570 6
  21669793.858    21669804.560   -11303345.636 8  -8452581.356 8
 90  3  3  5 10 14.0800000  0  4G 6G 9G11G13
  20731887.401    20731893.580      778853.470 8    904231.850 8
  20616025.982    20616028.971    -7870747.248 7  -5635061.201 7
  20739334.006    20739338.021     -944646.860 8   -415315.013 7
  21663457.052    21663465.952   -11336652.048 8  -8478534.382 7
 90  3  3  5 10 29.0800000  0  4G 6G 9G11G13
  20735653.564    20735659.248      798650.359 7    919658.007 7
  20612455.848    20612459.966    -7889509.298 7  -5649680.970 7
  20741511.197    20741514.862     -933206.007 7   -406400.063 8
  21657139.913    21657149.489   -11369850.874 9  -8504403.543 8
 90  3  3  5 10 44.0800000  0  4G 6G 9G11G13
  20739450.312    20739453.473      818587.938 8    935193.788 7
  20608908.893    20608912.271    -7908143.921 8  -5664201.455 7
  20743706.847    20743711.953     -921658.645 8   -397402.117 7
  21650842.898    21650850.254   -11402942.398 8  -8530189.106 8
 90  3  3  5 10 59.0800000  0  4G 6G 9G11G13
  20743270.380    20743273.741      838666.725 8    950839.587 6
  20605387.442    20605391.873    -7926650.552 8  -5678622.195 7
  20745925.838    20745928.741     -910004.621 8   -388321.062 7
  21644566.415    21644571.383   -11435925.872 8  -8555890.461 6
 90  3  3  5 11 14.0800000  0  4G 6G 9G11G13
  20747117.635    20747121.772      858886.727 8    966595.447 7
  20601892.270    20601893.737    -7945028.904 8  -5692942.969 6
  20748162.402    20748167.954     -898244.239 7   -379157.125 8
  21638310.610    21638314.504   -11468801.245 8  -8581507.598 7
 90  3  3  5 11 29.0800000  0  4G 6G 9G11G13
  20750992.439    20750994.382      879247.846 8    982461.259 6
  20598419.175    20598421.868    -7963278.810 8  -5707163.673 7
  20750419.951    20750424.383     -886377.687 7   -369910.445 5
  21632074.970    21632078.005   -11501568.500 9  -8607040.480 6
 90  3  3  5 11 44.0800000  0  4G 6G 9G11G13
  20754894.714    20754896.616      899750.134 8    998437.061 7
  20594971.089    20594974.595    -7981399.474 8  -5721283.651 7
  20752698.553    20752702.427     -874405.123 7   -360581.161 7
  21625860.226    21625864.811   -11534227.635 9  -8632489.121 7
 90  3  3  5 11 59.0800000  0  4G 6G 9G11G13
  20758822.889    20758825.436      920393.561 7   1014522.857 7
  20591546.613    20591549.208    -7999390.836 9  -5735302.876 8
  20754996.274    20755003.026     -862326.906 7   -351169.561 8
  21619666.527    21619669.262   -11566778.553 9  -8657853.434 7
 90  3  3  5 12 14.0800000  0  4G 6G 9G11G13
  20762778.482    20762780.468      941178.091 7   1030718.595 6
  20588146.908    20588151.267    -8017252.957 8  -5749221.432 7
  20757315.062    20757321.973     -850143.256 6   -341675.797 7
  21613493.216    21613495.727   -11599221.065 9  -8683133.266 7
 90  3  3  5 12 29.0800000  0  4G 6G 9G11G13
  20766760.459    20766762.919      962103.574 8   1047024.167 7
  20584773.492    20584776.994    -8034985.798 8  -5763039.219 7
  20759653.250    20759660.774     -837854.411 8   -332100.076 8
  21607339.261    21607343.786   -11631555.036 8  -8708328.549 7
 90  3  3  5 12 44.0800000  0  4G 6G 9G11G13
  20770767.921    20770773.243      983170.321 8   1063439.785 8
  20581422.895    20581427.852    -8052588.172 8  -5776755.348 6
  20762013.338    20762018.807     -825460.517 7   -322442.484 7
  21601206.702    21601212.364   -11663780.507 9  -8733439.252 6
 90  3  3  5 12 59.0800000  0  4G 6G 9G11G13
  20774804.315    20774809.497     1004378.039 8   1079965.264 8
  20578100.149    20578103.409    -8070060.169 8  -5790369.868 7
  20764390.788    20764397.697     -812961.918 7   -312703.330 7
  21595093.943    21595098.892   -11695897.518 9  -8758465.439 7
 90  3  3  5 13 14.0800000  0  4G 6G 9G11G13
  20778867.813    20778871.789     1025726.795 8   1096600.642 6
  20574797.956    20574804.503    -8087401.406 8  -5803882.529 7
  20766788.862    20766795.853     -800358.885 8   -302882.769 7
  21589004.704    21589008.741   -11727905.916 8  -8783407.026 7
 90  3  3  5 13 29.0800000  0  4G 6G 9G11G13
  20782957.021    20782960.325     1047216.507 8   1113345.863 7
  20571523.174    20571527.395    -8104611.859 8  -5817293.258 7
  20769205.784    20769212.099     -787651.660 8   -292981.018 7
  21582934.051    21582939.270   -11759805.486 9  -8808263.797 7
 90  3  3  5 13 44.0800000  0  4G 6G 9G11G13
  20787072.662    20787076.827     1068847.205 9   1130200.945 7
  20568273.204    20568277.205    -8121690.830 9  -5830601.557 7
  20771645.136    20771650.312     -774840.322 7   -282998.159 7
  21576883.768    21576888.243   -11791595.948 9  -8833035.562 7
 90  3  3  5 13 59.0800000  0  4G 6G 9G11G13
  20791216.507    20791218.482     1090618.805 8   1147165.843 7
  20565048.716    20565052.198    -8138638.443 8  -5843807.492 8
  20774103.341    20774108.986     -761925.282 8   -272934.495 6
  21570855.019    21570860.612   -11823277.407 9  -8857722.380 7
 90  3  3  5 14 14.0800000  0  4G 6G 9G11G13
  20795385.634    20795388.208     1112531.341 9   1164240.542 8
  20561848.813    20561851.536    -8155454.102 7  -5856910.577 6
  20776580.285    20776585.324     -748906.873 7   -262790.272 6
  21564846.941    21564852.314   -11854849.743 9  -8882324.174 8
 90  3  3  5 14 29.0800000  0  4G 6G 9G11G13
  20799582.290    20799585.211     1134584.741 8   1181425.026 7
  20558672.466    20558677.243    -8172137.979 8  -5869910.991 7
  20779077.125    20779081.173     -735785.288 7   -252565.648 6
  21558860.121    21558866.210   -11886312.989 8  -8906840.956 7
 90  3  3  5 14 44.0800000  0  4G 6G 9G11G13
  20803806.010    20803808.572     1156778.950 8   1198719.222 7
  20555523.843    20555527.373    -8188689.516 8  -5882808.266 7
  20781593.227    20781598.039     -722560.751 7   -242260.800 7
  21552894.319    21552899.987   -11917667.131 9  -8931272.731 6
 90  3  3  5 14 59.0800000  0  4G 6G 9G11G13
  20808056.369    20808059.346     1179113.912 8   1216123.077 7
  20552399.200    20552404.069    -8205108.781 8  -5895602.491 7
  20784129.774    20784136.313     -709233.548 7   -231875.961 7
  21546947.828    21546953.982   -11948911.984 9  -8955619.329 7
 90  3  3  5 15 14.0800000  0  4G 6G 9G11G13
  20812333.074    20812337.139     1201589.655 8   1233636.634 6
  20549300.220    20549305.400    -8221394.942 8  -5908292.997 8
  20786684.951    20786689.592     -695803.882 7   -221411.286 6
  21541022.411    21541029.726   -11980047.379 9  -8979880.656 7
 90  3  3  5 15 29.0800000  0  4G 6G 9G11G13
  20816636.194    20816638.971     1224206.125 9   1251259.867 7
  20546226.638    20546231.185    -8237548.142 8  -5920879.893 7
  20789259.267    20789264.226     -682271.945 8   -210866.908 6
  21535118.899    21535124.985   -12011073.147 9  -9004056.540 7
 90  3  3  5 15 44.0800000  0  4G 6G 9G11G13
  20820967.771    20820971.307     1246963.366 9   1268992.745 7
  20543178.700    20543181.581    -8253567.460 8  -5933362.466 8
  20791855.753    20791859.492     -668637.962 7   -200243.008 7
  21529234.974    21529240.570   -12041989.470 9  -9028147.150 6
 90  3  3  5 15 59.0800000  0  4G 6G 9G11G13
  20825325.439    20825327.884     1269861.164 8   1286835.176 8
  20540156.668    20540159.439    -8269452.929 8  -5945740.735 8
  20794468.977    20794473.992     -654902.217 8   -189539.825 7
  21523373.308    21523378.571   -12072796.262 9  -9052152.427 6
 90  3  3  5 16 14.0800000  0  4G 6G 9G11G13
  20829709.704    20829713.651     1292899.536 9   1304787.137 7
  20537158.030    20537160.784    -8285204.833 7  -5958014.925 7
  20797102.002    20797107.884     -641065.045 8   -178757.616 7
  21517530.466    21517536.084   -12103493.444 9  -9076072.268 8
 90  3  3  5 16 29.0800000  0  4G 6G 9G11G13
  20834120.384    20834124.721     1316078.520 8   1322848.656 6
  20534185.925    20534189.832    -8300822.557 8  -5970184.580 7
  20799754.332    20799760.167     -627126.702 7   -167896.540 7
  21511709.879    21511714.410   -12134080.681 9  -9099906.456 6
 90  3  3  5 16 44.0800000  0  4G 6G 9G11G13
  20838557.211    20838560.740     1339397.939 9   1341019.636 7
  20531239.368    20531241.848    -8316305.329 8  -5982249.054 6
  20802426.252    20802431.167     -613087.290 7   -156956.738 7
  21505909.700    21505916.960   -12164558.337 8  -9123655.250 7
 90  3  3  5 16 59.0800000  0  4G 6G 9G11G13
  20843021.336    20843025.071     1362857.825 8   1359300.096 7
  20528318.439    20528321.526    -8331653.598 8  -5994208.755 7
  20805118.423    20805121.184     -598947.158 8   -145938.437 7
  21500131.505    21500136.784   -12194926.043 9  -9147318.365 6
 90  3  3  5 17 14.0800000  0  4G 6G 9G11G13
  20847511.503    20847515.121     1386458.197 8   1377689.980 7
  20525423.654    20525426.642    -8346866.940 8  -6006063.295 7
  20807827.832    20807830.689     -584706.524 8   -134841.843 7
  21494373.810    21494380.576   -12225183.605 9  -9170895.638 7
 90  3  3  5 17 29.0800000  0  4G 6G 9G11G13
  20852029.974    20852034.055     1410198.884 8   1396189.219 8
  20522555.323    20522556.913    -8361944.575 8  -6017812.098 8
  20810557.292    20810560.762     -570365.792 8   -123667.245 7
  21488635.923    21488642.202   -12255331.247 8  -9194387.271 6
 90  3  3  5 17 44.0800000  0  4G 6G 9G11G13
  20856575.064    20856576.336     1434079.898 8   1414797.801 8
  20519711.693    20519714.498    -8376886.934 8  -6029455.485 6
  20813304.181    20813308.974     -555925.039 8   -112414.703 7
  21482922.137    21482924.792   -12285368.868 9  -9217793.177 6
 90  3  3  5 17 59.0800000  0  4G 6G 9G11G13
  20861146.651    20861148.039     1458101.265 8   1433515.731 7
  20516893.934    20516896.507    -8391693.037 8  -6040992.703 6
  20816069.732    20816075.036     -541384.569 8   -101084.457 6
  21477226.592    21477228.714   -12315296.303 9  -9241113.223 6
 90  3  3  5 18 14.0800000  0  4G 6G 9G11G13
  20865742.394    20865744.981     1482262.880 8   1452342.966 6
  20514102.990    20514104.915    -8406363.189 8  -6052423.994 7
  20818855.732    20818860.453     -526744.646 8    -89676.706 6
  21471552.132    21471557.037   -12345113.642 8  -9264347.485 7
 90  3  3  5 18 29.0800000  0  4G 6G 9G11G13
  20870366.395    20870370.631     1506564.641 8   1471279.388 7
  20511336.183    20511338.625    -8420896.817 7  -6063748.904 6
  20821661.115    20821665.707     -512005.566 8    -78191.697 6
  21465900.483    21465905.022   -12374820.794 9  -9287495.903 6
 90  3  3  5 18 44.0800000  0  4G 6G 9G11G13
  20875018.228    20875022.520     1531006.410 8   1490324.905 7
  20508596.324    20508602.114    -8435293.888 8  -6074967.409 5
  20824484.927    20824488.761     -497167.462 8    -66629.527 6
  21460267.870    21460273.338   -12404417.682 9  -9310558.377 7
 90  3  3  5 18 59.0800000  0  4G 6G 9G11G13
  20879695.446    20879700.395     1555588.266 8   1509479.615 7
  20505881.296    20505886.909    -8449553.917 7  -6086079.122 7
  20827328.011    20827331.682     -482230.678 8    -54990.465 7
  21454656.241    21454662.867   -12433904.033 8  -9333534.719 7
 90  3  3  5 19 14.0800000  0  4G 6G 9G11G13
  20884400.609    20884403.631     1580310.056 8   1528743.345 7
  20503195.029    20503198.583    -8463676.795 8  -6097083.930 6
  20830188.625    20830192.714     -467195.502 8    -43274.728 6
  21449066.445    21449074.066   -12463279.997 9  -9356425.043 7
 90  3  3  5 19 29.0800000  0  4G 6G 9G11G13
  20889131.617    20889134.109     1605171.792 8   1548116.134 7
  20500534.113    20500536.681    -8477662.255 7  -6107981.690 6
  20833067.746    20833071.494     -452062.114 8    -31482.484 6
  21443497.692    21443502.841   -12492545.306 9  -9379229.151 6
 90  3  3  5 19 44.0800000  0  4G 6G 9G11G13
  20893889.438    20893892.543     1630173.337 8   1567597.857 6
  20497899.363    20497901.782    -8491509.836 8  -6118772.005 7
  20835966.051    20835971.074     -436830.792 8    -19613.915 8
  21437950.177    21437955.089   -12521699.954 9  -9401947.032 5
 90  3  3  5 19 59.0800000  0  4G 6G 9G11G13
  20898672.561    20898677.484     1655314.646 7   1587188.468 7
  20495291.517    20495292.837    -8505219.352 7  -6129454.719 7
  20838882.840    20838888.907     -421501.735 8     -7669.189 7
  21432424.099    21432428.965   -12550744.121 8  -9424578.846 6
 90  3  3  5 20 14.0800000  0  4G 6G 9G11G13
  20903484.304    20903487.688     1680595.747 7   1606887.993 7
  20492708.381    20492711.503    -8518790.775 8  -6140029.865 7
  20841819.599    20841825.479     -406075.384 8      4351.359 6
  21426916.771    21426922.205   -12579677.501 9  -9447124.313 7
 90  3  3  5 20 29.0800000  0  4G 6G 9G11G13
  20908322.167    20908326.401     1706016.455 8   1626696.322 7
  20490150.886    20490155.587    -8532223.844 8  -6150497.186 6
  20844773.986    20844779.541     -390551.897 8     16447.602 8
  21421431.551    21421437.277   -12608500.137 9  -9469583.480 6
 90  3  3  5 20 44.0800000  0  4G 6G 9G11G13
  20913184.920    20913189.443     1731576.774 8   1646613.422 7
  20487621.328    20487625.416    -8545518.046 8  -6160856.279 6
  20847746.698    20847751.132     -374931.567 7     28619.301 6
  21415967.702    21415974.322   -12637212.058 8  -9491956.380 6
 90  3  3  5 20 59.0800000  0  4G 6G 9G11G13
  20918074.641    20918078.918     1757276.497 7   1666639.182 5
  20485119.456    20485121.421    -8558673.027 8  -6171106.893 7
  20850738.013    20850740.076     -359214.645 8     40866.256 7
  21410525.721    21410531.721   -12665813.279 8  -9514243.020 6
 90  3  3  5 21 14.0800000  0  4G 6G 9G11G13
  20922994.102    20922995.931     1783115.713 7   1686773.637 7
  20482639.671    20482644.120    -8571688.815 7  -6181249.057 7
  20853746.263    20853750.037     -343401.364 9     53188.305 8
  21405103.490    21405109.469   -12694303.759 8  -9536443.366 5
 90  3  3  5 21 29.0800000  0  4G 6G 9G11G13
  20927935.354    20927938.760     1809094.230 7   1707016.631 7
  20480190.583    20480192.800    -8584565.189 7  -6191282.568 7
  20856772.915    20856776.476     -327492.087 9     65585.142 6
  21399703.960    21399708.229   -12722683.267 9  -9558557.231 7
 90  3  3  5 21 44.0800000  0  4G 6G 9G11G13
  20932906.768    20932910.691     1835211.961 8   1727368.098 7
  20477767.446    20477769.832    -8597302.115 7  -6201207.445 7
  20859818.713    20859821.570     -311486.996 7     78056.651 8
  21394323.297    21394328.832   -12750951.739 9  -9580584.581 6
 90  3  3  5 21 59.0800000  0  4G 6G 9G11G13
  20937902.980    20937908.204     1861468.880 8   1747828.039 8
  20475369.732    20475372.691    -8609898.786 7  -6211023.009 7
  20862882.728    20862885.568     -295386.292 8     90602.669 7
  21388965.459    21388970.522   -12779109.251 9  -9602525.464 6
 90  3  3  5 22 14.0800000  0  4G 6G 9G11G13
  20942925.365    20942931.135     1887864.922 8   1768396.358 7
  20472998.188    20473003.036    -8622355.160 7  -6220729.288 7
  20865965.914    20865968.242     -279190.263 9    103222.969 7
  21383628.445    21383633.340   -12807155.687 8  -9624379.784 5
 90  3  3  5 22 29.0800000  0  4G 6G 9G11G13
  20947976.156    20947979.931     1914400.130 7   1789073.120 7
  20470655.677    20470659.738    -8634671.023 8  -6230326.052 7
  20869065.027    20869070.086     -262899.083 8    115917.377 7
  21378312.801    21378317.029   -12835090.914 9  -9646147.454 6
 90  3  3  5 22 44.0800000  0  4G 6G 9G11G13
  20953052.059    20953054.005     1941074.211 7   1809858.146 7
  20468338.901    20468342.487    -8646845.929 7  -6239812.999 7
  20872182.638    20872190.331     -246513.139 7    128685.667 8
  21373018.818    21373022.527   -12862914.852 9  -9667828.394 6
 90  3  3  5 22 59.0800000  0  4G 6G 9G11G13
  20958154.387    20958156.059     1967887.190 8   1830751.348 7
  20466048.976    20466052.354    -8658879.895 7  -6249190.086 6
  20875319.452    20875325.738     -230032.647 8    141527.623 7
  21367745.015    21367747.386   -12890627.436 9  -9689422.617 6
 90  3  3  5 23 14.0800000  0  4G 6G 9G11G13
  20963283.803    20963285.622     1994839.008 8   1851752.766 7
  20463783.741    20463787.393    -8670772.760 7  -6258457.260 6
  20878473.869    20878478.636     -213457.877 9    154443.040 8
  21362492.749    21362498.316   -12918228.733 9  -9710930.084 6
 90  3  3  5 23 29.0800000  0  4G 6G 9G11G13
  20968437.360    20968440.308     2021929.421 8   1872862.150 7
  20461550.080    20461551.083    -8682524.069 6  -6267614.143 6
  20881645.622    20881650.687     -196789.180 8    167431.651 7
  21357260.500    21357266.659   -12945718.662 9  -9732350.784 7
 90  3  3  5 23 44.0800000  0  4G 6G 9G11G13
  20973618.721    20973622.843     2049158.424 7   1894079.543 7
  20459340.651    20459342.120    -8694133.703 7  -6276660.593 7
  20884835.269    20884839.736     -180026.784 8    180493.267 8
  21352049.073    21352057.470   -12973097.380 8  -9753684.837 8
 90  3  3  5 23 59.0800000  0  4G 6G 9G11G13
  20978828.510    20978831.160     2076525.908 9   1915404.846 7
  20457159.024    20457159.686    -8705601.376 8  -6285596.435 6
  20888043.390    20888046.122     -163170.928 8    193627.710 7
  21346860.647    21346867.841   -13000364.825 8  -9774932.156 7
 90  3  3  5 24 14.0800000  0  4G 6G 9G11G13
  20984061.642    20984065.406     2104031.805 9   1936837.997 6
  20455001.689    20455006.566    -8716926.781 7  -6294421.414 7
  20891267.419    20891269.994     -146221.937 9    206834.719 7
  21341691.916    21341700.591   -13027521.051 8  -9796092.822 7
 90  3  3  5 24 29.0800000  0  4G 6G 9G11G13
  20989322.446    20989323.611     2131675.969 8   1958378.914 6
  20452874.370    20452880.710    -8728109.892 7  -6303135.535 6
  20894511.768    20894513.344     -129180.087 8    220114.094 7
  21336546.725    21336553.413   -13054565.949 9  -9817166.767 7
 90  3  3  5 24 44.0800000  0  4G 6G 9G11G13
  20994608.593    20994612.856     2159458.460 8   1980027.585 7
  20450773.736    20450778.935    -8739150.354 7  -6311738.475 7
  20897771.230    20897775.153     -112045.581 8    233465.657 7
  21331422.784    21331427.768   -13081499.313 9  -9838153.780 7
 90  3  3  5 24 59.0800000  0  4G 6G 9G11G13
  20999921.468    20999926.032     2187379.095 9   2001783.898 6
  20448699.792    20448704.196    -8750047.726 7  -6320229.928 7
  20901048.885    20901053.657      -94818.673 8    246889.237 8
  21326318.653    21326325.253   -13108320.945 9  -9859053.751 8
 90  3  3  5 25 14.0800000  0  4G 6G 9G11G13
  21005261.370    21005263.790     2215437.781 7   2023647.799 7
  20446654.076    20446657.753    -8760801.980 7  -6328609.867 8
  20904345.201    20904350.112      -77499.798 9    260384.462 8
  21321235.394    21321242.968   -13135031.154 8  -9879866.880 6
 90  3  3  5 25 29.0800000  0  4G 6G 9G11G13
  21010627.466    21010630.482     2243634.363 9   2045619.139 7
  20444632.962    20444637.998    -8771412.866 7  -6336878.070 7
  20907657.742    20907664.120      -60089.010 8    273951.309 7
  21316174.054    21316180.109   -13161629.830 9  -9900593.075 6
 90  3  3  5 25 44.0800000  0  4G 6G 9G11G13
  21016019.384    21016022.878     2271968.739 8   2067697.857 7
  20442640.783    20442645.316    -8781880.125 7  -6345034.334 6
  20910988.744    20910994.045      -42586.653 8    287589.529 7
  21311132.884    21311139.746   -13188117.160 9  -9921232.506 6
 90  3  3  5 25 59.0800000  0  4G 6G 9G11G13
  21021436.315    21021440.996     2300440.963 9   2089883.970 7
  20440677.125    20440681.110    -8792203.752 6  -6353078.715 7
  20914337.759    20914342.086      -24992.977 8    301298.882 8
  21306114.558    21306119.206   -13214493.118 9  -9941785.149 6
 90  3  3  5 26 14.0800000  0  4G 6G 9G11G13
  21026881.866    21026885.902     2329050.661 8   2112177.229 7
  20438740.040    20438745.964    -8802383.060 6  -6361010.657 8
  20917702.331    20917706.716       -7308.328 8    315079.134 8
  21301117.825    21301118.374   -13240757.405 9  -9962250.783 5
 90  3  3  5 26 29.0800000  0  4G 6G 9G11G13
  21032352.830    21032355.504     2357797.989 8   2134577.745 6
  20436832.253    20436837.747    -8812418.155 7  -6368830.199 7
  20921085.545    20921089.271       10466.994 8    328930.047 7
  21296141.532    21296143.077   -13266910.051 9  -9982629.443 7
 90  3  3  5 26 44.0800000  0  4G 6G 9G11G13
  21037849.149    21037853.528     2386682.702 9   2157085.296 7
  20434947.410    20434954.408    -8822308.769 7  -6376537.179 7
  20924484.395    20924489.736       28332.781 8    342851.447 8
  21291184.729    21291187.789   -13292951.070 8 -10002921.144 7
 90  3  3  5 26 59.0800000  0  4G 6G 9G11G13
  21043372.514    21043376.589     2415704.614 8   2179699.761 8
  20433094.093    20433097.573    -8832054.813 7  -6384131.472 6
  20927899.590    20927906.914       46288.753 7    356843.090 8
  21286249.353    21286254.151   -13318880.423 8 -10023125.804 6
 90  3  3  5 27 14.0800000  0  4G 6G 9G11G13
  21048920.201    21048925.553     2444863.637 9   2202421.067 7
  20431264.998    20431270.886    -8841655.762 7  -6391612.721 6
  20931335.386    20931340.410       64334.576 8    370904.787 6
  21281336.652    21281343.549   -13344697.946 9 -10043243.312 8
 90  3  3  5 27 29.0800000  0  4G 6G 9G11G13
  21054496.555    21054497.752     2474159.851 8   2225249.288 7
  20429469.172    20429471.215    -8851111.599 7  -6398980.886 6
  20934786.124    20934792.508       82470.142 8    385036.396 8
  21276444.667    21276449.953   -13370403.841 9 -10063273.863 7
 90  3  3  5 27 44.0800000  0  4G 6G 9G11G13
  21060096.487    21060099.033     2503593.097 9   2248184.280 7
  20427698.577    20427699.909    -8860421.875 8  -6406235.630 8
  20938254.129    20938259.419      100695.113 7    399237.691 7
  21271574.945    21271579.468   -13395998.105 9 -10083217.435 7
 90  3  3  5 27 59.0800000  0  4G 6G 9G11G13
  21065723.262    21065726.064     2533163.192 8   2271225.916 7
  20425952.856    20425955.937    -8869586.587 7  -6413376.981 7
  20941739.419    20941743.576      119009.327 8    413508.492 7
  21266724.911    21266731.877   -13421480.384 9 -10103073.732 6
 90  3  3  5 28 14.0800000  0  4G 6G 9G11G13
  21071376.740    21071379.256     2562870.088 9   2294374.116 8
  20424238.950    20424241.937    -8878605.534 7  -6420404.714 6
  20945241.562    20945245.664      137412.416 8    427848.578 8
  21261897.108    21261903.466   -13446850.826 8 -10122842.897 7
 90  3  3  5 28 29.0800000  0  4G 6G 9G11G13
  21077055.901    21077058.922     2592713.621 8   2317628.798 7
  20422548.292    20422552.079    -8887478.213 8  -6427318.498 6
  20948760.100    20948763.859      155904.143 9    442257.727 7
  21257090.875    21257097.484   -13472109.287 9 -10142524.783 7
 90  3  3  5 28 44.0800000  0  4G 6G 9G11G13
  21082760.350    21082765.313     2622693.748 8   2340989.911 7
  20420888.914    20420891.256    -8896204.526 7  -6434118.211 6
  20952295.457    20952300.375      174484.194 8    456735.671 8
  21252305.687    21252312.654   -13497255.790 8 -10162119.437 7
 90  3  3  5 28 59.0800000  0  4G 6G 9G11G13
  21088491.497    21088495.259     2652810.128 9   2364457.202 7
  20419256.207    20419259.865    -8904784.577 8  -6440803.962 7
  20955847.256    20955852.717      193152.018 7    471282.041 7
  21247543.641    21247546.808   -13522290.666 8 -10181627.104 8
 90  3  3  5 29 14.0800000  0  4G 6G 9G11G13
  21094247.427    21094251.734     2683062.708 9   2388030.632 7
  20417649.499    20417652.873    -8913217.922 7  -6447375.393 6
  20959415.746    20959422.598      211907.580 7    485896.758 8
  21242799.853    21242804.055   -13547213.836 9 -10201047.721 6
 90  3  3  5 29 29.0800000  0  4G 6G 9G11G13
  21100030.745    21100036.113     2713451.609 8   2411710.276 7
  20416072.348    20416077.615    -8921504.156 6  -6453832.188 6
  20963003.054    20963008.218      230750.786 7    500579.772 7
  21238078.462    21238081.287   -13572025.097 8 -10220381.133 7
 90  3  3  5 29 44.0800000  0  4G 6G 9G11G13
  21105838.992    21105842.724     2743976.370 8   2435495.791 7
  20414524.525    20414528.617    -8929643.508 6  -6460174.540 6
  20966604.599    20966611.696      249681.119 9    515330.689 8
  21233379.246    21233382.021   -13596724.568 9 -10239627.451 6
 90  3  3  5 29 59.0800000  0  4G 6G 9G11G13
  21111674.081    21111678.932     2774637.275 9   2459387.370 7
  20413002.142    20413005.485    -8937635.257 6  -6466401.854 5
  20970223.279    20970229.740      268698.650 8    530149.551 8
  21228699.826    21228704.731   -13621311.920 9 -10258786.420 7
 90  3  3  5 30 14.0800000  0  4G 6G 9G11G13
  21117532.508    21117539.175     2805434.053 8   2483384.826 6
  20411510.668    20411512.590    -8945479.330 7  -6472514.146 6
  20973859.706    20973864.086      287802.942 8    545036.028 8
  21224041.915    21224046.644   -13645787.216 8 -10277858.046 6
 90  3  3  5 30 29.0800000  0  4G 6G 9G11G13
  21123420.398    21123424.693     2836366.525 9   2507488.062 6
  20410047.128    20410048.964    -8953175.596 6  -6478511.220 6
  20977510.836    20977516.290      306993.736 7    559989.900 7
  21219404.585    21219411.148   -13670150.432 8 -10296842.360 7
 90  3  3  5 30 44.0800000  0  4G 6G 9G11G13
  21129332.257    21129335.705     2867434.582 9   2531696.942 7
  20408609.723    20408612.612    -8960723.742 7  -6484392.888 6
  20981180.191    20981185.601      326270.760 8    575010.964 8
  21214788.477    21214796.275   -13694401.631 9 -10315739.363 6
 90  3  3  5 30 59.0800000  0  4G 6G 9G11G13
  21135272.404    21135273.533     2898638.000 8   2556011.317 6
  20407202.107    20407204.489    -8968123.878 7  -6490159.211 6
  20984864.928    20984869.330      345633.717 8    590098.988 8
  21210194.487    21210201.819   -13718540.839 9 -10334549.108 7
 90  3  3  5 31 14.0800000  0  4G 6G 9G11G13
  21141235.689    21141236.833     2929976.659 7   2580431.048 7
  20405820.926    20405825.009    -8975375.733 7  -6495810.020 7
  20988566.097    20988569.641      365082.151 7    605253.625 7
  21205623.576    21205628.132   -13742568.264 7 -10353271.720 6
 90  3  3  5 31 29.0800000  0  4G 6G 9G11G13
  21147224.303    21147228.209     2961450.508 8   2604956.093 8
  20404468.771    20404472.918    -8982479.102 7  -6501345.105 6
  20992282.143    20992287.044      384615.803 8    620474.634 7
  21201072.381    21201078.782   -13766483.659 8 -10371907.095 7
 90  3  3  5 31 44.0800000  0  4G 6G 9G11G13
  21153238.456    21153243.970     2993059.084 8   2629586.121 8
  20403146.575    20403150.356    -8989433.636 6  -6506764.241 6
  20996016.300    20996020.770      404234.465 7    635761.900 8
  21196543.123    21196547.822   -13790287.225 8 -10390455.303 7
 90  3  3  5 31 59.0800000  0  4G 6G 9G11G13
  21159278.927    21159284.021     3024802.662 8   2654321.345 7
  20401851.992    20401854.556    -8996239.336 7  -6512067.363 7
  20999764.936    20999770.093      423937.842 7    651115.176 8
  21192034.466    21192040.989   -13813978.972 9 -10408916.380 7
 90  3  3  5 32 14.0800000  0  4G 6G 9G11G13
  21165347.144    21165349.832     3056680.789 8   2679161.430 8
  20400586.098    20400589.681    -9002895.860 7  -6517254.248 8
  21003530.495    21003535.899      443725.621 7    666534.233 8
  21187547.363    21187554.741   -13837558.661 8 -10427290.149 7
 90  3  3  5 32 29.0800000  0  4G 6G 9G11G13
  21171437.619    21171441.711     3088693.492 7   2704106.370 7
  20399346.810    20399349.119    -9009403.052 6  -6522324.774 6
  21007310.777    21007316.714      463597.594 7    682018.877 7
  21183082.862    21183089.542   -13861026.478 9 -10445576.735 7
 90  3  3  5 32 44.0800000  0  4G 6G 9G11G13
  21177553.501    21177558.237     3120840.633 8   2729156.062 8
  20398136.187    20398140.230    -9015760.694 6  -6527278.796 6
  21011109.238    21011114.688      483553.312 9    697568.791 8
  21178638.735    21178643.629   -13884382.492 9 -10463776.185 7
 90  3  3  5 32 59.0800000  0  4G 6G 9G11G13
  21183698.287    21183701.578     3153121.901 8   2754310.314 7
  20396953.927    20396959.186    -9021968.839 7  -6532116.310 7
  21014924.295    21014927.121      503592.622 9    713183.862 8
  21174214.652    21174220.949   -13907626.514 9 -10481888.397 6
 90  3  3  5 33 14.0800000  0  4G 6G 9G11G13
  21189866.120    21189870.297     3185537.325 9   2779569.071 7
  20395803.656    20395806.511    -9028026.871 8  -6536836.848 7
  21018751.641    21018757.200      523715.405 7    728863.955 7
  21169811.984    21169818.406   -13930758.677 9 -10499913.458 7
 90  3  3  5 33 29.0800000  0  4G 6G 9G11G13
  21196060.484    21196063.689     3218086.586 8   2804932.155 6
  20394679.906    20394681.256    -9033934.757 8  -6541440.359 6
  21022597.497    21022601.453      543921.260 8    744608.786 7
  21165431.390    21165436.803   -13953778.864 9 -10517851.224 6
 90  3  3  5 33 44.0800000  0  4G 6G 9G11G13
  21202280.105    21202284.010     3250769.763 8   2830399.559 8
  20393583.295    20393586.297    -9039692.452 7  -6545926.893 6
  21026457.845    21026463.528      564209.869 9    760418.103 7
  21161073.026    21161077.261   -13976687.235 8 -10535701.889 8
 90  3  3  5 33 59.0800000  0  4G 6G 9G11G13
  21208523.250    21208528.830     3283586.676 9   2855971.128 7
  20392516.417    20392519.239    -9045299.876 8  -6550296.306 8
  21030334.220    21030340.236      584580.977 8    776291.685 8
  21156735.452    21156740.390   -13999483.806 9 -10553465.451 7
 90  3  3  5 34 14.0800000  0  4G 6G 9G11G13
  21214793.871    21214799.293     3316537.047 7   2881646.727 7
  20391477.169    20391483.025    -9050756.524 7  -6554548.251 7
  21034225.981    21034232.709      605034.193 8    792229.260 8
  21152417.963    21152422.996   -14022168.612 9 -10571141.891 7
 90  3  3  5 34 29.0800000  0  4G 6G 9G11G13
  21221089.971    21221093.874     3349620.737 7   2907426.202 7
  20390467.813    20390471.426    -9056062.473 7  -6558682.750 7
  21038134.595    21038140.171      625569.367 8    808230.705 8
  21148121.294    21148126.863   -14044741.453 9 -10588731.094 6
 90  3  3  5 34 44.0800000  0  4G 6G 9G11G13
  21227412.027    21227414.477     3382837.574 8   2933309.445 7
  20389487.427    20389490.245    -9061217.461 7  -6562699.625 7
  21042058.086    21042062.344      646186.234 8    824295.798 7
  21143847.268    21143851.162   -14067202.568 8 -10606233.211 6
 90  3  3  5 34 59.0800000  0  4G 6G 9G11G13
  21233756.598    21233759.749     3416187.550 7   2959296.431 7
  20388535.298    20388538.214    -9066221.138 8  -6566598.593 6
  21045998.240    21046001.256      666884.618 8    840424.396 8
  21139596.084    21139600.872   -14089551.800 8 -10623648.185 7
 90  3  3  5 35 14.0800000  0  4G 6G 9G11G13
  21240128.125    21240131.114     3449670.310 8   2985386.890 7
  20387611.893    20387614.347    -9071073.626 7  -6570379.731 7
  21049952.693    21049954.526      687663.978 8    856616.108 8
  21135365.094    21135368.209   -14111789.346 8 -10640976.104 7
 90  3  3  5 35 29.0800000  0  4G 6G 9G11G13
  21246525.610    21246528.757     3483285.823 8   3011580.774 7
  20386716.250    20386720.693    -9075774.615 8  -6574042.844 7
  21053921.364    21053924.868      708524.224 8    872870.847 8
  21131155.939    21131157.247   -14133915.099 8 -10658216.924 6
 90  3  3  5 35 44.0800000  0  4G 6G 9G11G13
  21252946.133    21252951.667     3517033.888 7   3037877.947 8
  20385851.642    20385855.711    -9080324.030 7  -6577587.844 7
  21057905.278    21057910.898      729464.997 7    889188.316 8
  21126962.617    21126968.578   -14155929.085 8 -10675370.660 7
 90  3  3  5 35 59.0800000  0  4G 6G 9G11G13
  21259393.570    21259397.985     3550914.235 8   3064278.198 7
  20385012.788    20385018.177    -9084721.360 8  -6581014.347 7
  21061905.273    21061910.662      750486.029 9    905568.335 8
  21122794.591    21122801.150   -14177831.251 8 -10692437.250 6
 90  3  3  5 36 14.0800000  0  4G 6G 9G11G13
  21265866.460    21265871.411     3584926.839 8   3090781.507 8
  20384206.945    20384210.546    -9088966.649 7  -6584322.360 7
  21065920.121    21065926.410      771587.044 8    922010.681 7
  21118648.479    21118655.106   -14199621.658 8 -10709416.754 6
 90  3  3  5 36 29.0800000  0  4G 6G 9G11G13
  21272363.392    21272368.302     3619071.477 8   3117387.707 8
  20383427.497    20383431.738    -9093059.850 8  -6587511.856 7
  21069949.622    21069956.829      792767.727 8    938515.124 8
  21114524.913    21114530.548   -14221300.522 8 -10726309.362 7
 90  3  3  5 36 44.0800000  0  4G 6G 9G11G13
  21278885.824    21278891.004     3653348.223 8   3144096.852 7
  20382677.673    20382680.063    -9097000.665 6  -6590582.613 7
  21073995.832    21074001.498      814027.858 8    955081.485 7
  21110421.818    21110426.370   -14242867.489 8 -10743114.808 6
 90  3  3  5 36 59.0800000  0  4G 6G 9G11G13
  21285434.872    21285440.237     3687756.743 8   3170908.660 8
  20381957.902    20381959.489    -9100788.808 7  -6593534.378 6
  21078056.011    21078062.375      835367.175 8    971709.526 7
  21106337.618    21106342.934   -14264322.648 9 -10759833.088 7
 90  3  3  5 37 14.0800000  0  4G 6G 9G11G13
  21292007.773    21292011.738     3722296.805 7   3197822.978 8
  20381263.514    20381268.462    -9104424.258 7  -6596367.200 7
  21082133.835    21082138.266      856785.260 7    988398.967 8
  21102274.546    21102282.055   -14285666.074 9 -10776464.321 7
 90  3  3  5 37 29.0800000  0  4G 6G 9G11G13
  21298605.455    21298610.045     3756968.350 8   3224839.749 8
  20380599.724    20380604.732    -9107906.893 6  -6599080.944 6
  21086225.028    21086229.258      878282.032 8   1005149.684 8
  21098233.747    21098241.256   -14306898.025 8 -10793008.681 6
 90  3  3  5 37 44.0800000  0  4G 6G 9G11G13
  21305227.978    21305232.806     3791771.020 9   3251958.702 8
  20379967.784    20379971.174    -9111236.336 7  -6601675.318 7
  21090330.898    21090335.316      899857.211 8   1021961.507 7
  21094215.123    21094220.886   -14328018.557 8 -10809466.205 6
 90  3  3  5 37 59.0800000  0  4G 6G 9G11G13
  21311875.775    21311880.365     3826704.594 8   3279179.660 8
  20379364.990    20379367.669    -9114412.824 6  -6604150.478 7
  21094451.310    21094455.156      921510.296 8   1038834.037 8
  21090217.901    21090223.935   -14349027.557 8 -10825836.848 6
 90  3  3  5 38 14.0800000  0  4G 6G 9G11G13
  21318547.778    21318553.745     3861769.253 8   3306502.734 7
  20378789.154    20378790.866    -9117435.922 6  -6606506.155 7
  21098587.284    21098590.436      943241.166 8   1055767.181 6
  21086242.010    21086245.679   -14369924.888 9 -10842120.471 6
 90  3  3  5 38 29.0800000  0  4G 6G 9G11G13
  21325245.370    21325250.164     3896964.537 7   3333927.641 7
  20378242.083    20378245.632    -9120305.568 7  -6608742.246 6
  21102736.161    21102739.391      965049.428 9   1072760.631 8
  21082286.034    21082289.579   -14390710.644 8 -10858317.132 6
 90  3  3  5 38 44.0800000  0  4G 6G 9G11G13
  21331967.501    21331971.362     3932290.424 7   3361454.287 7
  20377726.441    20377728.854    -9123021.484 7  -6610858.547 7
  21106900.097    21106905.004      986934.899 8   1089814.234 7
  21078351.261    21078356.209   -14411384.811 8 -10874426.867 6
 90  3  3  5 38 59.0800000  0  4G 6G 9G11G13
  21338714.815    21338719.322     3967746.641 7   3389082.492 7
  20377238.610    20377242.975    -9125583.591 7  -6612854.998 6
  21111078.289    21111083.840     1008897.454 8   1106927.906 8
  21074439.317    21074444.700   -14431947.550 8 -10890449.729 6
 90  3  3  5 39 14.0800000  0  4G 6G 9G11G13
  21345487.157    21345490.834     4003332.971 9   3416812.090 7
  20376780.350    20376782.211    -9127991.865 7  -6614731.573 7
  21115273.052    21115276.247     1030936.551 8   1124101.232 7
  21070547.860    21070552.214   -14452398.788 9 -10906385.736 7
 90  3  3  5 39 29.0800000  0  4G 6G 9G11G13
  21352283.151    21352287.985     4039049.257 8   3444642.945 8
  20376351.252    20376353.892    -9130245.934 7  -6616487.988 7
  21119481.016    21119485.331     1053052.006 8   1141334.046 7
  21066677.362    21066681.499   -14472738.763 9 -10922235.056 6
 90  3  3  5 39 44.0800000  0  4G 6G 9G11G13
  21359104.816    21359109.695     4074895.473 8   3472575.061 8
  20375952.835    20375954.984    -9132345.659 8  -6618124.124 7
  21123703.808    21123709.215     1075243.517 8   1158626.127 6
  21062828.332    21062831.173   -14492967.429 8 -10937997.607 5
 90  3  3  5 39 59.0800000  0  4G 6G 9G11G13
  21365951.164    21365955.414     4110871.400 8   3500608.235 8
  20375580.998    20375584.442    -9134291.038 8  -6619639.992 7
  21127940.916    21127946.108     1097510.850 7   1175977.321 6
  21059000.927    21059002.831   -14513084.777 9 -10953673.433 7
 90  3  3  5 40 14.0800000  0  4G 6G 9G11G13
  21372821.150    21372826.548     4146976.649 7   3528742.193 7
  20375239.888    20375244.186    -9136081.819 7  -6621035.413 6
  21132194.881    21132199.590     1119853.712 8   1193387.342 6
  21055192.570    21055197.623   -14533090.833 8 -10969262.577 5
 90  3  3  5 40 29.0800000  0  4G 6G 9G11G13
  21379716.625    21379721.918     4183211.344 8   3556976.993 7
  20374928.524    20374932.998    -9137717.917 7  -6622310.296 7
  21136461.086    21136465.447     1142271.869 8   1210856.038 7
  21051407.690    21051409.760   -14552985.455 8 -10984764.853 7
 90  3  3  5 40 44.0800000  0  4G 6G 9G11G13
  21386636.652    21386642.390     4219575.107 8   3585312.382 7
  20374647.313    20374649.978    -9139199.075 7  -6623464.447 7
  21140740.213    21140745.807     1164764.985 7   1228383.148 7
  21047642.807    21047646.941   -14572768.953 9 -11000180.573 6
 90  3  3  5 40 59.0800000  0  4G 6G 9G11G13
  21393579.128    21393585.640     4256067.700 7   3613748.146 8
  20374394.110    20374395.745    -9140525.368 8  -6624497.910 6
  21145035.188    21145040.007     1187332.783 7   1245968.455 7
  21043897.363    21043904.431   -14592441.223 8 -11015509.605 7
 90  3  3  5 41 14.0800000  0  4G 6G 9G11G13
  21400548.296    21400553.959     4292688.833 7   3642284.086 7
  20374171.179    20374175.056    -9141696.552 6  -6625410.517 8
  21149343.491    21149348.824     1209974.873 8   1263611.644 8
  21040174.769    21040183.059   -14612002.514 8 -11030752.149 7
 90  3  3  5 41 29.0800000  0  4G 6G 9G11G13
  21407542.555    21407548.008     4329438.645 8   3670920.276 8
  20373978.330    20373982.720    -9142712.397 6  -6626202.097 6
  21153665.325    21153669.977     1232691.031 8   1281312.546 7
  21036473.712    21036480.063   -14631452.814 8 -11045908.210 7
 90  3  3  5 41 44.0800000  0  4G 6G 9G11G13
  21414559.243    21414564.955     4366316.839 8   3699656.517 8
  20373814.788    20373818.871    -9143572.899 7  -6626872.624 8
  21158001.952    21158007.389     1255480.879 9   1299070.866 6
  21032796.032    21032799.934   -14650792.090 8 -11060977.758 7
 90  3  3  5 41 59.0800000  0  4G 6G 9G11G13
  21421600.654    21421606.676     4403323.073 8   3728492.554 7
  20373680.490    20373684.790    -9144277.976 7  -6627422.019 6
  21162352.999    21162356.909     1278344.166 8   1316886.425 7
  21029137.543    21029139.890   -14670020.320 8 -11075960.777 6
 90  3  3  5 42 14.0800000  0  4G 6G 9G11G13
  21428669.095    21428673.531     4440457.224 8   3757428.258 8
  20373576.751    20373580.125    -9144827.324 7  -6627850.106 6
  21166715.846    21166721.093     1301280.777 7   1334759.101 6
  21025498.808    21025503.653   -14689137.473 8 -11090857.255 7
 90  3  3  5 42 29.0800000  0  4G 6G 9G11G13
  21435758.484    21435764.938     4477719.018 7   3786463.385 8
  20373502.766    20373504.070    -9145220.968 7  -6628156.805 7
  21171095.346    21171099.413     1324290.263 9   1352688.582 7
  21021880.317    21021886.622   -14708143.737 9 -11105667.326 6
 90  3  3  5 42 44.0800000  0  4G 6G 9G11G13
  21442874.506    21442879.441     4515108.505 8   3815598.019 7
  20373457.171    20373459.846    -9145458.418 7  -6628341.837 7
  21175488.837    21175492.884     1347372.499 8   1370674.730 7
  21018282.713    21018290.926   -14727039.263 8 -11120391.098 7
 90  3  3  5 42 59.0800000  0  4G 6G 9G11G13
  21450014.063    21450018.356     4552625.446 8   3844831.976 7
  20373440.758    20373443.722    -9145539.685 7  -6628405.176 7
  21179895.274    21179899.641     1370527.384 8   1388717.490 7
  21014710.626    21014718.411   -14745823.798 8 -11135028.374 6
 90  3  3  5 43 14.0800000  0  4G 6G 9G11G13
  21457177.459    21457180.939     4590269.481 7   3874164.989 7
  20373454.953    20373457.834    -9145464.971 7  -6628346.938 7
  21184315.372    21184319.219     1393754.345 8   1406816.426 7
  21011159.328    21011165.160   -14764497.691 9 -11149579.437 7
 90  3  3  5 43 29.0800000  0  4G 6G 9G11G13
  21464366.086    21464368.702     4628039.970 8   3903596.517 7
  20373497.419    20373503.211    -9145234.448 7  -6628167.324 7
  21188748.575    21188753.481     1417052.776 7   1424971.023 7
  21007625.222    21007630.227   -14783061.295 8 -11164044.566 7
 90  3  3  5 43 44.0800000  0  4G 6G 9G11G13
  21471577.232    21471582.053     4665937.374 8   3933126.963 7
  20373573.599    20373576.544    -9144847.223 7  -6627865.566 7
  21193196.123    21193200.348     1440422.920 9   1443181.524 8
  21004112.998    21004118.696   -14801514.136 9 -11178423.379 7
 90  3  3  5 43 59.0800000  0  4G 6G 9G11G13
  21478812.189    21478817.184     4703961.151 8   3962755.872 7
  20373676.576    20373679.194    -9144303.765 6  -6627442.082 8
  21197658.298    21197662.069     1463864.100 8   1461447.394 8
  21000622.511    21000626.813   -14819856.438 8 -11192716.058 7
 90  3  3  5 44 14.0800000  0  4G 6G 9G11G13
  21486072.459    21486077.296     4742111.368 8   3992483.308 8
  20373807.930    20373812.837    -9143603.453 6  -6626896.390 7
  21202130.895    21202135.751     1487376.485 8   1479768.710 7
  20997152.351    20997156.990   -14838087.845 8 -11206922.342 7
 90  3  3  5 44 29.0800000  0  4G 6G 9G11G13
  21493357.028    21493360.877     4780387.594 7   4022308.924 7
  20373970.536    20373975.856    -9142746.495 6  -6626228.631 6
  21206618.127    21206622.056     1510959.510 9   1498145.102 6
  20993704.960    20993709.024   -14856208.831 8 -11221042.574 7
 90  3  3  5 44 44.0800000  0  4G 6G 9G11G13
  21500664.374    21500668.409     4818789.772 8   4052232.681 7
  20374165.215    20374168.797    -9141732.489 6  -6625438.477 7
  21211118.603    21211123.121     1534613.012 9   1516576.411 7
  20990277.673    20990282.305   -14874219.450 8 -11235076.815 6
 90  3  3  5 44 59.0800000  0  4G 6G 9G11G13
  21507995.833    21508000.327     4857317.698 8   4082254.412 7
  20374386.821    20374392.949    -9140561.520 7  -6624526.039 6
  21215634.842    21215638.116     1558336.613 9   1535062.354 7
  20986871.326    20986876.839   -14892119.595 8 -11249024.954 7
 90  3  3  5 45 14.0800000  0  3G 6G11G13
  21515352.076    21515356.518     4895971.238 7   4112374.048 6
  21220160.386    21220165.850     1582130.143 8   1553602.758 7
  20983485.336    20983493.338   -14909909.647 9 -11262887.310 6
 90  3  3  5 45 29.0800000  0  4G 6G12G11G13
  21522730.913    21522733.728     4934749.861 7   4142591.142 8
                  22107863.809   -35299622.568 9
  21224701.486    21224704.986     1605993.238 7   1572197.382 7
  20980120.971    20980127.341   -14927589.533 9 -11276663.825 7
 90  3  3  5 45 44.0800000  0  4G 6G12G11G13
  21530133.623    21530137.154     4973653.722 7   4172905.815 7
                  22100022.076   -35341047.338 8
  21229255.229    21229260.861     1629925.696 9   1590846.051 7
  20976778.140    20976783.289   -14945159.151 8 -11290354.410 6
 90  3  3  5 45 59.0800000  0  4G 6G12G11G13
  21537560.388    21537565.936     5012682.424 8   4203317.777 8
  22092153.484    22092157.354   -35382400.488 9  44889859.451 7
  21233823.353    21233827.124     1653927.274 7   1609548.571 7
  20973454.938    20973460.312   -14962618.543 8 -11303959.094 7
 90  3  3  5 46 14.0800000  0  4G 6G12G11G13
  21545011.084    21545017.434     5051835.782 9   4233826.881 8
  22084298.303    22084301.540   -35423681.873 8  44857692.172 8
  21238404.227    21238408.499     1677997.589 7   1628304.670 8
  20970154.526    20970159.286   -14979967.912 8 -11317478.078 6
 90  3  3  5 46 29.0800000  0  4G 6G12G11G13
  21552484.675    21552490.817     5091113.309 8   4264432.751 8
  22076455.380    22076460.604   -35464890.961 8  44825581.206 8
  21242997.835    21243003.467     1702136.436 7   1647114.145 8
  20966874.602    20966879.133   -14997207.384 9 -11330911.419 7
 90  3  3  5 46 44.0800000  0  4G 6G12G11G13
  21559982.785    21559989.142     5130515.129 8   4295135.463 8
  22068628.202    22068633.061   -35506027.549 8  44793526.744 8
  21247605.982    21247609.253     1726343.520 7   1665976.807 7
  20963614.908    20963619.349   -15014336.775 9 -11344258.983 7
 90  3  3  5 46 59.0800000  0  4G 6G12G11G13
  21567505.464    21567509.888     5170040.972 7   4325934.814 7
  22060812.894    22060818.178   -35547091.264 8  44761529.059 8
  21252225.933    21252229.634     1750618.602 8   1684892.453 7
  20960375.907    20960382.728   -15031356.321 9 -11357520.972 8
 90  3  3  5 47 14.0800000  0  4G 6G12G11G13
  21575049.385    21575055.512     5209690.618 8   4356830.653 7
  22053013.397    22053018.119   -35588081.665 9  44729588.507 9
  21256859.178    21256861.748     1774961.302 8   1703860.782 8
  20957158.024    20957163.445   -15048265.954 8 -11370697.291 7
 90  3  3  5 47 29.0800000  0  4G 6G12G11G13
  21582619.398    21582623.859     5249463.689 8   4387822.638 8
  22045226.828    22045231.414   -35628998.517 9  44697705.256 6
  21261502.826    21261507.456     1799371.181 9   1722881.450 7
  20953960.403    20953967.072   -15065065.935 9 -11383788.163 6
 90  3  3  5 47 44.0800000  0  4G 6G12G11G13
  21590211.154    21590215.365     5289360.074 7   4418910.736 8
  22037454.937    22037459.780   -35669841.356 8  44665879.701 9
  21266159.838    21266166.015     1823848.093 8   1741954.373 8
  20950784.156    20950790.940   -15081756.300 8 -11396793.646 7
 90  3  3  5 47 59.0800000  0  4G 6G12G11G13
  21597826.213    21597831.418     5329379.525 7   4450094.695 8
  22029696.085    22029701.652   -35710609.863 8  44634112.052 8
  21270829.758    21270834.932     1848391.799 9   1761079.348 8
  20947629.344    20947634.877   -15098337.067 8 -11409713.700 7
 90  3  3  5 48 14.0800000  0  4G 6G12G11G13
  21605464.146    21605469.486     5369521.897 7   4481374.460 8
  22021952.895    22021957.610   -35751303.535 8  44602402.719 8
  21275512.670    21275516.642     1873002.061 8   1780256.174 7
  20944494.075    20944500.362   -15114808.067 9 -11422548.205 7
 90  3  3  5 48 29.0800000  0  4G 6G12G11G13
  21613125.015    21613131.565     5409786.878 8   4512749.747 8
  22014224.798    22014227.065   -35791922.183 9  44570751.860 8
  21280207.359    21280213.234     1897678.547 8   1799484.608 7
  20941381.432    20941385.823   -15131169.734 9 -11435297.546 7
 90  3  3  5 48 44.0800000  0  4G 6G12G11G13
  21620811.212    21620817.104     5450174.335 9   4544220.479 8
  22006508.229    22006513.227   -35832465.376 9  44539159.771 8
  21284914.711    21284922.045     1922420.998 8   1818764.435 7
  20938289.137    20938293.142   -15147421.933 9 -11447961.563 6
 90  3  3  5 48 59.0800000  0  4G 6G12G11G13
  21628520.683    21628526.074     5490683.890 7   4575786.359 7
  21998808.500    21998812.531   -35872932.693 9  44507626.831 8
  21289635.743    21289642.248     1947229.150 7   1838095.451 7
  20935216.475    20935221.026   -15163564.925 8 -11460540.499 6
 90  3  3  5 49 14.0800000  0  4G 6G12G11G13
  21636253.028    21636257.302     5531315.291 6   4607447.200 8
  21991121.681    21991125.941   -35913323.842 9  44476153.228 8
  21294369.853    21294375.443     1972102.628 7   1857477.383 7
  20932165.258    20932169.673   -15179598.557 8 -11473034.236 6
 90  3  3  5 49 29.0800000  0  4G 6G12G11G13
  21644007.172    21644011.990     5572068.501 7   4639202.934 8
  21983449.385    21983453.817   -35953638.663 8  44444739.102 7
  21299116.242    21299121.916     1997041.299 8   1876910.124 8
  20929136.413    20929139.226   -15195523.061 8 -11485442.906 7
 90  3  3  5 49 44.0800000  0  4G 6G12G11G13
  21651784.769    21651790.238     5612943.340 7   4671053.420 7
  21975792.998    21975797.395   -35993876.531 9  44413384.941 8
  21303874.906    21303878.921     2022044.909 8   1896393.440 8
  20926126.876    20926131.814   -15211338.436 9 -11497766.574 7
 90  3  3  5 49 59.0800000  0  4G 6G12G11G13
  21659585.525    21659592.797     5653939.223 8   4702998.240 7
  21968149.965    21968156.307   -36034037.127 9  44382090.990 8
  21308646.864    21308648.805     2047112.923 9   1915926.963 8
  20923137.163    20923142.813   -15227044.871 9 -11510005.344 7
 90  3  3  5 50 14.0800000  0  4G 6G12G11G13
  21667412.088    21667416.670     5695056.071 8   4735037.326 8
  21960522.242    21960528.660   -36074120.028 8  44350857.596 8
  21313428.567    21313431.538     2072245.131 8   1935510.479 8
  20920167.179    20920174.354   -15242642.462 8 -11522159.317 7
 90  3  3  5 50 29.0800000  0  4G 6G12G11G13
  21675260.372    21675264.211     5736293.803 8   4767170.630 8
  21952909.871    21952915.519   -36114124.886 9  44319685.008 9
  21318224.350    21318227.121     2097441.254 8   1955143.819 7
  20917220.162    20917226.374   -15258131.151 8 -11534228.414 7
 90  3  3  5 50 44.0800000  0  4G 6G12G11G13
  21683130.758    21683134.574     5777652.066 9   4799397.831 8
  21945312.226    21945316.730   -36154051.429 8  44288573.434 7
  21323028.790    21323033.778     2122701.153 8   1974826.836 8
  20914292.143    20914300.881   -15273510.905 8 -11546212.612 6
 90  3  3  5 50 59.0800000  0  4G 6G12G11G13
  21691022.950    21691027.596     5819130.597 7   4831718.753 8
  21937728.945    21937733.999   -36193899.342 9  44257523.140 7
  21327847.526    21327852.399     2148024.385 9   1994559.220 7
  20911388.104    20911393.211   -15288781.995 8 -11558112.134 7
 90  3  3  5 51 14.0800000  0  4G 6G12G11G13
  21698938.745    21698941.688     5860729.416 7   4864133.398 7
  21930161.410    21930166.340   -36233668.142 8  44226534.500 8
  21332679.139    21332683.898     2173410.847 7   2014340.869 7
  20908503.557    20908507.945   -15303944.317 8 -11569926.917 6
 90  3  3  5 51 29.0800000  0  4G 6G12G11G13
  21706875.818    21706881.273     5902447.885 7   4896641.254 7
  21922609.391    21922613.505   -36273357.540 8  44195607.719 8
  21337521.341    21337527.588     2198860.287 8   2034171.597 6
  20905639.218    20905642.876   -15318998.121 9 -11581657.146 6
 90  3  3  5 51 44.0800000  0  4G 6G12G11G13
  21714837.252    21714842.007     5944285.805 7   4929242.192 7
  21915071.476    21915075.698   -36312967.292 9  44164743.005 8
  21342375.648    21342381.696     2224372.276 8   2054051.082 7
  20902795.238    20902800.784   -15333943.629 9 -11593302.998 7
 90  3  3  5 51 59.0800000  0  4G 6G12G11G13
  21722822.046    21722825.813     5986243.091 8   4961936.167 7
  21907550.261    21907553.796   -36352496.906 8  44133940.729 8
  21347242.105    21347248.137     2249946.519 8   2073979.060 8
  20899971.354    20899976.282   -15348781.017 9 -11604864.586 6
 90  3  3  5 52 14.0800000  0  4G 6G12G11G13
  21730830.909    21730833.487     6028319.516 8   4994722.980 8
  21900043.108    21900047.186   -36391946.038 8  44103201.175 8
  21352120.323    21352127.515     2275582.766 9   2093955.373 8
  20897168.842    20897173.644   -15363510.240 9 -11616341.879 8
 90  3  3  5 52 29.0800000  0  4G 6G12G11G13
  21738860.455    21738864.543     6070514.731 8   5027602.345 8
  21892550.855    21892555.630   -36431314.070 9  44072524.801 9
  21357009.989    21357017.395     2301280.856 8   2113979.869 8
  20894386.424    20894390.786   -15378131.110 9 -11627734.742 8
 90  3  3  5 52 44.0800000  0  4G 6G12G11G13
  21746911.980    21746915.281     6112828.672 8   5060574.240 8
  21885074.202    21885079.235   -36470600.843 8  44041911.766 7
  21361912.046    21361919.696     2327040.406 8   2134052.239 8
  20891624.492    20891630.565   -15392643.814 9 -11639043.327 8
 90  3  3  5 52 59.0800000  0  4G 6G12G11G13
  21754985.813    21754991.590     6155260.804 8   5093638.208 7
  21877614.051    21877618.709   -36509806.051 9  44011362.280 8
  21366826.867    21366832.614     2352861.144 8   2154172.303 7
  20888882.858    20888887.242   -15407048.632 9 -11650267.840 7
 90  3  3  5 53 14.0800000  0  4G 6G12G11G13
  21763083.399    21763088.768     6197811.210 8   5126794.343 8
  21870169.568    21870174.047   -36548929.178 9  43980876.758 8
  21371751.433    21371758.439     2378742.855 7   2174339.854 8
  20886162.649    20886167.079   -15421345.498 9 -11661408.269 7
 90  3  3  5 53 29.0800000  0  4G 6G12G11G13
  21771201.884    21771208.119     6240479.300 8   5160042.170 8
  21862739.921    21862743.327   -36587970.027 9  43950455.340 8
  21376688.062    21376693.479     2404684.987 7   2194554.503 8
  20883461.080    20883466.763   -15435534.559 9 -11672464.665 7
 90  3  3  5 53 44.0800000  0  4G 6G12G11G13
  21779343.643    21779348.790     6283265.015 7   5193381.686 8
  21855325.835    21855331.011   -36626928.210 9  43920098.331 8
  21381636.681    21381641.856     2430687.439 8   2214816.141 7
  20880781.330    20880788.704   -15449615.671 8 -11683436.947 8
 90  3  3  5 53 59.0800000  0  4G 6G12G11G13
  21787509.205    21787512.342     6326168.084 8   5226812.621 7
  21847928.777    21847933.688   -36665803.426 9  43889805.989 8
  21386596.390    21386602.252     2456749.907 8   2235124.555 8
  20878123.423    20878129.470   -15463589.120 8 -11694325.346 6
 90  3  3  5 54 14.0800000  0  4G 6G12G11G13
  21795695.065    21795698.509     6369188.245 8   5260334.795 7
  21840547.878    21840552.449   -36704595.245 9  43859578.617 7
  21391567.762    21391571.605     2482872.165 8   2255479.560 7
  20875485.781    20875490.061   -15477455.092 9 -11705129.980 7
 90  3  3  5 54 29.0800000  0  4G 6G12G11G13
  21803902.760    21803907.321     6412325.253 8   5293948.023 7
  21833181.727    21833185.956   -36743303.218 8  43829416.577 9
  21396550.967    21396553.780     2509053.954 9   2275880.957 7
  20872867.224    20872871.905   -15491213.632 8 -11715850.899 7
 90  3  3  5 54 44.0800000  0  4G 6G12G11G13
  21812135.898    21812138.541     6455578.957 7   5327652.195 8
  21825831.535    21825837.370   -36781926.992 9  43799320.158 8
  21401545.118    21401547.316     2535295.158 8   2296328.656 8
  20870269.956    20870273.101   -15504864.941 8 -11726488.258 7
 90  3  3  5 54 59.0800000  0  4G 6G12G11G13
  21820387.801    21820392.548     6498948.767 7   5361446.853 7
  21818498.697    21818502.443   -36820466.261 9  43769289.596 8
  21406548.828    21406553.272     2561595.465 8   2316822.396 7
  20867692.262    20867695.275   -15518409.023 9 -11737042.075 6
 90  3  3  5 55 14.0800000  0  4G 6G12G11G13
  21828663.137    21828666.552     6542434.720 7   5395332.011 6
  21811180.851    21811185.627   -36858920.582 9  43739325.206 8
  21411564.242    21411567.127     2587954.552 9   2337361.947 7
  20865134.891    20865140.141   -15531845.951 9 -11747512.402 7
 90  3  3  5 55 29.0800000  0  4G 6G12G11G13
  21836959.070    21836964.059     6586036.455 7   5429307.359 7
  21803879.997    21803884.189   -36897289.715 9  43709427.198 7
  21416591.162    21416594.176     2614371.988 8   2357946.947 7
  20862599.474    20862603.535   -15545175.941 9 -11757899.400 7
 90  3  3  5 55 44.0800000  0  4G 6G12G11G13
  21845278.885    21845284.197     6629753.743 7   5463372.760 8
  21796594.959    21796597.867   -36935573.318 9  43679595.858 8
  21421627.812    21421633.558     2640847.478 8   2378577.204 8
  20860082.062    20860086.818   -15558399.167 9 -11768203.207 6
 90  3  3  5 55 59.0800000  0  4G 6G12G11G13
  21853619.098    21853625.354     6673586.242 7   5497527.923 8
  21789325.227    21789327.946   -36973770.962 8  43649831.458 8
  21426677.154    21426682.786     2667380.675 9   2399252.439 8
  20857586.918    20857590.239   -15571515.564 9 -11778423.771 7
 90  3  3  5 56 14.0800000  0  4G 6G12G11G13
  21861982.871    21861987.525     6717533.790 9   5531772.757 8
  21782071.296    21782076.451   -37011882.301 9  43620134.344 8
  21431737.385    21431742.402     2693971.465 8   2419972.527 7
  20855110.307    20855114.169   -15584525.107 8 -11788561.054 7
 90  3  3  5 56 29.0800000  0  4G 6G12G11G13
  21870368.365    21870373.369     6761596.149 7   5566107.049 7
  21774835.274    21774841.134   -37049906.908 8  43590504.796 9
  21436809.307    21436813.723     2720619.676 9   2440737.370 7
  20852655.380    20852658.637   -15597428.056 9 -11798615.256 6
 90  3  3  5 56 44.0800000  0  4G 6G12G11G13
  21878773.842    21878780.284     6805772.984 8   5600530.535 8
  21767616.770    21767621.656   -37087844.422 9  43560943.117 7
  21441892.533    21441895.890     2747324.958 9   2461546.685 6
  20850220.571    20850224.880   -15610224.302 8 -11808586.355 6
 90  3  3  5 56 59.0800000  0  4G 6G12G11G13
  21887202.772    21887209.122     6850064.000 8   5635043.002 8
  21760414.278    21760418.188   -37125694.569 9  43531449.512 7
  21446984.502    21446988.131     2774087.006 8   2482400.233 7
  20847806.385    20847809.696   -15622914.072 8 -11818474.476 7
 90  3  3  5 57 14.0800000  0  4G 6G12G11G13
  21895652.129    21895657.555     6894468.989 8   5669644.277 7
  21753227.625    21753233.238   -37163456.909 9  43502024.326 8
  21452088.549    21452091.705     2800905.599 8   2503297.844 6
  20845411.113    20845415.424   -15635497.536 8 -11828279.768 6
 90  3  3  5 57 29.0800000  0  4G 6G12G11G13
  21904124.144    21904129.706     6938987.641 8   5704334.118 7
  21746059.346    21746064.698   -37201131.067 8  43472667.852 8
  21457201.294    21457206.354     2827780.451 9   2524239.296 7
  20843036.276    20843040.775   -15647974.814 9 -11838002.304 7
 90  3  3  5 57 44.0800000  0  4G 6G12G11G13
  21912617.909    21912621.897     6983619.767 7   5739112.392 8
  21738906.850    21738912.026   -37238716.860 9  43443380.242 8
  21462324.844    21462331.621     2854711.261 8   2545224.332 7
  20840681.588    20840687.436   -15660345.966 9 -11847642.153 6
 90  3  3  5 57 59.0800000  0  4G 6G12G11G13
  21921133.173    21921137.519     7028364.978 7   5773978.777 9
  21731771.185    21731776.458   -37276213.839 8  43414161.830 8
  21467460.713    21467464.299     2881697.757 8   2566252.779 7
  20838348.303    20838352.916   -15672611.042 8 -11857199.335 7
 90  3  3  5 58 14.0800000  0  4G 6G12G11G13
  21929667.619    21929674.033     7073223.147 8   5808933.158 8
  21724653.382    21724658.490   -37313621.672 9  43385012.896 8
  21472606.528    21472611.601     2908739.625 7   2587324.351 7
  20836034.084    20836037.742   -15684770.390 9 -11866674.131 7
 90  3  3  5 58 29.0800000  0  4G 6G12G11G13
  21938225.418    21938231.338     7118193.824 7   5843975.236 8
  21717551.715    21717556.166   -37350940.068 9  43355933.641 8
  21477764.305    21477768.463     2935836.577 8   2608438.885 8
  20833740.250    20833745.231   -15696824.033 9 -11876066.579 7
 90  3  3  5 58 44.0800000  0  4G 6G12G11G13
  21946804.065    21946810.822     7163276.830 7   5879104.837 8
  21710466.508    21710473.055   -37388168.544 8  43326924.452 8
  21482931.626    21482935.054     2962988.442 9   2629596.188 6
  20831467.528    20831471.221   -15708771.902 7 -11885376.587 6
 90  3  3  5 58 59.0800000  0  4G 6G12G11G13
  21955404.698    21955410.718     7208471.997 8   5914321.840 8
  21703400.107    21703404.918   -37425306.781 9  43297985.587 8
  21488108.849    21488112.663     2990194.762 8   2650795.919 8
  20829213.644    20829218.511   -15720614.395 8 -11894604.480 8
 90  3  3  5 59 14.0800000  0  4G 6G12G11G13
  21964026.873    21964033.330     7253778.915 8   5949625.918 9
  21696350.655    21696355.481   -37462354.300 9  43269117.417 7
  21493297.834    21493301.063     3017455.346 8   2672037.946 7
  20826979.414    20826984.850   -15732351.432 8 -11903750.226 6
 90  3  3  5 59 29.0800000  0  4G 6G12G11G13
  21972668.137    21972675.968     7299197.369 7   5985016.894 8
  21689318.606    21689323.007   -37499310.789 9  43240320.163 7
  21498495.463    21498497.932     3044769.933 9   2693322.039 8
  20824765.453    20824771.855   -15743983.197 8 -11912813.913 7
 90  3  3  5 59 44.0800000  0  4G 6G12G11G13
  21981333.970    21981339.933     7344726.985 6   6020494.495 8
  21682303.679    21682306.845   -37536175.880 9  43211594.125 8
  21503701.791    21503704.504     3072138.191 8   2714647.956 6
  20822572.888    20822576.592   -15755509.788 9 -11921795.638 7
 90  3  3  5 59 59.0800000  0  4G 6G12G11G13
  21990018.999    21990024.797     7390367.558 8   6056058.554 8
  21675305.211    21675309.021   -37572949.169 9  43182939.642 9
  21508919.738    21508923.038     3099559.966 8   2736015.567 7
  20820399.444    20820404.307   -15766931.392 8 -11930695.579 7
 90  3  3  6  0 14.0800000  0  4G 6G12G11G13
  21998725.242    21998730.725     7436118.874 8   6091708.924 8
  21668325.770    21668328.021   -37609630.342 9  43154356.923 8
  21514146.128    21514150.787     3127035.007 8   2757424.669 7
  20818247.366    20818249.153   -15778248.037 8 -11939513.715 6
 90  3  3  6  0 29.0800000  0  4G 6G12G11G13
  22007452.511    22007459.053     7481980.494 8   6127445.240 9
  21661364.133    21661365.568   -37646219.084 9  43125846.234 7
  21519384.680    21519389.897     3154562.926 8   2778874.990 7
  20816112.574    20816115.659   -15789459.558 9 -11948249.963 7
 90  3  3  6  0 44.0800000  0  4G 6G12G11G13
  22016201.466    22016206.148     7527952.252 8   6163267.398 8
  21654417.714    21654420.180   -37682714.932 9  43097407.920 8
  21524634.837    21524637.707     3182143.643 9   2800366.454 7
  20813998.284    20814003.483   -15800566.305 8 -11956904.574 7
 90  3  3  6  0 59.0800000  0  4G 6G12G11G13
  22024969.795    22024975.844     7574033.902 8   6199175.175 8
  21647490.535    21647493.926   -37719117.678 9  43069042.153 8
  21529892.692    21529897.051     3209776.820 8   2821898.804 8
  20811903.236    20811911.177   -15811568.395 8 -11965477.623 6
 90  3  3  6  1 14.0800000  0  4G 6G12G11G13
  22033760.426    22033765.137     7620225.083 9   6235168.290 7
  21640579.745    21640584.668   -37755426.843 9  43040749.321 8
  21535161.194    21535164.837     3237462.192 8   2843471.836 7
  20809830.349    20809836.779   -15822466.083 9 -11973969.348 6
 90  3  3  6  1 29.0800000  0  4G 6G12G11G13
  22042569.036    22042575.142     7666525.611 8   6271246.614 7
  21633688.861    21633693.923   -37791642.138 8  43012529.627 7
  21540439.068    21540442.983     3265199.502 9   2865085.331 7
  20807777.775    20807783.174   -15833259.426 9 -11982379.714 7
 90  3  3  6  1 44.0800000  0  4G 6G12G11G13
  22051400.955    22051408.013     7712935.162 7   6307409.885 8
  21626815.144    21626820.578   -37827763.166 9  42984383.387 7
  21545727.145    21545731.460     3292988.403 8   2886739.021 7
  20805744.002    20805748.329   -15843948.598 9 -11990708.919 7
 90  3  3  6  1 59.0800000  0  4G 6G12G11G13
  22060254.025    22060258.929     7759453.344 9   6343657.813 8
  21619959.456    21619965.534   -37863789.460 8  42956310.958 9
  21551024.794    21551029.525     3320828.603 8   2908432.689 7
  20803729.990    20803733.787   -15854533.539 9 -11998956.938 6
 90  3  3  6  2 14.0800000  0  4G 6G12G11G13
  22069127.234    22069132.838     7806079.898 9   6379990.169 9
  21613121.351    21613126.656   -37899720.841 8  42928312.511 8
  21556331.730    21556336.346     3348719.684 7   2930165.998 7
  20801734.867    20801738.714   -15865014.557 9 -12007123.938 7
 90  3  3  6  2 29.0800000  0  4G 6G12G11G13
  22078019.517    22078024.635     7852814.524 8   6416406.747 8
  21606302.606    21606307.622   -37935556.955 9  42900388.297 8
  21561647.580    21561653.814     3376661.561 8   2951938.871 7
  20799760.778    20799765.044   -15875391.775 8 -12015210.060 7
 90  3  3  6  2 44.0800000  0  4G 6G12G11G13
  22086934.988    22086938.110     7899657.031 8   6452907.390 8
  21599501.086    21599505.779   -37971297.475 9  42872538.564 8
  21566974.364    21566978.894     3404653.937 8   2973751.114 6
  20797805.653    20797810.287   -15885665.169 9 -12023215.288 6
 90  3  3  6  2 59.0800000  0  4G 6G12G11G13
  22095868.474    22095872.677     7946607.126 8   6489491.871 8
  21592717.745    21592722.850   -38006941.864 9  42844763.734 7
  21572311.377    21572316.538     3432696.555 7   2995602.479 6
  20795871.930    20795874.489   -15895834.806 9 -12031139.661 7
 90  3  3  6  3 14.0800000  0  4G 6G12G11G13
  22104823.482    22104825.724     7993664.372 9   6526159.853 8
  21585952.535    21585957.808   -38042489.888 8  42817063.989 8
  21577657.922    21577663.911     3460789.160 9   3017492.817 7
  20793955.582    20793958.657   -15905900.844 9 -12038983.309 7
 90  3  3  6  3 29.0800000  0  4G 6G12G11G13
  22113798.272    22113801.852     8040828.608 8   6562911.177 8
  21579206.709    21579212.058   -38077941.142 8  42789439.663 8
  21583012.979    21583018.983     3488931.504 8   3039421.926 7
  20792058.838    20792063.104   -15915863.564 8 -12046746.455 7
 90  3  3  6  3 44.0800000  0  4G 6G12G11G13
  22122794.131    22122797.820     8088099.577 7   6599745.702 6
  21572479.672    21572482.695   -38113295.266 9  42761890.999 7
  21588377.825    21588382.612     3517123.233 8   3061389.493 7
  20790181.461    20790186.961   -15925723.041 8 -12054429.168 5
 90  3  3  6  3 59.0800000  0  4G 6G12G11G13
  22131808.472    22131813.605     8135476.835 7   6636663.000 7
  21565770.224    21565774.811   -38148551.985 8  42734418.255 8
  21593751.842    21593756.487     3545364.129 8   3083395.409 7
  20788325.227    20788330.437   -15935479.334 9 -12062031.459 7
 90  3  3  6  4 14.0800000  0  4G 6G12G11G13
  22140843.260    22140848.236     8182960.215 8   6673663.013 8
  21559080.695    21559084.634   -38183711.070 9  42707021.570 6
  21599136.277    21599140.663     3573654.030 9   3105439.479 7
  20786490.123    20786493.012   -15945132.687 9 -12069553.521 7
 90  3  3  6  4 29.0800000  0  4G 6G12G11G13
  22149900.679    22149905.625     8230549.317 7   6710745.409 8
  21552408.058    21552412.583   -38218772.133 8  42679701.284 7
  21604529.226    21604534.228     3601992.643 8   3127521.526 7
  20784672.641    20784675.630   -15954683.137 9 -12076995.410 6
 90  3  3  6  4 44.0800000  0  4G 6G12G11G13
  22158977.042    22158982.719     8278243.981 8   6747910.041 8
  21545756.136    21545759.460   -38253734.765 8  42652457.688 7
  21609931.303    21609935.375     3630379.615 8   3149641.252 8
  20782873.325    20782876.872   -15964130.799 9 -12084357.219 7
 90  3  3  6  4 59.0800000  0  4G 6G12G11G13
  22168073.332    22168078.242     8326043.808 8   6785156.646 8
  21539121.512    21539124.677   -38288598.476 9  42625291.196 8
  21615342.353    21615347.427     3658814.586 8   3171798.348 7
  20781094.678    20781100.150   -15973476.032 8 -12091639.231 7
 90  3  3  6  5 14.0800000  0  4G 6G12G11G13
  22177189.961    22177194.414     8373948.304 9   6822484.818 7
  21532506.014    21532510.049   -38323363.089 8  42598201.894 8
  21620761.301    21620767.806     3687297.225 8   3193992.613 8
  20779334.944    20779340.591   -15982718.937 9 -12098841.467 6
 90  3  3  6  5 29.0800000  0  4G 6G12G11G13
  22186324.606    22186329.954     8421957.493 8   6859894.576 8
  21525909.094    21525913.855   -38358028.046 9  42571190.241 7
  21626191.554    21626195.254     3715827.432 9   3216223.943 8
  20777596.131    20777602.922   -15991859.498 8 -12105963.976 6
 90  3  3  6  5 44.0800000  0  4G 6G12G11G13
  22195480.743    22195485.068     8470071.052 8   6897385.644 8
  21519330.264    21519334.825   -38392592.991 8  42544256.539 8
  21631630.163    21631633.663     3744404.901 8   3238492.089 7
  20775876.309    20775882.263   -16000897.962 9 -12113006.913 6
 90  3  3  6  5 59.0800000  0  4G 6G12G11G13
  22204656.914    22204659.149     8518288.642 8   6934957.781 7
  21512773.005    21512776.343   -38427057.754 8  42517400.913 8
  21637077.372    21637082.661     3773029.393 8   3260796.881 8
  20774176.423    20774180.657   -16009834.356 8 -12119970.299 7
 90  3  3  6  6 14.0800000  0  4G 6G12G11G13
  22213850.184    22213855.059     8566609.822 7   6972610.621 7
  21506232.657    21506237.786   -38461421.828 9  42490623.699 8
  21642532.966    21642537.697     3801700.710 8   3283138.158 9
  20772496.818    20772499.449   -16018668.783 8 -12126854.263 7
 90  3  3  6  6 29.0800000  0  4G 6G12G11G13
  22223066.233    22223068.519     8615034.463 8   7010344.088 8
  21499713.016    21499717.925   -38495684.936 9  42463925.193 8
  21647997.518    21648002.807     3830418.555 8   3305515.699 8
  20770835.077    20770838.549   -16027401.441 8 -12133658.919 6
 90  3  3  6  6 44.0800000  0  4G 6G12G11G13
  22232300.979    22232303.407     8663562.134 9   7048157.839 6
  21493213.306    21493217.238   -38529846.758 9  42437305.619 8
  21653471.385    21653476.273     3859182.632 8   3327929.276 8
  20769190.314    20769194.176   -16036032.674 9 -12140384.549 6
 90  3  3  6  6 59.0800000  0  4G 6G12G11G13
  22241555.478    22241557.605     8712192.591 8   7086051.693 7
  21486732.008    21486736.790   -38563906.957 9  42410765.218 7
  21658952.292    21658958.611     3887992.781 8   3350378.733 9
  20767567.817    20767570.415   -16044562.509 9 -12147031.147 6
 90  3  3  6  7 14.0800000  0  4G 6G12G11G13
  22250828.006    22250832.774     8760925.602 7   7124025.450 8
  21480269.029    21480274.745   -38597865.213 9  42384304.246 8
  21664444.819    21664449.249     3916848.594 8   3372863.790 8
  20765963.753    20765969.028   -16052990.897 8 -12153598.731 6
 90  3  3  6  7 29.0800000  0  4G 6G12G11G13
  22260121.326    22260124.892     8809760.783 8   7162078.825 7
  21473826.440    21473831.781   -38631721.087 9  42357923.058 8
  21669944.714    21669948.586     3945749.918 8   3395384.287 8
  20764379.131    20764383.691   -16061318.091 9 -12160087.435 6
 90  3  3  6  7 44.0800000  0  4G 6G12G11G13
  22269433.376    22269437.700     8858697.845 7   7200211.570 8
  21467403.437    21467407.930   -38665474.360 8  42331621.829 7
  21675451.950    21675457.825     3974696.475 9   3417940.047 7
  20762814.010    20762819.840   -16069544.181 8 -12166497.376 7
 90  3  3  6  7 59.0800000  0  4G 6G12G11G13
  22278766.675    22278769.955     8907736.415 8   7238423.451 8
  21460999.169    21461005.476   -38699124.613 9  42305400.868 8
  21680969.016    21680974.448     4003687.894 8   3440530.750 7
  20761267.813    20761272.633   -16077669.339 9 -12172828.648 6
 90  3  3  6  8 14.0800000  0  4G 6G12G11G13
  22288116.910    22288120.769     8956876.167 8   7276714.134 8
  21454616.053    21454620.149   -38732671.388 9  42279260.540 7
  21686494.654    21686499.142     4032724.045 8   3463156.328 8
  20759741.269    20759745.430   -16085693.740 8 -12179081.428 7
 90  3  3  6  8 29.0800000  0  4G 6G12G11G13
  22297486.383    22297491.223     9006116.883 8   7315083.500 8
  21448252.476    21448255.624   -38766114.430 8  42253201.023 6
  21692028.119    21692033.050     4061804.606 8   3485816.493 8
  20758234.261    20758238.480   -16093617.518 9 -12185255.773 6
 90  3  3  6  8 44.0800000  0  4G 6G12G11G13
  22306876.332    22306881.537     9055458.221 7   7353531.271 8
  21441908.367    21441911.594   -38799453.443 9  42227222.589 7
  21697570.899    21697575.916     4090929.237 8   3508511.035 7
  20756744.942    20756747.835   -16101440.756 9 -12191351.760 6
 90  3  3  6  8 59.0800000  0  4G 6G12G11G13
  22316286.080    22316288.829     9104899.881 8   7392057.219 8
  21435584.123    21435588.430   -38832688.046 9  42201325.501 7
  21703120.577    21703125.393     4120097.708 8   3531239.700 7
  20755275.903    20755276.632   -16109163.623 8 -12197369.565 6
 90  3  3  6  9 14.0800000  0  4G 6G12G11G13
  22325712.188    22325716.105     9154441.519 8   7430661.074 8
  21429280.531    21429282.705   -38865817.811 9  42175510.128 8
  21708679.712    21708685.258     4149309.807 8   3554002.374 8
  20753824.450    20753824.821   -16116786.244 8 -12203309.245 7
 90  3  3  6  9 29.0800000  0  4G 6G12G11G13
  22335158.451    22335162.533     9204082.850 8   7469342.608 8
  21422995.379    21422999.017   -38898842.351 9  42149776.715 7
  21714246.474    21714252.135     4178565.415 8   3576798.941 9
  20752392.068    20752394.685   -16124309.002 9 -12209171.138 7
 90  3  3  6  9 44.0800000  0  4G 6G12G11G13
  22344624.003    22344627.455     9253823.541 7   7508101.582 8
  21416731.337    21416735.490   -38931761.436 9  42124125.504 8
  21719821.979    21719828.198     4207864.244 9   3599629.183 8
  20750980.409    20750984.379   -16131731.759 8 -12214955.095 6
 90  3  3  6  9 59.0800000  0  4G 6G12G11G13
  22354108.487    22354112.354     9303663.346 8   7546937.756 9
  21410486.412    21410490.673   -38964574.821 9  42098556.641 7
  21725405.526    21725411.617     4237205.944 9   3622492.859 8
  20749587.134    20749591.311   -16139054.721 8 -12220661.274 6
 90  3  3  6 10 14.0800000  0  4G 6G12G11G13
  22363610.255    22363613.257     9353601.873 8   7585850.877 7
  21404261.971    21404267.544   -38997282.096 9  42073070.467 7
  21730997.702    21731003.791     4266590.252 9   3645389.712 9
  20748212.132    20748219.317   -16146278.237 8 -12226289.997 6
 90  3  3  6 10 29.0800000  0  4G 6G12G11G13
  22373132.358    22373135.881     9403638.863 8   7624840.723 8
  21398058.875    21398064.564   -39029882.824 9  42047667.300 8
  21736597.619    21736602.092     4296016.904 8   3668319.585 8
  20746855.871    20746862.043   -16153402.426 8 -12231841.283 7
 90  3  3  6 10 44.0800000  0  4G 6G12G11G13
  22382672.561    22382676.900     9453773.886 7   7663906.971 8
  21391875.981    21391880.438   -39062376.724 8  42022347.384 9
  21742204.919    21742211.238     4325485.581 9   3691282.177 8
  20745518.877    20745523.683   -16160427.412 8 -12237315.277 7
 90  3  3  6 10 59.0800000  0  4G 6G12G11G13
  22392232.776    22392236.170     9504006.770 8   7703049.464 8
  21385712.772    21385717.494   -39094763.476 9  41997110.971 7
  21747820.848    21747825.621     4354996.038 8   3714277.342 8
  20744200.901    20744205.789   -16167353.210 8 -12242711.984 7
 90  3  3  6 11 14.0800000  0  4G 6G12G11G13
  22401809.876    22401813.499     9554337.158 8   7742267.922 8
  21379569.679    21379573.985   -39127042.633 9  41971958.386 7
  21753444.732    21753450.107     4384547.976 9   3737304.821 8
  20742902.417    20742905.334   -16174180.128 8 -12248031.655 6
 90  3  3  6 11 29.0800000  0  4G 6G12G11G13
  22411404.933    22411410.824     9604764.676 7   7781562.070 8
  21373447.863    21373453.293   -39159213.936 8  41946889.855 9
  21759076.058    21759080.202     4414141.224 9   3760364.485 7
  20741623.011    20741624.786   -16180908.235 8 -12253274.309 6
 90  3  3  6 11 44.0800000  0  4G 6G12G11G13
  22421018.814    22421026.072     9655288.990 7   7820931.647 9
  21367346.356    21367351.296   -39191276.955 8  41921905.695 7
  21764715.811    21764719.168     4443775.445 8   3783456.086 8
  20740361.759    20740365.352   -16187537.564 9 -12258440.021 6
 90  3  3  6 11 59.0800000  0  4G 6G12G11G13
  22430651.684    22430658.662     9705909.804 8   7860376.400 8
  21361265.175    21361270.963   -39223231.356 9  41897006.164 8
  21770363.292    21770364.802     4473450.490 8   3806579.497 8
  20739117.017    20739120.975   -16194068.391 9 -12263528.974 6
 90  3  3  6 12 14.0800000  0  4G 6G12G11G13
  22440304.292    22440311.157     9756626.876 8   7899896.175 8
  21355205.200    21355210.351   -39255076.790 9  41872191.551 8
  21776018.814    21776022.114     4503166.112 8   3829734.525 9
  20737892.476    20737898.609   -16200500.933 8 -12268541.323 6
 90  3  3  6 12 29.0800000  0  4G 6G12G11G13
  22449974.838    22449979.850     9807439.796 8   7939490.649 8
  21349166.284    21349171.546   -39286813.060 9  41847462.008 7
  21781679.874    21781682.573     4532922.076 8   3852920.991 8
  20736687.538    20736694.945   -16206835.323 8 -12273477.199 8
 90  3  3  6 12 44.0800000  0  4G 6G12G11G13
  22459662.670    22459666.808     9858348.130 8   7979159.461 8
  21343148.039    21343153.991   -39318439.879 8  41822817.739 8
  21787349.677    21787353.191     4562717.924 8   3876138.530 8
  20735500.712    20735508.073   -16213071.796 8 -12278336.757 6
 90  3  3  6 12 59.0800000  0  4G 6G12G11G13
  22469367.636    22469371.989     9909351.653 8   8018902.455 8
  21337151.382    21337155.499   -39349956.746 9  41798259.167 7
  21793027.536    21793030.592     4592553.525 8   3899387.022 8
  20734333.966    20734338.214   -16219210.410 9 -12283120.069 7
 90  3  3  6 13 14.0800000  0  4G 6G12G11G13
  22479092.900    22479095.708     9960450.055 8   8058719.384 8
  21331174.991    21331178.217   -39381363.429 9  41773786.456 7
  21798712.864    21798716.836     4622428.598 9   3922666.295 8
  20733184.573    20733188.235   -16225251.393 8 -12287827.327 6
 90  3  3  6 13 29.0800000  0  4G 6G12G11G13
  22488833.947    22488836.633    10011643.058 8   8098610.029 8
  21325219.762    21325224.907   -39412659.492 9  41749399.919 8
  21804404.846    21804409.176     4652343.015 8   3945976.213 9
  20732053.772    20732055.669   -16231194.706 9 -12292458.466 6
 90  3  3  6 13 44.0800000  0  4G 6G12G11G13
  22498592.137    22498596.168    10062930.288 8   8138574.074 9
  21319284.956    21319289.389   -39443844.655 9  41725099.798 8
  21810105.042    21810108.785     4682296.551 8   3969316.643 7
  20730939.626    20730942.618   -16237040.493 9 -12297013.602 7
 90  3  3  6 13 59.0800000  0  4G 6G12G11G13
  22508368.978    22508374.333    10114311.452 7   8178611.312 8
  21313372.070    21313375.794   -39474918.581 8  41700886.371 8
  21815810.789    21815816.092     4712288.895 8   3992687.282 8
  20729844.150    20729849.192   -16242788.983 8 -12301492.948 6
 90  3  3  6 14 14.0800000  0  4G 6G12G11G13
  22518162.555    22518169.977    10165786.264 8   8218721.523 8
  21307479.112    21307484.216   -39505880.869 8  41676759.928 8
  21821527.082    21821529.981     4742319.728 9   4016087.943 8
  20728768.610    20728774.364   -16248440.363 9 -12305896.609 6
 90  3  3  6 14 29.0800000  0  4G 6G12G11G13
  22527976.579    22527983.837    10217354.324 8   8258904.398 9
  21301608.297    21301613.982   -39536731.217 9  41652720.697 8
  21827248.456    21827253.516     4772388.808 9   4039518.379 7
  20727712.642    20727718.482   -16253995.165 9 -12310225.042 7
 90  3  3  6 14 44.0800000  0  4G 6G12G11G13
  22537807.996    22537815.661    10269015.331 7   8299159.708 8
  21295759.415    21295764.241   -39567469.377 9  41628768.910 7
  21832977.141    21832981.943     4802495.867 9   4062978.428 8
  20726675.927    20726680.640   -16259453.399 8 -12314478.194 7
 90  3  3  6 14 59.0800000  0  4G 6G12G11G13
  22547656.068    22547663.848    10320768.968 7   8339487.184 9
  21289931.667    21289936.150   -39598094.857 8  41604904.913 9
  21838714.068    21838719.557     4832640.668 8   4086467.884 7
  20725655.234    20725660.759   -16264814.829 8 -12318655.906 7
 90  3  3  6 15 14.0800000  0  4G 6G12G11G13
  22557522.099    22557529.857    10372614.923 8   8379886.611 9
  21284125.083    21284129.430   -39628607.252 9  41581129.044 8
  21844457.664    21844462.494     4862822.964 9   4109986.551 8
  20724654.028    20724656.390   -16270079.669 9 -12322758.345 6
 90  3  3  6 15 29.0800000  0  4G 6G12G11G13
  22567405.973    22567412.723    10424552.878 7   8420357.725 8
  21278340.825    21278343.908   -39659006.282 9  41557441.500 8
  21850208.485    21850212.814     4893042.566 8   4133534.299 8
  20723670.006    20723673.392   -16275248.052 9 -12326785.638 6
 90  3  3  6 15 44.0800000  0  4G 6G12G11G13
  22577306.010    22577314.698    10476582.469 7   8460900.233 9
  21272577.326    21272582.044   -39689291.713 9  41533842.462 7
  21855966.332    21855969.804     4923299.180 8   4157110.886 8
  20722704.590    20722705.908   -16280320.430 9 -12330738.135 6
 90  3  3  6 15 59.0800000  0  4G 6G12G11G13
  22587225.392    22587231.877    10528703.392 8   8501513.922 8
  21266835.408    21266840.367   -39719463.100 8  41510332.308 8
  21861731.520    21861735.635     4953592.647 8   4180716.169 8
  20721755.161    20721758.840   -16285296.950 8 -12334615.922 7
 90  3  3  6 16 14.0800000  0  4G 6G12G11G13
  22597159.563    22597166.535    10580915.209 8   8542198.431 8
  21261115.012    21261120.764   -39749520.181 9  41486911.209 7
  21867504.263    21867506.389     4983922.627 9   4204349.926 8
  20720826.995    20720829.039   -16290177.895 8 -12338419.242 5
 90  3  3  6 16 29.0800000  0  4G 6G12G11G13
  22607111.299    22607119.107    10633217.658 8   8582953.557 8
  21255416.344    21255423.574   -39779462.574 8  41463579.480 8
  21873282.415    21873285.929     5014288.978 8   4228012.003 8
  20719918.044    20719921.988   -16294962.959 9 -12342147.884 7
 90  3  3  6 16 44.0800000  0  4G 6G12G11G13
  22617081.736    22617089.682    10685610.370 8   8623779.041 8
  21249741.462    21249746.456   -39809290.089 9  41440337.279 7
  21879066.362    21879070.048     5044691.382 9   4251702.206 7
  20719024.495    20719029.115   -16299652.613 8 -12345802.142 5
 90  3  3  6 16 59.0800000  0  4G 6G12G11G13
  22627070.354    22627076.231    10738093.098 8   8664674.645 8
  21244087.503    21244093.617   -39839002.380 9  41417184.853 8
  21884858.294    21884863.726     5075129.474 9   4275420.189 8
  20718151.678    20718155.521   -16304247.041 9 -12349382.208 6
 90  3  3  6 17 14.0800000  0  4G 6G12G11G13
  22637075.170    22637078.693    10790665.459 8   8705640.117 7
  21238455.652    21238460.681   -39868599.106 8  41394122.485 7
  21890657.367    21890661.324     5105603.161 7   4299165.926 8
  20717295.205    20717300.930   -16308746.285 8 -12352888.077 6
 90  3  3  6 17 29.0800000  0  4G 6G12G11G13
  22647096.498    22647101.495    10843327.132 8   8746675.170 8
  21232846.645    21232850.706   -39898079.939 8  41371150.424 9
  21896461.976    21896467.479     5136112.164 8   4322939.157 8
  20716457.022    20716460.720   -16313150.544 9 -12356319.925 7
 90  3  3  6 17 44.0800000  0  4G 6G12G11G13
  22657135.484    22657139.780    10896077.781 9   8787779.561 8
  21227257.447    21227262.076   -39927444.503 9  41348268.976 7
  21902273.425    21902280.159     5166656.131 8   4346739.646 8
  20715636.186    20715640.809   -16317460.349 8 -12359678.204 7
 90  3  3  6 17 59.0800000  0  4G 6G12G11G13
  22667190.861    22667195.343    10948916.984 8   8828952.951 7
  21221692.159    21221695.564   -39956692.549 8  41325478.295 7
  21908093.417    21908099.278     5197234.888 8   4370567.233 8
  20714833.837    20714838.805   -16321675.552 8 -12362962.753 7
 90  3  3  6 18 14.0800000  0  4G 6G12G11G13
  22677262.408    22677266.081    11001844.552 8   8870195.204 8
  21216148.244    21216151.790   -39985823.575 8  41302778.802 7
  21913918.546    21913924.923     5227848.230 7   4394421.770 9
  20714049.680    20714054.336   -16325796.360 8 -12366173.776 6
 90  3  3  6 18 29.0800000  0  4G 6G12G11G13
  22687349.566    22687355.114    11054859.995 7   8911505.918 8
  21210627.412    21210631.665   -40014837.406 9  41280170.638 8
  21919752.004    21919755.975     5258495.886 8   4418303.054 8
  20713282.621    20713288.748   -16329822.894 9 -12369311.334 7
 90  3  3  6 18 44.0800000  0  4G 6G12G11G13
  22697454.646    22697460.444    11107963.169 8   8952884.984 7
  21205128.818    21205132.925   -40043733.650 9  41257654.091 6
  21925590.068    21925592.867     5289177.623 9   4442210.907 7
  20712535.077    20712540.581   -16333755.273 9 -12372375.521 6
 90  3  3  6 18 59.0800000  0  4G 6G12G11G13
  22707577.569    22707581.457    11161153.416 7   8994331.918 8
  21199652.962    21199657.076   -40072512.054 9  41235229.382 7
  21931434.644    21931439.002     5319893.257 9   4466145.168 9
  20711805.061    20711811.263   -16337593.700 8 -12375366.502 7
 90  3  3  6 19 14.0800000  0  4G 6G12G11G13
  22717714.623    22717720.050    11214430.677 7   9035846.640 8
  21194199.250    21194204.630   -40101172.268 9  41212896.740 8
  21937287.747    21937289.859     5350642.467 8   4490105.591 8
  20711092.350    20711099.864   -16341338.446 7 -12378284.475 7
 90  3  3  6 19 29.0800000  0  4G 6G12G11G13
  22727870.386    22727875.734    11267794.520 9   9077428.840 8
  21188768.314    21188772.164   -40129713.808 9  41190656.593 8
  21943145.816    21943147.842     5381425.037 9   4514092.004 8
  20710399.252    20710405.313   -16344989.775 8 -12381129.651 7
 90  3  3  6 19 44.0800000  0  4G 6G12G11G13
  22738041.589    22738045.835    11321244.550 8   9119078.190 8
  21183359.883    21183363.106   -40158136.500 9  41168509.062 7
  21949008.721    21949011.692     5412240.734 8   4538104.228 7
  20709721.197    20709726.908   -16348547.669 8 -12383902.010 7
 90  3  3  6 19 59.0800000  0  4G 6G12G11G13
  22748229.154    22748234.173    11374780.574 8   9160794.567 9
  21177972.845    21177978.150   -40186440.088 9  41146454.323 8
  21954879.039    21954882.353     5443089.300 8   4562142.082 7
  20709061.164    20709065.573   -16352012.410 9 -12386601.796 7
 90  3  3  6 20 14.0800000  0  4G 6G12G11G13
  22758432.697    22758438.910    11428402.021 9   9202577.506 8
  21172610.153    21172613.337   -40214624.242 9  41124492.650 7
  21960755.738    21960759.280     5473970.526 8   4586205.366 7
  20708418.888    20708425.197   -16355384.169 8 -12389229.129 7
 90  3  3  6 20 29.0800000  0  4G 6G12G11G13
  22768653.352    22768657.268    11482108.693 7   9244426.840 9
  21167269.283    21167275.643   -40242688.579 9  41102624.342 7
  21966638.175    21966642.305     5504884.270 8   4610293.987 8
  20707793.884    20707800.146   -16358663.093 9 -12391784.104 6
 90  3  3  6 20 44.0800000  0  4G 6G12G11G13
  22778889.361    22778893.900    11535900.395 8   9286342.435 8
  21161951.625    21161955.826   -40270632.749 9  41080849.673 7
  21972525.706    21972531.826     5535830.237 8   4634407.717 8
  20707188.842    20707193.369   -16361849.242 8 -12394266.800 6
 90  3  3  6 20 59.0800000  0  4G 6G12G11G13
  22789141.411    22789146.358    11589776.547 9   9328323.832 8
  21156656.284    21156659.004   -40298456.570 9  41059168.796 6
  21978420.865    21978425.811     5566808.069 8   4658546.293 9
  20706600.011    20706604.464   -16364942.827 8 -12396677.366 7
 90  3  3  6 21 14.0800000  0  4G 6G12G11G13
  22799410.689    22799415.421    11643736.910 8   9370370.836 8
  21151384.549    21151389.114   -40326159.648 9  41037581.999 7
  21984321.175    21984327.350     5597817.605 8   4682709.540 9
  20706030.184    20706033.348   -16367944.223 8 -12399016.110 6
 90  3  3  6 21 29.0800000  0  4G 6G12G11G13
  22809694.383    22809698.508    11697781.170 8   9412483.218 7
  21146135.797    21146140.445   -40353741.471 8  41016089.678 7
  21990228.954    21990233.556     5628858.635 8   4706897.357 8
  20705477.391    20705479.707   -16370853.413 9 -12401282.996 7
 90  3  3  6 21 44.0800000  0  4G 6G12G11G13
  22819994.025    22819998.600    11751908.877 9   9454660.638 8
  21140910.940    21140913.344   -40381201.962 8  40994691.909 7
  21996142.686    21996147.602     5659930.797 8   4731109.422 8
  20704940.260    20704944.934   -16373670.766 8 -12403478.331 7
 90  3  3  6 21 59.0800000  0  4G 6G12G11G13
  22830311.340    22830315.063    11806119.672 8   9496902.791 8
  21135708.969    21135713.420   -40408540.736 9  40973388.982 8
  22002061.125    22002064.825     5691033.960 8   4755345.655 8
  20704421.355    20704427.678   -16376396.392 9 -12405602.185 7
 90  3  3  6 22 14.0800000  0  4G 6G12G11G13
  22840643.557    22840647.838    11860413.266 8   9539209.471 8
  21130529.772    21130533.953   -40435757.456 8  40952181.146 9
  22007985.903    22007990.377     5722167.835 9   4779605.811 9
  20703920.065    20703926.524   -16379030.382 8 -12407654.630 6
 90  3  3  6 22 29.0800000  0  4G 6G12G11G13
  22850990.806    22850993.628    11914789.326 9   9581580.408 8
  21125374.552    21125378.741   -40462851.937 9  40931068.580 8
  22013915.990    22013920.020     5753332.203 9   4803889.751 7
  20703435.559    20703442.040   -16381573.291 8 -12409636.110 7
 90  3  3  6 22 44.0800000  0  4G 6G12G11G13
  22861354.016    22861357.597    11969247.523 8   9624015.351 8
  21120242.332    21120244.958   -40489823.704 8  40910051.639 8
  22019852.573    22019855.759     5784526.926 9   4828197.319 7
  20702968.640    20702974.977   -16384024.962 7 -12411546.490 7
 90  3  3  6 22 59.0800000  0  4G 6G12G11G13
  22871732.395    22871735.432    12023787.536 8   9666514.044 8
  21115132.043    21115135.321   -40516672.459 9  40889130.534 8
  22025794.022    22025798.538     5815751.782 8   4852528.376 8
  20702520.244    20702524.266   -16386385.435 9 -12413385.805 7
 90  3  3  6 23 14.0800000  0  4G 6G12G11G13
  22882125.147    22882130.409    12078408.942 7   9709076.150 8
  21110045.677    21110049.973   -40543397.946 8  40868305.490 8
  22031740.922    22031745.810     5847006.353 8   4876882.594 7
  20702088.707    20702091.109   -16388655.061 8 -12415154.334 7
 90  3  3  6 23 29.0800000  0  4G 6G12G11G13
  22892533.067    22892539.902    12133111.438 8   9751701.451 9
  21104982.659    21104988.397   -40569999.758 8  40847576.803 7
  22037694.548    22037698.578     5878290.526 9   4901259.875 8
  20701673.766    20701676.472   -16390833.870 9 -12416852.085 7
 90  3  3  6 23 44.0800000  0  4G 6G12G11G13
  22902959.016    22902964.786    12187894.556 8   9794389.586 8
  21099945.212    21099949.662   -40596477.714 8  40826944.636 7
  22043652.609    22043657.783     5909604.143 8   4925660.091 8
  20701275.444    20701279.167   -16392922.158 8 -12418479.305 7
 90  3  3  6 23 59.0800000  0  4G 6G12G11G13
  22913399.275    22913403.570    12242758.113 7   9837140.380 9
  21094930.502    21094934.029   -40622831.577 9  40806409.176 8
  22049617.339    22049621.798     5940946.823 8   4950082.978 7
  20700895.983    20700898.020   -16394920.293 8 -12420036.280 7
 90  3  3  6 24 14.0800000  0  4G 6G12G11G13
  22923855.209    22923860.750    12297701.650 8   9879953.521 8
  21089940.128    21089943.663   -40649060.917 9  40785970.744 7
  22055587.091    22055590.677     5972318.416 8   4974528.359 7
  20700533.520    20700536.077   -16396828.237 8 -12421522.991 6
 90  3  3  6 24 29.0800000  0  4G 6G12G11G13
  22934325.531    22934330.886    12352724.760 8   9922828.656 7
  21084972.038    21084976.770   -40675165.450 8  40765629.560 8
  22061563.039    22061567.254     6003718.589 7   4998996.013 8
  20700187.205    20700191.278   -16398646.457 9 -12422939.774 7
 90  3  3  6 24 44.0800000  0  4G 6G12G11G13
  22944812.152    22944816.319    12407827.099 8   9965765.539 8
  21080027.926    21080031.445   -40701144.834 8  40745385.896 8
  22067543.652    22067547.524     6035147.089 8   5023485.763 7
  20699858.112    20699861.015   -16400374.992 8 -12424286.664 7
 90  3  3  6 24 59.0800000  0  4G 6G12G11G13
  22955313.038    22955317.513    12463008.499 8  10008764.012 8
  21075107.170    21075112.243   -40726998.845 9  40725239.916 7
  22073529.945    22073534.261     6066603.792 9   5047997.456 9
  20699546.899    20699551.733   -16402013.876 7 -12425563.712 7
 90  3  3  6 25 14.0800000  0  4G 6G12G11G13
  22965829.830    22965832.601    12518268.586 9  10051823.801 8
  21070211.570    21070217.695   -40752727.227 8  40705191.815 7
  22079520.346    22079524.947     6098088.498 8   5072531.001 8
  20699251.692    20699254.588   -16403563.095 9 -12426770.878 7
 90  3  3  6 25 29.0800000  0  4G 6G12G11G13
  22976360.665    22976363.767    12573606.866 7  10094944.524 8
  21065340.453    21065344.882   -40778329.724 9  40685241.850 7
  22085516.984    22085521.586     6129600.955 8   5097086.143 8
  20698974.091    20698978.167   -16405023.282 8 -12427908.674 7
 90  3  3  6 25 44.0800000  0  4G 6G12G11G13
  22986905.982    22986909.298    12629023.022 9  10138125.931 9
  21060490.864    21060496.390   -40803805.887 8  40665390.305 8
  22091517.931    22091522.518     6161140.922 8   5121662.751 7
  20698712.755    20698716.098   -16406394.368 9 -12428977.040 7
 90  3  3  6 25 59.0800000  0  4G 6G12G11G13
  22997466.588    22997468.294    12684516.632 8  10181367.712 8
  21055667.482    21055671.657   -40829155.479 8  40645637.376 8
  22097525.460    22097530.404     6192708.107 8   5146260.543 8
  20698468.129    20698472.402   -16407676.799 8 -12429976.341 7
 90  3  3  6 26 14.0800000  0  4G 6G12G11G13
  23008041.260    23008043.145    12740087.552 8  10224669.685 7
  21050869.127    21050870.748   -40854378.026 8  40625983.473 8
  22103537.166    22103541.438     6224302.367 7   5170879.452 7
  20698239.965    20698245.043   -16408870.798 8 -12430906.725 6
 90  3  3  6 26 29.0800000  0  4G 6G12G11G13
  23018629.791    23018632.892    12795735.192 8  10268031.461 8
  21046093.599    21046097.420   -40879473.445 8  40606428.615 7
  22109554.968    22109559.112     6255923.505 8   5195519.302 8
  20698031.659    20698033.671   -16409976.089 8 -12431767.983 6
 90  3  3  6 26 44.0800000  0  4G 6G12G11G13
  23029232.573    23029237.054    12851459.308 8  10311452.832 8
  21041342.750    21041345.516   -40904441.238 9  40586973.200 7
  22115577.879    22115581.937     6287571.164 8   5220179.810 8
  20697837.963    20697842.876   -16410993.094 8 -12432560.448 7
 90  3  3  6 26 59.0800000  0  4G 6G12G11G13
  23039849.457    23039855.127    12907259.522 8  10354933.498 9
  21036614.521    21036619.172   -40929281.143 9  40567617.430 8
  22121605.798    22121609.913     6319245.222 9   5244860.912 8
  20697659.914    20697665.882   -16411921.988 9 -12433284.279 8
 90  3  3  6 27 14.0800000  0  4G 6G12G11G13
  23050481.831    23050487.972    12963135.512 8  10398473.208 8
  21031911.945    21031915.780   -40953992.869 9  40548361.546 7
  22127636.765    22127642.726     6350945.432 9   5269562.342 8
  20697501.579    20697506.389   -16412763.073 9 -12433939.625 6
 90  3  3  6 27 29.0800000  0  4G 6G12G11G13
  23061130.889    23061135.092    13019086.830 8  10442071.610 8
  21027234.274    21027238.789   -40978576.248 8  40529205.683 8
  22133674.443    22133681.004     6382671.549 8   5294283.981 8
  20697356.967    20697362.421   -16413516.506 9 -12434526.714 7
 90  3  3  6 27 44.0800000  0  4G 6G12G11G13
  23071791.187    23071796.871    13075113.302 9  10485728.593 9
  21022582.006    21022584.484   -41003031.085 9  40510149.990 8
  22139716.256    22139722.431     6414423.360 8   5319025.652 8
  20697231.078    20697236.736   -16414182.544 8 -12435045.711 7
 90  3  3  6 27 59.0800000  0  4G 6G12G11G13
  23082467.684    23082473.224    13131214.391 7  10529443.693 8
  21017951.597    21017956.022   -41027356.941 8  40491194.777 7
  22145763.320    22145768.981     6446200.613 8   5343787.165 8
  20697120.354    20697126.040   -16414761.421 8 -12435496.755 7
 90  3  3  6 28 14.0800000  0  4G 6G12G11G13
  23093158.245    23093163.586    13187389.842 7  10573216.767 8
  21013348.731    21013351.718   -41051553.393 9  40472340.403 8
  22151816.052    22151821.197     6478003.225 9   5368568.417 8
  20697026.418    20697029.960   -16415253.010 8 -12435879.788 7
 90  3  3  6 28 29.0800000  0  4G 6G12G11G13
  23103862.646    23103866.883    13243639.299 7  10617047.475 8
  21008767.250    21008770.623   -41075620.090 8  40453587.130 7
  22157873.447    22157877.563     6509830.880 8   5393369.201 8
  20696950.028    20696953.353   -16415657.511 9 -12436194.963 7
 90  3  3  6 28 44.0800000  0  4G 6G12G11G13
  23114580.552    23114584.891    13299962.281 7  10660935.494 8
  21004211.844    21004215.571   -41099556.963 9  40434935.032 8
  22163934.363    22163937.820     6541683.283 8   5418189.260 8
  20696889.830    20696892.221   -16415975.477 8 -12436442.713 7
 90  3  3  6 28 59.0800000  0  4G 6G12G11G13
  23125312.582    23125315.919    13356358.587 7  10704880.660 9
  20999681.307    20999686.308   -41123363.621 9  40416384.397 8
  22170000.888    22170003.916     6573560.470 8   5443028.647 8
  20696845.768    20696848.506   -16416206.904 8 -12436623.037 6
 90  3  3  6 29 14.0800000  0  4G 6G12G11G13
  23136058.485    23136061.035    13412827.701 7  10748882.551 8
  20995175.453    20995180.250   -41147039.992 9  40397935.285 7
  22176071.062    22176075.621     6605461.829 8   5467886.858 7
  20696816.563    20696820.460   -16416352.052 7 -12436736.137 6
 90  3  3  6 29 29.0800000  0  4G 6G12G11G13
  23146818.268    23146821.355    13469369.273 9  10792940.914 9
  20990695.149    20990699.244   -41170585.838 8  40379587.879 9
  22182145.958    22182150.388     6637387.328 7   5492763.860 7
  20696805.212    20696810.247   -16416411.057 8 -12436782.121 8
 90  3  3  6 29 44.0800000  0  4G 6G12G11G13
  23157590.965    23157594.044    13525982.853 9  10837055.383 9
  20986238.805    20986245.083   -41194001.025 8  40361342.296 8
  22188224.417    22188229.935     6669336.577 8   5517659.363 8
  20696810.303    20696816.229   -16416384.483 8 -12436761.409 7
 90  3  3  6 29 59.0800000  0  4G 6G12G11G13
  23168376.804    23168381.923    13582668.547 8  10881226.038 7
  20981807.716    20981814.006   -41217284.424 8  40343199.374 8
  22194309.129    22194313.860     6701310.043 8   5542573.768 8
  20696832.100    20696839.113   -16416271.683 8 -12436673.502 7
 90  3  3  6 30 14.0800000  0  4G 6G12G11G13
  23179178.220    23179181.721    13639425.461 9  10925452.208 8
  20977403.054    20977408.824   -41240436.480 9  40325158.836 7
  22200398.135    22200402.393     6733306.767 7   5567506.272 7
  20696869.522    20696876.671   -16416073.605 8 -12436519.147 7
 90  3  3  6 30 29.0800000  0  4G 6G12G11G13
  23189992.664    23189996.187    13696253.595 8  10969733.852 8
  20973022.681    20973029.053   -41263456.525 9  40307221.143 7
  22206491.189    22206495.361     6765326.927 8   5592457.055 8
  20696924.516    20696930.198   -16415790.197 8 -12436298.291 7
 90  3  3  6 30 44.0800000  0  4G 6G12G11G13
  23200819.729    23200823.961    13753152.443 9  11014070.627 8
  20968666.899    20968671.993   -41286344.371 8  40289386.467 7
  22212589.137    22212592.193     6797370.272 7   5617425.887 7
  20696996.048    20696999.379   -16415421.758 9 -12436011.190 7
 90  3  3  6 30 59.0800000  0  4G 6G12G11G13
  23211660.022    23211664.211    13810121.572 8  11058462.140 8
  20964337.138    20964341.893   -41309099.786 9  40271654.997 8
  22218692.523    22218695.064     6829436.352 7   5642412.456 8
  20697081.910    20697085.002   -16414968.575 9 -12435658.040 7
 90  3  3  6 31 14.0800000  0  4G 6G12G11G13
  23222515.648    23222517.862    13867160.737 9  11102908.242 7
  20960032.375    20960037.373   -41331722.473 8  40254026.932 7
  22224796.323    22224802.456     6861525.196 8   5667416.733 8
  20697184.371    20697186.376   -16414430.433 8 -12435238.700 6
 90  3  3  6 31 29.0800000  0  4G 6G12G11G13
  23233383.093    23233385.178    13924269.439 9  11147408.525 7
  20955752.528    20955757.089   -41354212.329 8  40236502.382 8
  22230907.865    22230912.596     6893636.421 8   5692438.474 7
  20697302.097    20697304.130   -16413807.869 9 -12434753.580 6
 90  3  3  6 31 44.0800000  0  4G 6G12G11G13
  23244263.832    23244265.151    13981447.491 8  11191962.823 7
  20951497.425    20951501.711   -41376568.869 8  40219081.714 7
  22237022.827    22237028.230     6925769.855 8   5717477.517 7
  20697436.507    20697439.388   -16413100.717 8 -12434202.545 6
 90  3  3  6 31 59.0800000  0  4G 6G12G11G13
  23255157.928    23255158.997    14038694.430 8  11236570.826 8
  20947269.384    20947274.132   -41398791.907 8  40201765.047 8
  22243141.624    22243146.411     6957925.250 8   5742533.679 8
  20697586.470    20697589.831   -16412309.402 8 -12433585.928 7
 90  3  3  6 32 14.0800000  0  4G 6G12G11G13
  23266063.414    23266065.642    14096009.868 9  11281232.172 8
  20943067.090    20943069.944   -41420881.093 8  40184552.701 8
  22249264.870    22249269.143     6990102.364 8   5767606.747 8
  20697752.364    20697757.563   -16411434.301 8 -12432904.028 6
 90  3  3  6 32 29.0800000  0  4G 6G12G11G13
  23276980.633    23276986.804    14153393.512 8  11325946.652 9
  20938888.631    20938891.064   -41442836.210 8  40167444.838 7
  22255392.653    22255397.025     7022300.983 8   5792696.583 8
  20697935.347    20697940.567   -16410475.443 9 -12432156.858 7
 90  3  3  6 32 44.0800000  0  4G 6G12G11G13
  23287914.445    23287918.748    14210844.868 8  11370713.912 8
  20934736.719    20934740.088   -41464656.972 9  40150441.641 8
  22261524.457    22261528.229     7054520.962 8   5817803.070 7
  20698134.681    20698140.167   -16409432.937 8 -12431344.501 6
 90  3  3  6 32 59.0800000  0  4G 6G12G11G13
  23298860.076    23298865.037    14268363.722 7  11415533.754 8
  20930610.084    20930613.529   -41486343.024 9  40133543.427 7
  22267657.978    22267662.836     7086762.143 8   5842926.079 6
  20698349.323    20698352.898   -16408306.927 8 -12430467.092 7
 90  3  3  6 33 14.0800000  0  4G 6G12G11G13
  23309817.282    23309824.111    14325949.619 8  11460405.861 7
  20926507.345    20926513.051   -41507894.007 9  40116750.454 7
  22273797.666    22273801.881     7119024.213 9   5868065.357 7
  20698579.157    20698583.530   -16407097.702 8 -12429524.823 7
 90  3  3  6 33 29.0800000  0  4G 6G12G11G13
  23320788.019    23320794.775    14383602.097 7  11505329.833 9
  20922432.409    20922436.419   -41529310.124 8  40100062.589 8
  22279940.487    22279944.732     7151306.874 7   5893220.695 7
  20698823.902    20698829.513   -16405805.826 8 -12428518.161 7
 90  3  3  6 33 44.0800000  0  4G 6G12G11G13
  23331771.661    23331779.163    14441321.307 7  11550305.809 8
  20918382.751    20918386.743   -41550590.384 9  40083480.588 7
  22286088.704    22286092.590     7183610.441 8   5918392.322 7
  20699085.914    20699090.666   -16404430.896 8 -12427446.769 6
 90  3  3  6 33 59.0800000  0  4G 6G12G11G13
  23342767.746    23342775.075    14499106.380 7  11595333.091 9
  20914359.063    20914362.111   -41571735.038 8  40067004.226 8
  22292239.739    22292242.996     7215934.390 8   5943579.804 7
  20699363.590    20699366.995   -16402973.577 8 -12426311.178 6
 90  3  3  6 34 14.0800000  0  4G 6G12G11G13
  23353774.835    23353782.751    14556956.753 7  11640411.286 8
  20910361.676    20910364.072   -41592744.025 9  40050633.603 7
  22298394.480    22298398.180     7248278.151 7   5968782.745 8
  20699656.242    20699660.083   -16401434.096 9 -12425111.584 7
 90  3  3  6 34 29.0800000  0  4G 6G12G11G13
  23364797.513    23364804.077    14614872.582 8  11685540.470 9
  20906389.520    20906394.678   -41613616.537 8  40034369.309 7
  22304552.112    22304557.944     7280641.995 8   5994001.315 8
  20699964.609    20699968.636   -16399812.283 8 -12423847.833 6
 90  3  3  6 34 44.0800000  0  4G 6G12G11G13
  23375833.471    23375837.502    14672853.142 8  11730720.104 9
  20902444.718    20902449.047   -41634352.660 8  40018211.296 8
  22310714.380    22310719.940     7313025.544 8   6019235.255 8
  20700287.292    20700291.841   -16398108.611 9 -12422520.283 6
 90  3  3  6 34 59.0800000  0  4G 6G12G11G13
  23386878.529    23386882.846    14730898.381 7  11775950.134 8
  20898524.569    20898527.910   -41654951.865 8  40002159.963 8
  22316880.898    22316885.886     7345428.748 8   6044484.507 7
  20700628.709    20700632.521   -16396323.152 9 -12421129.006 6
 90  3  3  6 35 14.0800000  0  4G 6G12G11G13
  23397934.755    23397940.510    14789007.575 7  11821230.018 7
  20894630.115    20894634.168   -41675414.143 9  39986215.356 7
  22323050.321    22323054.264     7377851.046 8   6069748.649 8
  20700983.084    20700987.364   -16394456.405 9 -12419674.398 7
 90  3  3  6 35 29.0800000  0  4G 6G12G11G13
  23409004.246    23409011.654    14847180.564 7  11866559.562 8
  20890762.620    20890765.954   -41695739.074 9  39970377.757 7
  22329223.864    22329230.111     7410292.517 8   6095027.704 8
  20701354.529    20701357.286   -16392508.143 8 -12418156.246 7
 90  3  3  6 35 44.0800000  0  4G 6G12G11G13
  23420088.182    23420092.435    14905416.915 8  11911938.528 8
  20886920.927    20886925.445   -41715926.586 8  39954647.231 8
  22335400.827    22335406.875     7442752.819 8   6120321.458 8
  20701740.588    20701744.185   -16390478.762 8 -12416574.907 7
 90  3  3  6 35 59.0800000  0  4G 6G12G11G13
  23431180.646    23431186.116    14963716.308 8  11957366.601 8
  20883105.785    20883109.513   -41735976.333 9  39939024.054 8
  22341582.355    22341585.784     7475231.830 9   6145629.773 8
  20702143.527    20702147.682   -16388368.329 8 -12414930.391 7
 90  3  3  6 36 14.0800000  0  4G 6G12G11G13
  23442286.862    23442292.281    15022078.311 7  12002843.461 7
  20879315.420    20879320.272   -41755888.099 8  39923508.390 7
  22347765.200    22347771.161     7507729.285 8   6170952.474 8
  20702560.054    20702564.667   -16386177.106 9 -12413222.932 7
 90  3  3  6 36 29.0800000  0  4G 6G12G11G13
  23453404.676    23453410.753    15080502.598 7  12048368.846 8
  20875553.709    20875556.266   -41775661.629 8  39908100.460 7
  22353951.937    22353958.341     7540245.074 8   6196289.433 8
  20702992.882    20702997.212   -16383905.353 9 -12411452.735 7
 90  3  3  6 36 44.0800000  0  4G 6G12G11G13
  23464535.045    23464540.006    15138988.618 8  12093942.349 9
  20871816.978    20871820.938   -41795296.535 9  39892800.537 8
  22360143.424    22360149.299     7572778.895 9   6221640.486 8
  20703439.361    20703442.314   -16381553.349 8 -12409619.974 7
 90  3  3  6 36 59.0800000  0  4G 6G12G11G13
  23475676.611    23475681.437    15197536.271 8  12139563.886 7
  20868108.257    20868111.706   -41814792.561 9  39877608.842 7
  22366337.888    22366343.319     7605330.748 8   6247005.551 8
  20703902.035    20703906.691   -16379121.186 8 -12407724.796 7
 90  3  3  6 37 14.0800000  0  4G 6G12G11G13
  23486830.312    23486834.479    15256145.116 8  12185233.088 8
  20864424.796    20864428.298   -41834149.424 9  39862525.596 8
  22372536.901    22372542.262     7637900.243 8   6272384.374 8
  20704380.570    20704385.190   -16376609.049 9 -12405767.288 6
 90  3  3  6 37 29.0800000  0  4G 6G12G11G13
  23497995.617    23497998.161    15314814.668 8  12230949.623 8
  20860768.336    20860770.690   -41853366.986 8  39847550.875 7
  22378738.133    22378742.177     7670487.152 8   6297776.782 8
  20704873.826    20704877.420   -16374017.114 8 -12403747.572 7
 90  3  3  6 37 44.0800000  0  4G 6G12G11G13
  23509170.209    23509173.217    15373544.776 8  12276713.326 8
  20857136.628    20857140.623   -41872444.914 9  39832684.958 7
  22384942.084    22384947.731     7703091.341 8   6323182.646 8
  20705381.663    20705385.943   -16371345.767 9 -12401665.988 6
 90  3  3  6 37 59.0800000  0  4G 6G12G11G13
  23520357.730    23520361.296    15432334.849 8  12322523.756 8
  20853532.507    20853534.199   -41891383.077 9  39817927.939 8
  22391149.669    22391154.944     7735712.589 8   6348601.792 9
  20705905.812    20705912.210   -16368595.141 9 -12399522.645 6
 90  3  3  6 38 14.0800000  0  4G 6G12G11G13
  23531556.290    23531560.907    15491184.607 7  12368380.672 8
  20849955.152    20849958.075   -41910181.174 8  39803280.072 6
  22397361.104    22397366.192     7768350.765 8   6374034.136 7
  20706443.770    20706448.298   -16365765.520 9 -12397317.739 7
 90  3  3  6 38 29.0800000  0  4G 6G12G11G13
  23542765.846    23542769.992    15550093.667 8  12414283.822 8
  20846404.075    20846408.369   -41928838.895 8  39788741.587 6
  22403574.213    22403580.216     7801005.536 8   6399479.400 8
  20706998.484    20707002.757   -16362856.917 9 -12395051.298 7
 90  3  3  6 38 44.0800000  0  4G 6G12G11G13
  23553986.406    23553991.983    15609061.629 8  12460232.877 8
  20842880.835    20842885.921   -41947355.990 8  39774312.679 7
  22409791.613    22409797.617     7833676.847 7   6424937.559 9
  20707565.586    20707570.392   -16359869.552 8 -12392723.464 6
 90  3  3  6 38 59.0800000  0  4G 6G12G11G13
  23565218.042    23565224.656    15668088.261 8  12506227.629 8
  20839384.430    20839388.766   -41965732.205 8  39759993.569 7
  22416010.961    22416016.649     7866364.481 7   6450408.449 8
  20708148.568    20708152.679   -16356803.793 9 -12390334.548 7
 90  3  3  6 39 14.0800000  0  4G 6G12G11G13
  23576462.019    23576467.138    15727172.956 8  12552267.639 8
  20835914.247    20835918.200   -41983967.304 8  39745784.404 7
  22422233.957    22422241.063     7899068.202 8   6475891.847 8
  20708746.974    20708749.802   -16353659.836 8 -12387884.684 7
 90  3  3  6 39 29.0800000  0  4G 6G12G11G13
  23587716.149    23587722.276    15786315.423 8  12598352.668 8
  20832470.286    20832475.774   -42002061.164 8  39731685.303 7
  22428460.487    22428467.478     7931787.805 8   6501387.631 8
  20709360.088    20709363.906   -16350438.089 9 -12385374.229 7
 90  3  3  6 39 44.0800000  0  4G 6G12G11G13
  23598982.212    23598988.061    15845515.466 8  12644482.559 7
  20829054.088    20829059.347   -42020013.420 8  39717696.530 7
  22434690.824    22434696.842     7964523.178 7   6526895.726 8
  20709988.004    20709990.992   -16347138.621 8 -12382803.203 7
 90  3  3  6 39 59.0800000  0  4G 6G12G11G13
  23610258.278    23610264.441    15904772.501 7  12690656.843 7
  20825664.634    20825669.042   -42037823.972 8  39703818.197 6
  22440923.408    22440928.238     7997273.941 7   6552415.798 8
  20710630.962    20710634.427   -16343761.387 9 -12380171.577 6
 90  3  3  6 40 14.0800000  0  4G 6G12G11G13
  23621544.861    23621550.516    15964086.256 8  12736875.338 8
  20822303.867    20822307.057   -42055492.572 8  39690050.464 7
  22447159.153    22447163.926     8030039.990 8   6577947.764 8
  20711288.791    20711290.396   -16340306.722 8 -12377479.618 6
 90  3  3  6 40 29.0800000  0  4G 6G12G11G13
  23632842.720    23632848.776    16023456.334 7  12783137.716 7
  20818968.305    20818972.984   -42073018.912 9  39676393.585 8
  22453396.444    22453401.332     8062821.227 8   6603491.573 8
  20711960.891    20711964.241   -16336774.782 8 -12374727.455 7
 90  3  3  6 40 44.0800000  0  4G 6G12G11G13
  23644152.905    23644158.060    16082882.257 7  12829443.600 8
  20815660.306    20815665.597   -42090402.773 8  39662847.718 6
  22459636.923    22459642.394     8095617.346 7   6629046.982 8
  20712648.151    20712651.916   -16333165.646 8 -12371915.147 7
 90  3  3  6 40 59.0800000  0  4G 6G12G11G13
  23655469.924    23655477.153    16142363.756 8  12875792.784 8
  20812379.273    20812382.810   -42107643.993 8  39649412.997 8
  22465878.488    22465885.441     8128428.278 8   6654613.923 9
  20713349.859    20713353.467   -16329479.763 8 -12369043.019 8
 90  3  3  6 41 14.0800000  0  4G 6G12G11G13
  23666799.427    23666805.719    16201900.383 8  12922184.936 7
  20809124.829    20809129.155   -42124742.228 8  39636089.702 8
  22472127.323    22472130.999     8161253.656 8   6680192.162 9
  20714064.546    20714069.098   -16325717.456 8 -12366111.343 7
 90  3  3  6 41 29.0800000  0  4G 6G12G11G13
  23678140.499    23678146.705    16261491.844 8  12968619.814 9
  20805899.649    20805902.711   -42141697.362 8  39622877.908 7
  22478376.076    22478381.826     8194093.473 7   6705781.616 8
  20714794.387    20714799.239   -16321878.704 8 -12363120.091 7
 90  3  3  6 41 44.0800000  0  4G 6G12G11G13
  23689491.431    23689497.236    16321137.877 7  13015097.225 8
  20802699.498    20802703.633   -42158509.119 9  39609777.855 7
  22484627.776    22484633.691     8226947.581 7   6731382.195 8
  20715539.710    20715544.376   -16317963.478 8 -12360069.270 7
 90  3  3  6 41 59.0800000  0  4G 6G12G11G13
  23700850.912    23700857.669    16380837.904 7  13061616.695 8
  20799529.801    20799530.817   -42175177.482 9  39596789.536 7
  22490882.467    22490887.334     8259815.650 7   6756993.690 8
  20716299.070    20716304.195   -16313972.425 8 -12356959.339 7
 90  3  3  6 42 14.0800000  0  4G 6G12G11G13
  23712221.991    23712228.132    16440591.585 8  13108177.971 8
  20796383.693    20796387.392   -42191701.887 9  39583913.357 7
  22497139.602    22497144.247     8292697.486 7   6782615.884 7
  20717071.838    20717077.435   -16309905.602 8 -12353790.387 6
 90  3  3  6 42 29.0800000  0  4G 6G12G11G13
  23723604.396    23723608.218    16500398.601 8  13154780.814 9
  20793265.455    20793269.727   -42208082.116 8  39571149.554 8
  22503400.081    22503404.729     8325593.031 8   6808248.769 8
  20717861.176    20717866.014   -16305763.307 9 -12350562.632 6
 90  3  3  6 42 44.0800000  0  4G 6G12G11G13
  23734994.984    23734999.509    16560258.600 7  13201424.947 8
  20790176.752    20790181.099   -42224318.023 9  39558498.192 7
  22509661.372    22509667.837     8358501.996 7   6833892.105 8
  20718663.535    20718667.787   -16301545.664 9 -12347276.129 7
 90  3  3  6 42 59.0800000  0  4G 6G12G11G13
  23746397.264    23746401.009    16620171.149 8  13248110.050 8
  20787114.961    20787119.393   -42240409.349 8  39545959.510 7
  22515927.560    22515933.100     8391424.254 8   6859545.802 8
  20719480.977    20719485.501   -16297252.884 9 -12343931.099 6
 90  3  3  6 43 14.0800000  0  4G 6G12G11G13
  23757805.976    23757811.710    16680135.901 8  13294835.763 8
  20784081.108    20784084.034   -42256355.917 8  39533533.618 7
  22522194.214    22522200.526     8424359.515 7   6885209.639 8
  20720312.756    20720315.806   -16292885.180 8 -12340527.678 6
 90  3  3  6 43 29.0800000  0  4G 6G12G11G13
  23769227.602    23769232.484    16740152.440 8  13341601.888 9
  20781073.002    20781076.335   -42272157.654 8  39521220.588 7
  22528465.586    22528471.300     8457307.618 8   6910883.464 8
  20721157.986    20721162.509   -16288442.858 8 -12337066.124 7
 90  3  3  6 43 44.0800000  0  4G 6G12G11G13
  23780657.842    23780663.619    16800220.381 8  13388408.061 8
  20778094.514    20778098.203   -42287814.146 8  39509020.740 7
  22534736.786    22534743.216     8490268.491 8   6936567.275 7
  20722017.582    20722021.118   -16283925.965 9 -12333546.455 7
 90  3  3  6 43 59.0800000  0  4G 6G12G11G13
  23792098.227    23792103.911    16860339.354 9  13435253.996 8
  20775141.423    20775145.733   -42303325.287 8  39496934.123 7
  22541011.739    22541017.046     8523241.889 8   6962260.819 7
  20722890.428    20722895.095   -16279334.739 8 -12329968.889 7
 90  3  3  6 44 14.0800000  0  4G 6G12G11G13
  23803548.071    23803553.096    16920509.008 9  13482139.430 8
  20772218.356    20772222.301   -42318690.913 8  39484960.913 7
  22547289.018    22547293.372     8556227.608 7   6987963.990 7
  20723778.486    20723782.981   -16274669.494 8 -12326333.610 7
 90  3  3  6 44 29.0800000  0  4G 6G12G11G13
  23815006.857    23815013.085    16980729.018 8  13529064.094 8
  20769321.031    20769325.706   -42333910.708 9  39473101.342 7
  22553568.016    22553572.768     8589225.462 7   7013676.602 9
  20724680.065    20724684.488   -16269930.424 9 -12322640.831 6
 90  3  3  6 44 44.0800000  0  4G 6G12G11G13
  23826476.533    23826481.252    17040998.951 9  13576027.675 9
  20766452.664    20766456.967   -42348984.459 7  39461355.571 7
  22559849.716    22559854.135     8622235.407 8   7039398.631 8
  20725595.940    20725598.702   -16265117.672 8 -12318890.632 7
 90  3  3  6 44 59.0800000  0  4G 6G12G11G13
  23837954.788    23837960.314    17101318.701 8  13623030.044 8
  20763612.354    20763616.174   -42363911.675 9  39449723.977 7
  22566132.828    22566138.030     8655257.398 8   7065130.037 7
  20726525.764    20726531.118   -16260231.162 8 -12315082.940 7
 90  3  3  6 45 14.0800000  0  3G12G11G13
  20760800.158    20760804.060   -42378692.273 9  39438206.629 7
  22572420.162    22572423.909     8688291.031 8   7090870.535 8
  20727470.004    20727475.036   -16255271.317 8 -12311218.124 6
 90  3  3  6 45 29.0800000  0  4G 3G12G11G13
                  23306642.756   -56867868.952 9
  20758015.917    20758020.601   -42393326.162 7  39426803.601 7
  22578708.451    22578713.414     8721336.165 8   7116619.997 7
  20728427.670    20728433.448   -16250238.350 8 -12307296.331 7
 90  3  3  6 45 44.0800000  0  4G 3G12G11G13
                  23300843.785   -56898458.383 8
  20755258.021    20755264.751   -42407813.234 8  39415514.969 6
  22584999.373    22585001.652     8754392.579 9   7142378.244 8
  20729398.370    20729401.489   -16245132.676 8 -12303317.865 7
 90  3  3  6 45 59.0800000  0  4G 3G12G11G13
  23295033.655    23295038.513   -56928985.848 8  72259522.624 7
  20752529.487    20752534.356   -42422153.263 9  39404340.940 7
  22591292.370    22591294.772     8787459.934 8   7168145.010 7
  20730383.243    20730389.472   -16239954.443 8 -12299282.890 7
 90  3  3  6 46 14.0800000  0  4G 3G12G11G13
  23289238.933    23289242.275   -56959451.536 8  72235783.136 7
  20749828.141    20749834.026   -42436346.117 8  39393281.565 7
  22597586.333    22597590.100     8820538.234 8   7193920.304 8
  20731383.477    20731389.363   -16234703.842 9 -12295191.495 6
 90  3  3  6 46 29.0800000  0  4G 3G12G11G13
  23283454.510    23283457.172   -56989855.500 9  72212091.778 7
  20747154.726    20747161.741   -42450391.663 8  39382337.003 7
  22603884.437    22603886.932     8853627.201 8   7219703.910 7
  20732397.709    20732400.733   -16229381.052 8 -12291043.843 6
 90  3  3  6 46 44.0800000  0  4G 3G12G11G13
  23277681.385    23277684.508   -57020197.572 8  72188448.618 7
  20744511.675    20744514.970   -42464289.499 8  39371507.529 7
  22610181.283    22610185.052     8886726.756 8   7245495.776 7
  20733423.735    20733427.771   -16223986.344 8 -12286840.174 6
 90  3  3  6 46 59.0800000  0  4G 3G12G11G13
  23271918.726    23271922.156   -57050478.045 8  72164853.465 7
  20741895.011    20741900.911   -42478039.411 8  39360793.308 7
  22616482.115    22616485.418     8919836.787 8   7271295.794 8
  20734464.192    20734467.778   -16218519.734 8 -12282580.460 7
 90  3  3  6 47 14.0800000  0  4G 3G12G11G13
  23266166.889    23266172.931   -57080696.704 8  72141306.498 8
  20739308.195    20739311.219   -42491641.146 8  39350194.575 7
  22622784.498    22622788.459     8952957.133 8   7297103.851 8
  20735517.682    20735519.532   -16212981.568 9 -12278264.986 5
 90  3  3  6 47 29.0800000  0  4G 3G12G11G13
  23260428.237    23260433.564   -57110853.699 8  72117807.584 8
  20736747.451    20736751.004   -42505094.629 8  39339711.355 8
  22629088.777    22629093.755     8986087.477 8   7322919.696 7
  20736585.148    20736587.667   -16207372.029 9 -12273893.914 7
 90  3  3  6 47 44.0800000  0  4G 3G12G11G13
  23254703.616    23254705.788   -57140949.174 8  72094356.614 8
  20734215.125    20734217.919   -42518399.790 8  39329343.697 7
  22635394.145    22635400.946     9019227.656 8   7348743.193 9
  20737665.155    20737668.737   -16201691.446 8 -12269467.467 7
 90  3  3  6 47 59.0800000  0  4G 3G12G11G13
  23248988.700    23248989.631   -57170982.930 8  72070953.721 8
  20731710.702    20731715.443   -42531556.243 8  39319091.898 7
  22641702.552    22641708.968     9052377.460 7   7374574.193 8
  20738760.092    20738762.919   -16195939.954 9 -12264985.776 7
 90  3  3  6 48 14.0800000  0  4G 3G12G11G13
  23243283.715    23243284.748   -57200955.264 8  72047598.651 7
  20729236.242    20729241.097   -42544563.807 7  39308956.127 7
  22648013.757    22648018.355     9085536.776 7   7400412.610 8
  20739867.365    20739871.387   -16190117.853 8 -12260449.059 7
 90  3  3  6 48 29.0800000  0  4G 3G12G11G13
  23237589.547    23237594.616   -57230865.938 8  72024291.625 7
  20726789.656    20726793.481   -42557422.323 8  39298936.510 8
  22654326.708    22654330.583     9118705.507 7   7426258.362 8
  20740988.573    20740993.904   -16184225.314 8 -12255857.480 6
 90  3  3  6 48 44.0800000  0  4G 3G12G11G13
  23231906.702    23231915.759   -57260715.121 8  72001032.533 7
  20724370.516    20724375.414   -42570131.505 9  39289033.248 8
  22660638.615    22660644.779     9151883.407 8   7452111.267 7
  20742122.663    20742128.891   -16178262.444 8 -12251211.096 6
 90  3  3  6 48 59.0800000  0  4G 3G12G11G13
  23226238.209    23226247.334   -57290502.828 8  71977821.366 7
  20721979.994    20721984.748   -42582691.266 8  39279246.430 8
  22666954.427    22666958.575     9185070.266 8   7477971.151 8
  20743271.090    20743277.816   -16172229.646 9 -12246510.216 7
 90  3  3  6 49 14.0800000  0  4G 3G12G11G13
  23220582.049    23220590.303   -57320229.168 8  71954658.025 8
  20719619.464    20719622.101   -42595101.436 8  39269576.174 7
  22673270.612    22673276.434     9218265.978 8   7503837.939 9
  20744433.451    20744439.250   -16166126.917 9 -12241754.832 7
 90  3  3  6 49 29.0800000  0  4G 3G12G11G13
  23214938.926    23214945.036   -57349894.038 9  71931542.565 8
  20717285.978    20717289.388   -42607361.833 9  39260022.616 7
  22679590.882    22679594.836     9251470.417 8   7529711.531 8
  20745608.622    20745613.931   -16159954.623 8 -12236945.249 7
 90  3  3  6 49 44.0800000  0  4G 3G12G11G13
  23209305.615    23209312.033   -57379497.529 8  71908474.927 8
  20714981.798    20714985.823   -42619472.279 8  39250585.920 8
  22685910.493    22685914.112     9284683.408 8   7555591.778 7
  20746796.556    20746800.031   -16153712.887 9 -12232081.545 8
 90  3  3  6 49 59.0800000  0  4G 3G12G11G13
  23203683.305    23203689.093   -57409039.646 8  71885455.113 8
  20712707.123    20712709.259   -42631432.597 8  39241266.194 7
  22692231.529    22692235.820     9317904.767 7   7581478.555 8
  20747997.620    20748000.194   -16147401.764 9 -12227163.775 7
 90  3  3  6 50 14.0800000  0  4G 3G12G11G13
  23198071.451    23198078.162   -57438520.476 8  71862483.059 7
  20710457.546    20710464.405   -42643242.656 8  39232063.545 8
  22698554.432    22698558.179     9351134.323 8   7607371.711 8
  20749212.049    20749214.378   -16141021.579 8 -12222192.194 7
 90  3  3  6 50 29.0800000  0  4G 3G12G11G13
  23192474.242    23192480.009   -57467940.047 7  71839558.745 8
  20708240.022    20708244.935   -42654902.254 8  39222978.155 7
  22704880.684    22704883.507     9384371.906 8   7633271.119 8
  20750438.904    20750441.302   -16134572.626 9 -12217167.014 7
 90  3  3  6 50 44.0800000  0  4G 3G12G11G13
  23186889.698    23186893.786   -57497298.464 9  71816682.089 7
  20706049.285    20706055.657   -42666411.142 8  39214010.180 7
  22711205.111    22711210.596     9417617.261 6   7659176.588 9
  20751678.610    20751680.933   -16128055.055 8 -12212088.374 6
 90  3  3  6 50 59.0800000  0  4G 3G12G11G13
  23181317.702    23181320.517   -57526595.692 9  71793853.108 7
  20703886.365    20703890.047   -42677769.156 8  39205159.802 6
  22717531.498    22717538.371     9450870.442 6   7685088.129 9
  20752931.290    20752934.718   -16121469.243 9 -12206956.570 7
 90  3  3  6 51 14.0800000  0  4G 3G12G11G13
  23175753.408    23175758.320   -57555831.542 9  71771071.935 7
  20701754.667    20701759.466   -42688976.141 9  39196427.082 7
  22723861.970    22723868.214     9484131.083 7   7711005.519 8
  20754196.538    20754200.370   -16114815.454 9 -12201771.789 7
 90  3  3  6 51 29.0800000  0  4G 3G12G11G13
  23170199.520    23170206.224   -57585006.371 8  71748338.312 7
  20699649.098    20699654.125   -42700032.043 8  39187812.085 7
  22730193.351    22730199.087     9517399.038 8   7736928.576 9
  20755474.835    20755480.914   -16108093.827 9 -12196534.157 6
 90  3  3  6 51 44.0800000  0  4G 3G12G11G13
  23164656.128    23164665.948   -57614120.074 8  71725652.332 8
  20697576.499    20697582.083   -42710936.647 7  39179314.992 7
  22736525.240    22736531.355     9550674.123 7   7762857.202 8
  20756767.109    20756772.090   -16101304.419 8 -12191243.699 6
 90  3  3  6 51 59.0800000  0  4G 3G12G11G13
  23159127.726    23159135.292   -57643172.845 8  71703013.848 7
  20695530.484    20695535.182   -42721689.699 8  39170935.997 8
  22742858.653    22742864.983     9583956.248 7   7788791.325 9
  20758072.998    20758076.623   -16094447.470 8 -12185900.616 7
 90  3  3  6 52 14.0800000  0  4G 3G12G11G13
  23153610.048    23153616.909   -57672164.528 8  71680422.950 8
  20693513.633    20693518.087   -42732291.047 8  39162675.198 7
  22749193.068    22749199.555     9617245.175 8   7814730.730 9
  20759390.142    20759395.820   -16087523.308 9 -12180505.173 7
 90  3  3  6 52 29.0800000  0  4G 3G12G11G13
  23148107.455    23148109.183   -57701095.314 8  71657879.521 7
  20691523.253    20691529.224   -42742740.529 8  39154532.738 7
  22755529.472    22755534.793     9650540.737 7   7840675.319 8
  20760721.058    20760726.922   -16080532.236 9 -12175057.597 7
 90  3  3  6 52 44.0800000  0  4G 3G12G11G13
  23142615.623    23142618.210   -57729965.020 9  71635383.631 7
  20689563.666    20689570.253   -42753037.960 7  39146508.763 7
  22761867.149    22761872.713     9683842.878 8   7866625.042 8
  20762063.278    20762069.736   -16073474.073 8 -12169557.727 7
 90  3  3  6 52 59.0800000  0  4G 3G12G11G13
  23137132.634    23137136.941   -57758773.834 8  71612935.196 7
  20687632.182    20687639.428   -42763183.235 8  39138603.338 8
  22768204.110    22768210.926     9717151.431 8   7892579.745 9
  20763421.467    20763424.691   -16066349.312 8 -12164005.970 6
 90  3  3  6 53 14.0800000  0  4G 3G12G11G13
  23131660.191    23131667.961   -57787521.754 8  71590534.211 8
  20685732.065    20685736.177   -42773176.016 8  39130816.772 8
  22774544.965    22774550.092     9750466.331 8   7918539.401 8
  20764789.619    20764792.965   -16059158.102 8 -12158402.394 7
 90  3  3  6 53 29.0800000  0  4G 3G12G11G13
  23126199.803    23126208.421   -57816208.765 8  71568180.725 7
  20683860.882    20683864.477   -42783016.179 9  39123149.126 6
  22780886.505    22780891.225     9783787.301 8   7944503.792 9
  20766170.921    20766172.582   -16051900.624 9 -12152747.217 7
 90  3  3  6 53 44.0800000  0  4G 3G12G11G13
  23120752.348    23120760.093   -57844835.108 8  71545874.514 7
  20682017.629    20682020.223   -42792703.588 8  39115600.507 6
  22787227.480    22787232.386     9817114.151 8   7970472.764 7
  20767565.338    20767566.866   -16044577.273 9 -12147040.698 7
 90  3  3  6 53 59.0800000  0  4G 3G12G11G13
  23115320.181    23115324.413   -57873400.895 8  71523615.511 8
  20680203.395    20680208.522   -42802238.094 8  39108170.995 8
  22793571.997    22793575.859     9850446.795 8   7996446.246 8
  20768970.755    20768973.603   -16037188.117 8 -12141282.924 7
 90  3  3  6 54 14.0800000  0  4G 3G12G11G13
  23109897.734    23109899.548   -57901905.673 8  71501404.005 8
  20678418.038    20678422.950   -42811619.593 8  39100860.744 8
  22799916.457    22799919.453     9883785.101 7   8022424.140 8
  20770388.649    20770391.483   -16029733.256 8 -12135473.928 7
 90  3  3  6 54 29.0800000  0  4G 3G12G11G13
  23104483.683    23104484.846   -57930349.833 8  71479239.743 7
  20676659.753    20676666.955   -42820847.847 8  39093669.891 8
  22806261.483    22806264.843     9917128.856 8   8048406.281 8
  20771818.620    20771823.422   -16022213.128 8 -12129614.080 7
 90  3  3  6 54 44.0800000  0  4G 3G12G11G13
  23099081.992    23099083.877   -57958733.572 8  71457122.532 8
  20674933.148    20674938.834   -42829922.852 8  39086598.461 8
  22812604.432    22812610.375     9950477.865 7   8074392.516 9
  20773261.677    20773266.157   -16014627.829 8 -12123703.472 7
 90  3  3  6 54 59.0800000  0  4G 3G12G11G13
  23093689.433    23093695.654   -57987056.711 8  71435052.541 8
  20673236.250    20673240.003   -42838844.403 8  39079646.603 7
  22818953.993    22818956.660     9983832.034 8   8100382.765 8
  20774717.480    20774721.169   -16006977.579 8 -12117742.240 7
 90  3  3  6 55 14.0800000  0  4G 3G12G11G13
  23088310.143    23088318.628   -58015319.405 8  71413029.656 7
  20671569.000    20671570.851   -42847612.307 8  39072814.482 7
  22825302.123    22825305.899    10017191.337 7   8126377.017 8
  20776185.510    20776189.167   -15999262.595 9 -12111730.551 7
 90  3  3  6 55 29.0800000  0  4G 3G12G11G13
  23082943.248    23082952.592   -58043521.617 7  71391053.911 7
  20669929.396    20669931.547   -42856226.496 8  39066102.133 7
  22831651.062    22831654.723    10050555.452 8   8152375.033 8
  20777665.389    20777670.444   -15991483.281 8 -12105668.755 7
 90  3  3  6 55 44.0800000  0  4G 3G12G11G13
  23077592.294    23077597.491   -58071663.507 8  71369125.202 8
  20668319.469    20668322.407   -42864686.913 9  39059509.617 7
  22837998.855    22838004.363    10083924.411 8   8178376.816 9
  20779159.451    20779162.195   -15983639.617 9 -12099556.798 8
 90  3  3  6 55 59.0800000  0  4G 3G12G11G13
  23072250.340    23072253.201   -58099745.043 8  71347243.492 8
  20666737.931    20666741.685   -42872993.318 8  39053037.081 7
  22844349.769    22844356.134    10117297.884 8   8204382.109 9
  20780663.966    20780668.152   -15975731.939 9 -12093394.994 7
 90  3  3  6 56 14.0800000  0  4G 3G12G11G13
  23066917.726    23066920.595   -58127766.071 9  71325408.923 8
  20665186.157    20665192.386   -42881145.507 8  39046684.728 7
  22850701.340    22850707.699    10150675.717 8   8230390.803 9
  20782181.624    20782186.533   -15967760.345 8 -12087183.364 7
 90  3  3  6 56 29.0800000  0  4G 3G12G11G13
  23061595.719    23061598.137   -58155726.784 8  71303621.366 7
  20663665.662    20663669.702   -42889143.311 8  39040452.680 8
  22857054.664    22857059.892    10184057.726 8   8256402.783 9
  20783710.912    20783715.620   -15959725.183 8 -12080922.185 8
 90  3  3  6 56 44.0800000  0  4G 3G12G11G13
  23056284.072    23056288.099   -58183627.272 8  71281880.719 8
  20662172.870    20662177.168   -42896986.770 8  39034340.893 7
  22863407.473    22863412.937    10217443.886 8   8282417.954 9
  20785252.259    20785257.189   -15951626.439 9 -12074611.481 7
 90  3  3  6 56 59.0800000  0  4G 3G12G11G13
  23050984.680    23050990.475   -58211467.525 8  71260187.013 8
  20660709.241    20660712.994   -42904675.835 8  39028349.421 8
  22869761.241    22869766.161    10250833.975 8   8308436.203 9
  20786804.796    20786810.159   -15943464.516 8 -12068251.532 7
 90  3  3  6 57 14.0800000  0  4G 3G12G11G13
  23045699.974    23045705.311   -58239247.639 9  71238540.189 7
  20659275.632    20659278.498   -42912210.207 8  39022478.475 8
  22876116.218    22876122.576    10284227.950 8   8334457.478 8
  20788369.917    20788374.243   -15935239.699 8 -12061842.560 6
 90  3  3  6 57 29.0800000  0  4G 3G12G11G13
  23040428.113    23040430.910   -58266967.806 8  71216940.082 8
  20657870.927    20657875.439   -42919589.792 8  39016728.153 7
  22882471.510    22882477.138    10317625.508 7   8360481.546 9
  20789947.831    20789951.491   -15926952.019 9 -12055384.620 7
 90  3  3  6 57 44.0800000  0  4G 3G12G11G13
  23035166.122    23035168.126   -58294627.855 9  71195386.825 8
  20656495.986    20656498.881   -42926814.277 9  39011098.686 7
  22888827.124    22888834.640    10351026.565 8   8386508.334 8
  20791536.062    20791539.168   -15918601.512 8 -12048877.747 7
 90  3  3  6 57 59.0800000  0  4G 3G12G11G13
  23029912.778    23029915.844   -58322227.814 9  71173880.344 8
  20655151.465    20655156.192   -42933883.660 9  39005590.085 7
  22895184.541    22895190.420    10384431.152 8   8412537.877 8
  20793136.878    20793141.018   -15910188.665 8 -12042322.280 7
 90  3  3  6 58 14.0800000  0  4G 3G12G11G13
  23024670.359    23024673.871   -58349768.071 8  71152420.405 8
  20653836.279    20653841.178   -42940797.824 8  39000202.419 8
  22901542.494    22901547.106    10417838.997 9   8438569.959 8
  20794748.068    20794753.453   -15901713.780 9 -12035718.472 8
 90  3  3  6 58 29.0800000  0  4G 3G12G11G13
  23019438.632    23019444.091   -58377248.285 8  71131007.248 8
  20652548.796    20652554.381   -42947556.619 8  38994935.827 8
  22907901.277    22907904.659    10451249.907 8   8464604.434 8
  20796372.412    20796377.463   -15893177.034 9 -12029066.458 7
 90  3  3  6 58 44.0800000  0  4G 3G12G11G13
  23014220.943    23014225.850   -58404668.743 8  71109640.675 7
  20651292.105    20651297.490   -42954160.020 7  38989790.317 8
  22914259.566    22914263.535    10484663.643 9   8490641.115 8
  20798009.960    20798013.616   -15884578.517 9 -12022366.320 7
 90  3  3  6 58 59.0800000  0  4G 3G12G11G13
  23009016.060    23009018.728   -58432029.532 9  71088320.563 7
  20650065.836    20650069.590   -42960607.914 8  38984765.982 7
  22920616.890    22920621.753    10518080.141 8   8516679.929 8
  20799658.171    20799661.831   -15875918.453 8 -12015618.219 6
 90  3  3  6 59 14.0800000  0  4G 3G12G11G13
  23003821.025    23003824.986   -58459330.474 8  71067047.097 7
  20648868.013    20648871.668   -42966900.147 8  38979862.958 8
  22926976.625    22926981.166    10551499.414 8   8542720.918 7
  20801317.955    20801319.527   -15867196.985 9 -12008822.243 7
 90  3  3  6 59 29.0800000  0  4G 3G12G11G13
  22998638.644    22998642.915   -58486571.783 9  71045820.089 8
  20647701.471    20647703.708   -42973036.612 8  38975081.313 6
  22933336.968    22933342.482    10584921.261 8   8568763.900 8
  20802989.662    20802990.139   -15858414.434 8 -12001978.692 7
 90  3  3  6 59 44.0800000  0  4G 3G12G11G13
  22993463.263    22993471.319   -58513753.522 7  71024639.503 8
  20646562.917    20646565.054   -42979017.159 8  38970421.164 7
  22939696.602    22939702.488    10618345.450 8   8594808.725 8
  20804672.538    20804673.669   -15849571.181 8 -11995087.848 7
 90  3  3  6 59 59.0800000  0  4G 3G12G11G13
  22988302.256    22988310.040   -58540875.808 8  71003505.261 8
  20645454.671    20645458.796   -42984841.624 8  38965882.598 8
  22946056.945    22946063.247    10651771.987 9   8620855.372 8
  20806366.964    20806368.533   -15840667.121 8 -11988149.607 7
 90  3  3  7  0 14.0800000  0  4G 3G12G11G13
  22983151.118    22983160.041   -58567938.471 8  70982417.493 7
  20644376.159    20644380.513   -42990509.944 8  38961465.713 8
  22952419.706    22952424.212    10685200.589 8   8646903.637 8
  20808072.846    20808074.875   -15831702.690 8 -11981164.324 7
 90  3  3  7  0 29.0800000  0  4G 3G12G11G13
  22978013.654    22978019.070   -58594941.699 9  70961376.054 7
  20643325.263    20643332.336   -42996022.053 8  38957170.554 8
  22958780.586    22958786.107    10718631.039 8   8672953.331 8
  20809789.885    20809792.085   -15822677.956 8 -11974132.061 8
 90  3  3  7  0 44.0800000  0  4G 3G12G11G13
  22972888.294    22972891.073   -58621885.545 7  70940380.863 8
  20642307.336    20642311.219   -43001377.725 8  38952997.320 7
  22965142.868    22965147.731    10752063.196 8   8699004.344 8
  20811517.634    20811521.830   -15813592.928 9 -11967052.814 7
 90  3  3  7  0 59.0800000  0  4G 3G12G11G13
  22967772.379    22967774.253   -58648770.080 8  70919431.869 7
  20641317.684    20641321.237   -43006576.929 8  38948945.990 8
  22971504.692    22971511.057    10785496.976 9   8725056.651 7
  20813258.862    20813260.756   -15804448.086 9 -11959926.960 8
 90  3  3  7  1 14.0800000  0  4G 3G12G11G13
  22962668.218    22962668.372   -58675595.209 8  70898529.173 7
  20640358.597    20640363.065   -43011619.539 8  38945016.696 7
  22977867.567    22977871.171    10818932.344 8   8751110.198 7
  20815009.359    20815014.165   -15795243.922 9 -11952754.885 6
 90  3  3  7  1 29.0800000  0  4G 3G12G11G13
  22957573.770    22957576.936   -58702361.165 9  70877672.580 7
  20639429.358    20639434.027   -43016505.648 8  38941209.353 8
  22984230.686    22984234.075    10852369.131 8   8777164.817 8
  20816772.746    20816777.751   -15785980.498 8 -11945536.633 8
 90  3  3  7  1 44.0800000  0  4G 3G12G11G13
  22952489.543    22952495.975   -58729067.962 8  70856862.088 7
  20638528.594    20638532.906   -43021234.804 8  38937524.302 7
  22990592.897    22990598.754    10885807.312 7   8803220.538 8
  20818545.369    20818552.753   -15776657.617 8 -11938272.061 6
 90  3  3  7  1 59.0800000  0  4G 3G12G11G13
  22947417.975    22947425.892   -58755715.672 8  70836097.643 6
  20637657.165    20637662.607   -43025807.016 7  38933961.528 7
  22996956.902    22996960.957    10919246.719 8   8829277.215 8
  20820330.387    20820337.431   -15767275.636 8 -11930961.412 7
 90  3  3  7  2 14.0800000  0  4G 3G12G11G13
  22942360.041    22942365.815   -58782304.366 8  70815379.205 8
  20636815.413    20636821.928   -43030222.124 8  38930521.177 7
  23003318.991    23003324.484    10952687.111 7   8855334.659 7
  20822127.045    20822133.353   -15757834.795 8 -11923604.899 7
 90  3  3  7  2 29.0800000  0  4G 3G12G11G13
  22937312.555    22937317.814   -58808834.065 9  70794706.732 8
  20636006.314    20636010.997   -43034480.133 7  38927203.251 7
  23009682.339    23009688.805    10986128.385 8   8881392.778 9
  20823934.411    20823940.089   -15748335.555 7 -11916202.884 7
 90  3  3  7  2 44.0800000  0  4G 3G12G11G13
  22932275.659    22932279.401   -58835304.967 9  70774080.076 7
  20635227.808    20635230.760   -43038580.888 7  38924007.867 7
  23016047.483    23016052.697    11019570.443 8   8907451.520 8
  20825754.755    20825758.630   -15738777.964 8 -11908755.391 7
 90  3  3  7  2 59.0800000  0  4G 3G12G11G13
  22927249.723    22927252.929   -58861716.868 9  70753499.373 8
  20634477.778    20634480.973   -43042524.342 8  38920935.056 7
  23022410.945    23022416.316    11053013.258 7   8933510.836 8
  20827584.647    20827588.339   -15729162.405 9 -11901262.746 6
 90  3  3  7  3 14.0800000  0  4G 3G12G11G13
  22922234.248    22922237.668   -58888069.976 9  70732964.492 8
  20633756.709    20633760.763   -43046310.454 8  38917984.826 8
  23028777.055    23028780.723    11086456.516 6   8959570.515 7
  20829425.807    20829430.007   -15719488.903 8 -11893724.925 6
 90  3  3  7  3 29.0800000  0  4G 3G12G11G13
  22917229.526    22917234.030   -58914364.208 8  70712475.476 6
  20633065.861    20633071.046   -43049939.111 9  38915157.286 7
  23035139.601    23035144.228    11119900.155 7   8985630.480 8
  20831278.615    20831280.873   -15709757.572 9 -11886142.045 6
 90  3  3  7  3 44.0800000  0  4G 3G12G11G13
  22912238.090    22912242.336   -58940599.763 9  70692032.193 7
  20632404.490    20632410.905   -43053410.241 8  38912452.501 7
  23041502.821    23041509.086    11153344.147 6   9011690.709 9
  20833143.263    20833144.091   -15699968.478 8 -11878514.163 7
 90  3  3  7  3 59.0800000  0  4G 3G12G11G13
  22907256.999    22907262.226   -58966776.801 8  70671634.521 7
  20631776.003    20631778.325   -43056723.824 8  38909870.500 8
  23047868.293    23047873.235    11186788.187 7   9037750.979 8
  20835015.686    20835017.361   -15690122.094 8 -11870841.650 7
 90  3  3  7  4 14.0800000  0  4G 3G12G11G13
  22902287.199    22902293.090   -58992895.188 8  70651282.558 8
  20631175.359    20631178.812   -43059879.742 8  38907411.342 7
  23054233.336    23054237.284    11220232.164 7   9063811.213 9
  20836901.194    20836900.862   -15680218.569 9 -11863124.613 6
 90  3  3  7  4 29.0800000  0  4G 3G12G11G13
  22897329.465    22897333.629   -59018955.110 8  70630976.147 8
  20630605.196    20630609.379   -43062877.880 9  38905075.120 7
  23060597.064    23060601.304    11253675.959 7   9089871.312 8
  20838794.815    20838796.883   -15670258.432 8 -11855363.466 7
 90  3  3  7  4 44.0800000  0  4G 3G12G11G13
  22892380.251    22892385.653   -59044956.684 8  70610715.192 8
  20630063.679    20630068.806   -43065718.085 8  38902861.981 7
  23066960.089    23066965.675    11287119.535 7   9115931.219 8
  20840700.775    20840703.398   -15660241.781 9 -11847558.298 6
 90  3  3  7  4 59.0800000  0  4G 3G12G11G13
  22887442.410    22887447.600   -59070899.867 8  70590499.736 8
  20629551.754    20629557.968   -43068400.265 8  38900771.968 8
  23073325.805    23073329.116    11320562.668 7   9141990.789 8
  20842617.541    20842620.583   -15650168.675 9 -11839709.128 6
 90  3  3  7  5 14.0800000  0  4G 3G12G11G13
  22882516.128    22882520.256   -59096784.720 9  70570329.726 8
  20629070.879    20629078.740   -43070924.462 7  38898805.059 8
  23079688.073    23079693.830    11354005.219 6   9168049.904 8
  20844544.170    20844547.441   -15640039.285 8 -11831816.089 5
 90  3  3  7  5 29.0800000  0  4G 3G12G11G13
  22877600.444    22877605.230   -59122611.255 8  70550205.177 8
  20628623.145    20628628.229   -43073290.480 8  38896961.421 8
  23086052.523    23086057.314    11387447.263 8   9194108.633 9
  20846482.346    20846486.347   -15629853.827 8 -11823879.382 7
 90  3  3  7  5 44.0800000  0  4G 3G12G11G13
  22872696.544    22872701.728   -59148379.573 8  70530125.984 8
  20628203.342    20628208.254   -43075498.206 8  38895241.116 7
  23092417.094    23092420.612    11420888.597 7   9220166.813 9
  20848431.133    20848436.471   -15619612.358 9 -11815899.019 7
 90  3  3  7  5 59.0800000  0  4G 3G12G11G13
  22867806.511    22867809.398   -59174089.880 8  70510091.992 8
  20627813.102    20627817.384   -43077547.478 7  38893644.286 8
  23098778.854    23098784.468    11454329.095 7   9246224.326 7
  20850389.908    20850394.549   -15609315.181 8 -11807875.229 7
 90  3  3  7  6 14.0800000  0  4G 3G12G11G13
  22862926.189    22862928.400   -59199742.004 8  70490103.335 8
  20627452.567    20627457.165   -43079438.376 7  38892170.850 8
  23105143.060    23105147.623    11487768.642 8   9272281.104 9
  20852360.245    20852365.858   -15598962.477 9 -11799808.186 7
 90  3  3  7  6 29.0800000  0  4G 3G12G11G13
  22858057.303    22858059.601   -59225336.065 9  70470159.913 8
  20627122.197    20627127.353   -43081170.911 7  38890820.809 7
  23111506.701    23111510.927    11521207.167 7   9298337.078 8
  20854341.628    20854343.117   -15588554.510 9 -11791698.055 7
 90  3  3  7  6 44.0800000  0  4G 3G12G11G13
  22853196.403    22853199.719   -59250872.142 9  70450261.667 6
  20626822.105    20626827.847   -43082745.000 7  38889594.237 7
  23117869.698    23117872.994    11554644.368 8   9324392.034 8
  20856331.933    20856333.719   -15578091.691 9 -11783545.208 7
 90  3  3  7  6 59.0800000  0  4G 3G12G11G13
  22848347.498    22848351.468   -59276350.519 9  70430408.406 7
  20626553.779    20626556.903   -43084160.564 8  38888491.190 7
  23124230.792    23124236.213    11588080.202 6   9350445.914 8
  20858332.659    20858337.102   -15567574.069 8 -11775349.639 6
 90  3  3  7  7 14.0800000  0  4G 3G12G11G13
  22843508.054    22843514.883   -59301771.139 9  70410600.130 8
  20626316.104    20626317.940   -43085417.461 8  38887511.801 7
  23130594.269    23130599.132    11621514.504 8   9376498.626 8
  20860345.243    20860349.511   -15557002.040 9 -11767111.692 8
 90  3  3  7  7 29.0800000  0  4G 3G12G11G13
  22838681.399    22838687.977   -59327133.868 9  70390836.997 8
  20626108.162    20626109.655   -43086515.591 9  38886656.107 7
  23136956.651    23136960.548    11654947.350 8   9402550.183 8
  20862367.060    20862371.790   -15546375.436 8 -11758831.219 7
 90  3  3  7  7 44.0800000  0  4G 3G12G11G13
  22833867.203    22833870.573   -59352439.006 9  70371118.742 8
  20625928.153    20625931.592   -43087455.066 9  38885924.037 8
  23143318.712    23143322.716    11688378.354 8   9428600.307 9
  20864400.153    20864404.597   -15535694.510 9 -11750508.428 6
 90  3  3  7  7 59.0800000  0  4G 3G12G11G13
  22829063.912    22829067.381   -59377686.483 8  70351445.399 8
  20625778.765    20625784.322   -43088235.809 7  38885315.665 7
  23149679.762    23149684.074    11721807.590 8   9454649.043 9
  20866443.180    20866447.517   -15524959.836 8 -11742143.725 7
 90  3  3  7  8 14.0800000  0  4G 3G12G11G13
  22824268.980    22824271.233   -59402876.466 8  70331816.881 8
  20625659.112    20625667.015   -43088857.574 7  38884831.161 7
  23156042.101    23156045.433    11755234.844 7   9480696.264 9
  20868496.950    20868500.757   -15514171.468 8 -11733737.217 7
 90  3  3  7  8 29.0800000  0  4G 3G12G11G13
  22819486.029    22819490.833   -59428009.158 9  70312232.963 7
  20625571.311    20625577.154   -43089320.356 8  38884470.551 8
  23162400.713    23162405.075    11788660.047 7   9506741.857 9
  20870559.184    20870563.417   -15503329.458 8 -11725288.893 6
 90  3  3  7  8 44.0800000  0  4G 3G12G11G13
  22814713.481    22814718.371   -59453084.387 8  70292693.865 7
  20625513.645    20625519.545   -43089624.145 8  38884233.830 7
  23168761.507    23168765.654    11822083.092 7   9532785.776 8
  20872631.957    20872636.486   -15492434.229 8 -11716799.095 7
 90  3  3  7  8 59.0800000  0  4G 3G12G11G13
  22809953.131    22809958.944   -59478102.287 8  70273199.433 8
  20625487.374    20625489.696   -43089768.906 9  38884121.052 7
  23175121.935    23175126.434    11855503.939 7   9558827.985 7
  20874716.813    20874721.382   -15481485.860 9 -11708267.889 7
 90  3  3  7  9 14.0800000  0  4G 3G12G11G13
  22805202.894    22805208.822   -59503062.553 8  70253749.921 7
  20625490.895    20625493.832   -43089754.320 8  38884132.411 7
  23181480.640    23181485.345    11888922.768 7   9584868.608 9
  20876810.319    20876812.291   -15470483.938 8 -11699694.968 6
 90  3  3  7  9 29.0800000  0  4G 3G12G11G13
  22800464.194    22800469.184   -59527966.078 8  70234344.604 8
  20625523.519    20625527.516   -43089581.059 8  38884267.410 8
  23187839.030    23187843.156    11922338.618 7   9610906.921 9
  20878914.257    20878917.707   -15459429.637 9 -11691081.221 7
 90  3  3  7  9 44.0800000  0  4G 3G12G11G13
  22795737.199    22795741.131   -59552812.752 7  70214983.603 8
  20625585.707    20625591.264   -43089248.666 7  38884526.412 7
  23194198.614    23194202.769    11955751.703 6   9636943.080 9
  20881028.393    20881029.435   -15448322.871 9 -11682426.590 8
 90  3  3  7  9 59.0800000  0  4G 3G12G11G13
  22791019.619    22791023.740   -59577602.308 8  70195667.102 8
  20625679.118    20625684.560   -43088757.006 8  38884909.508 7
  23200556.818    23200560.543    11989162.054 8   9662977.100 9
  20883150.673    20883153.177   -15437163.859 8 -11673731.262 7
 90  3  3  7 10 14.0800000  0  4G 3G12G11G13
  22786312.428    22786316.503   -59602334.819 7  70176395.045 8
  20625802.950    20625807.734   -43088105.987 7  38885416.788 7
  23206913.434    23206916.987    12022569.686 7   9689009.016 8
  20885284.531    20885286.821   -15425952.699 8 -11664995.289 7
 90  3  3  7 10 29.0800000  0  4G 3G12G11G13
  22781616.065    22781621.618   -59627010.436 8  70157167.313 8
  20625958.777    20625961.428   -43087295.682 7  38886048.202 8
  23213270.449    23213274.768    12055974.229 7   9715038.524 9
  20887427.243    20887430.585   -15414689.484 9 -11656218.758 6
 90  3  3  7 10 44.0800000  0  4G 3G12G11G13
  22776931.902    22776935.329   -59651629.215 9  70137983.883 7
  20626143.652    20626145.431   -43086326.077 9  38886803.739 7
  23219626.679    23219630.067    12089375.742 8   9741065.669 9
  20889579.628    20889583.714   -15403374.539 8 -11647401.918 7
 90  3  3  7 10 59.0800000  0  4G 3G12G11G13
  22772256.742    22772262.501   -59676191.344 8  70118844.572 6
  20626357.603    20626362.759   -43085197.280 8  38887683.310 8
  23225981.584    23225986.268    12122774.169 8   9767090.388 9
  20891742.803    20891746.864   -15392008.184 9 -11638545.024 6
 90  3  3  7 11 14.0800000  0  4G 3G12G11G13
  22767594.632    22767601.146   -59700696.771 8  70099749.476 7
  20626602.663    20626607.289   -43083909.057 8  38888687.122 8
  23232337.197    23232340.880    12156169.357 8   9793112.613 9
  20893913.943    20893919.614   -15380590.406 8 -11629648.047 7
 90  3  3  7 11 29.0800000  0  4G 3G12G11G13
  22762944.022    22762947.389   -59725145.492 8  70080698.557 7
  20626878.544    20626883.142   -43082461.301 8  38889815.249 7
  23238690.557    23238695.227    12189561.198 8   9819132.220 9
  20896097.179    20896101.329   -15369121.651 8 -11620711.350 8
 90  3  3  7 11 44.0800000  0  4G 3G12G11G13
  22758302.400    22758305.583   -59749537.726 8  70061691.656 8
  20627183.960    20627187.956   -43080854.074 8  38891067.623 7
  23245044.976    23245048.916    12222949.528 8   9845149.098 9
  20898288.961    20898293.859   -15357602.057 8 -11611735.048 7
 90  3  3  7 11 59.0800000  0  4G 3G12G11G13
  22753671.365    22753673.916   -59773873.576 8  70042728.688 7
  20627519.825    20627523.064   -43079087.305 8  38892444.317 7
  23251397.642    23251401.883    12256334.230 8   9871163.161 9
  20900491.747    20900495.689   -15346031.585 8 -11602719.101 6
 90  3  3  7 12 14.0800000  0  4G 3G12G11G13
  22749050.616    22749052.759   -59798153.195 8  70023809.524 7
  20627885.969    20627889.194   -43077161.098 8  38893945.266 7
  23257750.265    23257753.662    12289715.194 8   9897174.287 9
  20902703.261    20902706.367   -15334410.647 8 -11593663.809 6
 90  3  3  7 12 29.0800000  0  4G 3G12G11G13
  22744440.062    22744443.407   -59822376.397 9  70004934.338 7
  20628283.021    20628287.117   -43075075.401 8  38895570.467 7
  23264100.900    23264105.147    12323092.448 7   9923182.526 9
  20904925.471    20904928.839   -15322739.337 8 -11584569.273 6
 90  3  3  7 12 44.0800000  0  4G 3G12G11G13
  22739840.809    22739844.998   -59846543.366 8  69986102.954 8
  20628711.238    20628715.106   -43072830.058 8  38897320.084 7
  23270450.490    23270456.139    12356465.670 8   9949187.624 9
  20907156.468    20907159.413   -15311018.102 9 -11575435.849 7
 90  3  3  7 12 59.0800000  0  4G 3G12G11G13
  22735253.050    22735256.709   -59870654.146 8  69967315.372 7
  20629168.474    20629172.671   -43070425.164 8  38899194.016 7
  23276800.580    23276806.394    12389834.891 8   9975189.593 9
  20909395.374    20909397.910   -15299246.749 9 -11566263.371 6
 90  3  3  7 13 14.0800000  0  4G 3G12G11G13
  22730676.709    22730679.478   -59894708.958 8  69948571.399 8
  20629655.302    20629661.430   -43067860.699 8  38901192.295 7
  23283149.081    23283155.662    12423199.984 7  10001188.373 9
  20911644.242    20911648.349   -15287425.779 9 -11557052.220 7
 90  3  3  7 13 29.0800000  0  4G 3G12G11G13
  22726109.697    22726112.760   -59918707.650 8  69929871.156 7
  20630174.897    20630178.880   -43065136.613 9  38903314.979 7
  23289497.870    23289504.278    12456560.914 9  10027183.884 9
  20913902.955    20913905.603   -15275555.383 9 -11547802.547 7
 90  3  3  7 13 44.0800000  0  4G 3G12G11G13
  22721552.796    22721556.652   -59942650.576 9  69911214.348 9
  20630723.483    20630727.823   -43062252.966 8  38905561.963 7
  23295846.143    23295851.685    12489917.405 8  10053175.945 9
  20916170.458    20916175.156   -15263635.751 8 -11538514.533 7
 90  3  3  7 13 59.0800000  0  4G 3G12G11G13
  22717006.719    22717012.425   -59966537.630 9  69892601.098 8
  20631303.149    20631307.389   -43059209.555 9  38907933.452 7
  23302191.297    23302198.807    12523269.557 8  10079164.626 9
  20918447.526    20918451.470   -15251666.962 8 -11529188.193 7
 90  3  3  7 14 14.0800000  0  4G 3G12G11G13
  22712472.090    22712476.493   -59990368.996 9  69874031.232 7
  20631912.406    20631917.361   -43056006.435 8  38910429.392 7
  23308537.652    23308544.984    12556617.255 7  10105149.833 9
  20920734.768    20920739.026   -15239649.180 8 -11519823.691 7
 90  3  3  7 14 29.0800000  0  4G 3G12G11G13
  22707947.741    22707952.034   -60014144.594 8  69855504.824 8
  20632551.884    20632556.882   -43052643.612 9  38913049.759 8
  23314882.942    23314889.844    12589960.401 8  10131131.494 8
  20923032.610    20923035.748   -15227582.699 8 -11510421.221 7
 90  3  3  7 14 44.0800000  0  4G 3G12G11G13
  22703433.731    22703438.039   -60037864.677 9  69837021.664 7
  20633220.524    20633226.782   -43049121.047 8  38915794.602 8
  23321227.244    23321235.105    12623298.872 8  10157109.506 9
  20925337.764    20925341.618   -15215467.729 8 -11500980.997 7
 90  3  3  7 14 59.0800000  0  4G 3G12G11G13
  22698931.319    22698935.426   -60061529.200 9  69818581.788 8
  20633923.163    20633925.199   -43045438.885 8  38918663.820 7
  23327571.332    23327577.125    12656632.482 8  10183083.748 9
  20927651.575    20927656.068   -15203304.442 9 -11491503.127 7
 90  3  3  7 15 14.0800000  0  4G 3G12G11G13
  22694438.236    22694442.254   -60085138.191 9  69800185.196 7
  20634654.677    20634657.257   -43041597.100 8  38921657.413 7
  23333914.146    23333918.930    12689961.181 8  10209054.151 9
  20929976.174    20929979.431   -15191093.079 8 -11481987.781 6
 90  3  3  7 15 29.0800000  0  4G 3G12G11G13
  22689953.932    22689958.615   -60108691.829 9  69781831.734 7
  20635415.526    20635419.251   -43037595.513 9  38924775.538 7
  23340256.760    23340259.856    12723284.956 9  10235020.717 9
  20932308.018    20932313.238   -15178833.681 9 -11472434.996 7
 90  3  3  7 15 44.0800000  0  4G 3G12G11G13
  22685483.776    22685487.998   -60132190.198 8  69763521.342 8
  20636207.511    20636211.136   -43033434.213 8  38928018.111 8
  23346595.625    23346600.037    12756603.558 7  10260983.255 9
  20934649.603    20934653.571   -15166526.680 9 -11462845.118 6
 90  3  3  7 15 59.0800000  0  4G 3G12G11G13
  22681022.714    22681026.889   -60155633.388 9  69745253.945 8
  20637028.916    20637035.332   -43029113.217 8  38931385.105 7
  23352934.525    23352939.403    12789917.038 8  10286941.802 9
  20937001.273    20937005.538   -15154172.212 9 -11453218.267 7
 90  3  3  7 16 14.0800000  0  4G 3G12G11G13
  22676572.409    22676577.063   -60179021.433 8  69727029.506 9
  20637881.945    20637888.102   -43024632.620 8  38934876.484 8
  23359272.310    23359277.387    12823225.244 8  10312896.237 9
  20939360.733    20939365.441   -15141770.282 8 -11443554.420 7
 90  3  3  7 16 29.0800000  0  4G 3G12G11G13
  22672132.796    22672136.810   -60202354.375 9  69708848.023 8
  20638765.967    20638771.008   -43019992.294 9  38938492.312 7
  23365609.436    23365614.864    12856528.061 7  10338846.482 9
  20941729.570    20941733.548   -15129321.140 8 -11433853.774 6
 90  3  3  7 16 44.0800000  0  4G 3G12G11G13
  22667704.022    22667707.453   -60225632.511 8  69690709.238 8
  20639678.836    20639683.248   -43015192.270 8  38942232.589 7
  23371945.346    23371951.268    12889825.472 8  10364792.492 9
  20944108.147    20944112.480   -15116825.197 8 -11424116.685 7
 90  3  3  7 16 59.0800000  0  4G 3G12G11G13
  22663283.201    22663287.365   -60248855.783 9  69672613.220 7
  20640623.329    20640627.197   -43010232.665 8  38946097.221 8
  23378279.939    23378285.675    12923117.292 8  10390734.174 9
  20946496.423    20946498.818   -15104282.450 9 -11414343.087 7
 90  3  3  7 17 14.0800000  0  4G 3G12G11G13
  22658874.693    22658878.774   -60272024.100 8  69654560.017 7
  20641597.299    20641600.108   -43005113.445 8  38950086.214 7
  23384613.324    23384619.990    12956403.511 7  10416671.476 9
  20948892.351    20948895.028   -15091693.116 8 -11404533.210 7
 90  3  3  7 17 29.0800000  0  4G 3G12G11G13
  22654475.375    22654480.318   -60295137.486 8  69636549.615 7
  20642599.687    20642604.770   -42999834.585 8  38954199.601 7
  23390947.989    23390952.394    12989684.010 8  10442604.318 9
  20951297.154    20951299.730   -15079057.549 9 -11394687.297 8
 90  3  3  7 17 44.0800000  0  4G 3G12G11G13
  22650087.987    22650091.575   -60318196.470 8  69618581.608 7
  20643634.356    20643639.554   -42994396.145 8  38958437.338 7
  23397278.991    23397284.899    13022958.683 8  10468532.618 9
  20953710.342    20953714.982   -15066375.912 9 -11384805.523 8
 90  3  3  7 17 59.0800000  0  4G 3G12G11G13
  22645710.858    22645713.853   -60341200.882 9  69600656.105 8
  20644700.763    20644705.175   -42988798.072 8  38962799.467 7
  23403610.716    23403615.686    13056227.346 8  10494456.242 8
  20956132.062    20956135.815   -15053648.308 9 -11374887.905 7
 90  3  3  7 18 14.0800000  0  4G 3G12G11G13
  22641344.148    22641347.854   -60364150.842 8  69582773.045 7
  20645796.046    20645800.300   -42983040.289 7  38967286.064 7
  23409941.138    23409945.042    13089489.992 8  10520375.171 9
  20958561.988    20958566.339   -15040874.821 9 -11364934.554 7
 90  3  3  7 18 29.0800000  0  4G 3G12G11G13
  22636987.936    22636989.900   -60387046.330 9  69564932.404 7
  20646922.895    20646926.348   -42977122.929 8  38971896.986 7
  23416270.358    23416274.856    13122746.605 8  10546289.407 9
  20961001.784    20961005.720   -15028055.737 8 -11354945.659 7
 90  3  3  7 18 44.0800000  0  4G 3G12G11G13
  22632639.287    22632645.275   -60409887.622 9  69547134.004 8
  20648079.335    20648083.304   -42971045.968 8  38976632.275 7
  23422596.932    23422601.508    13155997.018 8  10572198.826 9
  20963450.159    20963454.116   -15015191.338 9 -11344921.449 7
 90  3  3  7 18 59.0800000  0  4G 3G12G11G13
  22628303.788    22628308.510   -60432674.571 8  69529377.956 7
  20649266.999    20649270.637   -42964809.627 8  38981491.760 8
  23428924.134    23428926.901    13189241.153 8  10598103.334 8
  20965905.841    20965908.433   -15002281.931 8 -11334862.162 7
 90  3  3  7 19 14.0800000  0  4G 3G12G11G13
  22623977.171    22623984.283   -60455407.380 8  69511664.084 7
  20650483.709    20650488.135   -42958413.719 8  38986475.585 7
  23435248.676    23435252.086    13222479.052 7  10624002.978 8
  20968370.353    20968373.323   -14989327.278 8 -11324767.621 7
 90  3  3  7 19 29.0800000  0  4G 3G12G11G13
  22619661.583    22619667.431   -60478086.050 8  69493992.411 7
  20651730.899    20651734.895   -42951858.254 8  38991583.724 8
  23441571.671    23441576.427    13255710.479 9  10649897.589 8
  20970844.910    20970848.041   -14976327.793 8 -11314638.125 7
 90  3  3  7 19 44.0800000  0  4G 3G12G11G13
  22615357.074    22615361.982   -60500710.784 9  69476362.778 7
  20653009.626    20653011.576   -42945143.440 8  38996816.047 7
  23447895.433    23447898.651    13288935.401 9  10675787.140 8
  20973326.395    20973330.986   -14963283.678 8 -11304473.876 7
 90  3  3  7 19 59.0800000  0  4G 3G12G11G13
  22611062.875    22611066.098   -60523281.581 8  69458775.180 8
  20654316.770    20654320.223   -42938269.195 7  39002172.603 6
  23454215.224    23454219.142    13322153.772 9  10701671.577 8
  20975816.689    20975823.111   -14950195.151 8 -11294275.026 7
 90  3  3  7 20 14.0800000  0  4G 3G12G11G13
  22606777.830    22606781.872   -60545798.594 8  69441229.464 8
  20655655.968    20655657.976   -42931235.514 8  39007653.398 7
  23460535.344    23460539.262    13355365.410 8  10727550.750 8
  20978315.671    20978320.522   -14937062.524 9 -11284041.805 8
 90  3  3  7 20 29.0800000  0  4G 3G12G11G13
  22602502.633    22602505.957   -60568262.000 8  69423725.548 8
  20657024.957    20657028.396   -42924042.439 7  39013258.392 8
  23466853.682    23466858.588    13388570.208 9  10753424.618 9
  20980824.302    20980828.248   -14923885.669 9 -11273774.115 7
 90  3  3  7 20 44.0800000  0  4G 3G12G11G13
  22598238.337    22598242.558   -60590671.688 9  69406263.464 7
  20658423.481    20658427.220   -42916689.983 8  39018987.581 6
  23473171.090    23473176.596    13421768.217 7  10779293.183 9
  20983340.122    20983344.043   -14910664.970 9 -11263472.271 8
 90  3  3  7 20 59.0800000  0  4G 3G12G11G13
  22593983.008    22593986.592   -60613027.855 9  69388843.111 7
  20659851.195    20659856.909   -42909178.151 7  39024840.938 7
  23479487.311    23479493.225    13454959.345 9  10805156.386 8
  20985863.047    20985868.704   -14897400.526 8 -11253136.340 8
 90  3  3  7 21 14.0800000  0  4G 3G12G11G13
  22589739.625    22589744.765   -60635330.632 8  69371464.339 8
  20661311.048    20661316.275   -42901507.077 7  39030818.378 8
  23485802.150    23485807.879    13488143.541 8  10831014.183 8
  20988396.179    20988400.004   -14884092.418 9 -11242766.382 8
 90  3  3  7 21 29.0800000  0  4G 3G12G11G13
  22585505.363    22585511.420   -60657580.003 8  69354127.195 7
  20662802.466    20662807.378   -42893676.901 8  39036919.825 7
  23492115.244    23492121.795    13521320.644 8  10856866.454 9
  20990935.399    20990941.570   -14870741.229 8 -11232362.871 7
 90  3  3  7 21 44.0800000  0  4G 3G12G11G13
  22581281.812    22581287.556   -60679776.131 9  69336831.512 8
  20664322.360    20664327.387   -42885687.620 9  39043145.227 8
  23498426.435    23498433.258    13554490.507 8  10882713.084 8
  20993485.043    20993489.361   -14857347.100 8 -11221925.875 7
 90  3  3  7 21 59.0800000  0  4G 3G12G11G13
  22577068.037    22577072.373   -60701918.962 8  69319577.403 8
  20665872.961    20665878.819   -42877539.118 8  39049494.691 8
  23504738.549    23504743.491    13587653.239 9  10908554.172 8
  20996040.929    20996045.072   -14843910.100 8 -11211455.479 7
 90  3  3  7 22 14.0800000  0  4G 3G12G11G13
  22572864.294    22572869.212   -60724008.757 8  69302364.604 8
  20667453.240    20667459.999   -42869231.675 8  39055968.026 7
  23511046.348    23511052.606    13620808.684 8  10934389.572 8
  20998605.712    20998609.992   -14830430.432 8 -11200951.825 6
 90  3  3  7 22 29.0800000  0  4G 3G12G11G13
  22568670.437    22568676.057   -60746045.539 9  69285193.093 7
  20669065.199    20669070.327   -42860765.187 8  39062565.284 8
  23517353.418    23517361.028    13653956.698 8  10960219.179 8
  21001179.525    21001182.763   -14816908.308 8 -11190415.109 7
 90  3  3  7 22 44.0800000  0  4G 3G12G11G13
  22564486.920    22564491.781   -60768029.363 8  69268062.863 8
  20670705.949    20670711.420   -42852139.622 7  39069286.499 7
  23523660.438    23523667.183    13687097.246 8  10986042.973 9
  21003760.384    21003766.141   -14803343.827 8 -11179845.375 7
 90  3  3  7 22 59.0800000  0  4G 3G12G11G13
  22560314.893    22560317.901   -60789960.355 8  69250973.798 7
  20672377.463    20672381.674   -42843355.142 8  39076131.540 8
  23529967.000    23529971.347    13720230.197 8  11011860.860 9
  21006349.547    21006355.597   -14789737.234 8 -11169242.824 8
 90  3  3  7 23 14.0800000  0  4G 3G12G11G13
  22556150.746    22556153.858   -60811838.585 8  69233925.850 7
  20674078.798    20674084.068   -42834411.803 8  39083100.379 8
  23536269.655    23536275.526    13753355.501 7  11037672.785 8
  21008947.552    21008951.703   -14776088.701 8 -11158607.605 7
 90  3  3  7 23 29.0800000  0  4G 3G12G11G13
  22551998.873    22552002.121   -60833664.051 8  69216918.984 8
  20675811.183    20675816.282   -42825309.644 8  39090192.959 8
  23542572.868    23542577.259    13786473.149 8  11063478.737 9
  21011554.476    21011558.280   -14762398.205 8 -11147939.697 7
 90  3  3  7 23 44.0800000  0  4G 3G12G11G13
  22547855.818    22547858.648   -60855436.925 8  69199953.115 8
  20677573.932    20677580.147   -42816048.747 7  39097409.223 7
  23548873.778    23548878.319    13819583.128 8  11089278.687 8
  21014167.020    21014171.278   -14748666.075 8 -11137239.332 7
 90  3  3  7 23 59.0800000  0  4G 3G12G11G13
  22543721.578    22543725.252   -60877157.308 9  69183028.144 8
  20679367.733    20679371.630   -42806629.216 8  39104749.132 8
  23555172.277    23555177.498    13852685.287 8  11115072.586 8
  21016787.502    21016792.378   -14734892.507 8 -11126506.686 7
 90  3  3  7 24 14.0800000  0  4G 3G12G11G13
  22539598.542    22539602.366   -60898825.290 8  69166144.046 7
  20681190.696    20681194.392   -42797051.010 8  39112212.651 7
  23561469.874    23561475.624    13885779.557 9  11140860.322 8
  21019416.562    21019420.766   -14721077.719 8 -11115741.907 7
 90  3  3  7 24 29.0800000  0  4G 3G12G11G13
  22535485.658    22535488.845   -60920440.941 8  69149300.706 8
  20683040.388    20683045.172   -42787314.308 7  39119799.705 8
  23567765.324    23567770.302    13918865.760 8  11166641.752 8
  21022052.627    21022057.764   -14707221.992 8 -11104945.252 8
 90  3  3  7 24 44.0800000  0  4G 3G12G11G13
  22531380.265    22531385.334   -60942004.400 8  69132498.026 7
  20684924.995    20684928.262   -42777419.047 7  39127510.287 7
  23574060.468    23574064.773    13951944.002 7  11192417.005 8
  21024697.566    21024702.200   -14693325.397 8 -11094116.721 7
 90  3  3  7 24 59.0800000  0  4G 3G12G11G13
  22527287.017    22527291.718   -60963515.797 8  69115735.924 7
  20686839.994    20686842.760   -42767365.354 8  39135344.319 7
  23580352.226    23580358.893    13985014.153 9  11218185.931 8
  21027349.968    21027352.806   -14679388.171 8 -11083256.534 7
 90  3  3  7 25 14.0800000  0  4G 3G12G11G13
  22523203.184    22523207.502   -60984974.932 7  69099014.535 8
  20688783.870    20688786.736   -42757153.383 8  39143301.704 7
  23586643.957    23586649.786    14018076.078 7  11243948.458 8
  21030008.988    21030011.140   -14665410.603 8 -11072364.910 6
 90  3  3  7 25 29.0800000  0  4G 3G12G11G13
  22519130.091    22519134.527   -61006382.163 8  69082333.605 8
  20690756.964    20690760.174   -42746783.050 9  39151382.478 8
  23592934.578    23592938.761    14051129.731 7  11269704.540 8
  21032675.785    21032680.530   -14651392.698 8 -11061441.890 7
 90  3  3  7 25 44.0800000  0  4G 3G12G11G13
  22515066.223    22515070.541   -61027737.570 8  69065693.022 8
  20692758.448    20692763.432   -42736254.570 7  39159586.479 8
  23599220.950    23599228.532    14084174.920 7  11295454.008 8
  21035351.411    21035357.147   -14637334.816 8 -11050487.682 7
 90  3  3  7 25 59.0800000  0  4G 3G12G11G13
  22511014.678    22511017.973   -61049041.325 8  69049092.715 9
  20694791.012    20694797.785   -42725567.907 8  39167913.733 7
  23605506.863    23605515.232    14117211.735 7  11321196.965 8
  21038034.263    21038038.993   -14623236.974 8 -11039502.360 7
 90  3  3  7 26 14.0800000  0  4G 3G12G11G13
  22506969.831    22506974.149   -61070293.293 8  69032532.742 8
  20696857.317    20696861.070   -42714723.114 8  39176364.226 7
  23611793.757    23611800.116    14150240.174 7  11346933.394 7
  21040725.436    21040731.404   -14609099.189 8 -11028485.913 7
 90  3  3  7 26 29.0800000  0  4G 3G12G11G13
  22502934.743    22502939.432   -61091493.591 8  69016013.047 8
  20698953.156    20698955.793   -42703720.345 8  39184937.819 9
  23618078.068    23618083.239    14183260.156 7  11372663.220 8
  21043423.699    21043429.327   -14594921.639 8 -11017438.467 6
 90  3  3  7 26 44.0800000  0  4G 3G12G11G13
  22498908.347    22498916.282   -61112642.397 8  68999533.475 8
  20701076.211    20701079.263   -42692559.681 8  39193634.441 7
  23624358.172    23624364.545    14216271.605 7  11398386.452 7
  21046129.971    21046132.026   -14580704.712 9 -11006360.320 6
 90  3  3  7 26 59.0800000  0  4G 3G12G11G13
  22494895.116    22494900.532   -61133739.737 9  68983094.029 8
  20703228.314    20703233.212   -42681241.213 8  39202454.024 8
  23630638.698    23630645.514    14249274.518 7  11424103.010 7
  21048843.917    21048846.490   -14566448.648 9 -10995251.702 7
 90  3  3  7 27 14.0800000  0  4G 3G12G11G13
  22490890.521    22490894.470   -61154785.897 8  68966694.457 8
  20705410.380    20705415.063   -42669765.102 8  39211396.452 8
  23636916.585    23636924.217    14282268.625 6  11449812.683 7
  21051562.517    21051567.126   -14552153.693 9 -10984112.773 7
 90  3  3  7 27 29.0800000  0  4G 3G12G11G13
  22486894.961    22486899.934   -61175780.728 8  68950334.868 8
  20707622.867    20707629.311   -42658131.346 7  39220461.708 8
  23643194.621    23643200.458    14315254.010 7  11475515.576 7
  21054289.667    21054294.565   -14537819.820 9 -10972943.516 7
 90  3  3  7 27 44.0800000  0  4G 3G12G11G13
  22482910.821    22482912.188   -61196724.373 9  68934015.178 7
  20709868.524    20709872.936   -42646340.049 7  39229649.722 8
  23649469.044    23649476.511    14348230.517 7  11501211.542 7
  21057024.922    21057029.220   -14523447.201 8 -10961744.072 6
 90  3  3  7 27 59.0800000  0  4G 3G12G11G13
  22478934.966    22478936.501   -61217617.126 8  68917735.134 8
  20712142.712    20712146.795   -42634391.383 8  39238960.411 7
  23655743.074    23655749.969    14381198.169 6  11526900.601 7
  21059766.013    21059770.543   -14509036.082 7 -10950514.617 7
 90  3  3  7 28 14.0800000  0  4G 3G12G11G13
  22474968.930    22474969.531   -61238458.972 8  68901494.753 8
  20714447.608    20714450.661   -42622285.283 7  39248393.727 7
  23662016.797    23662022.375    14414156.852 7  11552582.689 7
  21062517.088    21062520.115   -14494586.540 9 -10939255.238 8
 90  3  3  7 28 29.0800000  0  4G 3G12G11G13
  22471012.227    22471014.227   -61259249.944 9  68885294.026 9
  20716780.036    20716784.104   -42610021.922 9  39257949.580 7
  23668284.688    23668291.304    14447106.476 7  11578257.700 7
  21065273.048    21065278.312   -14480098.976 8 -10927966.226 8
 90  3  3  7 28 44.0800000  0  4G 3G12G11G13
  22467065.333    22467066.818   -61279990.121 9  68869132.878 8
  20719143.485    20719148.598   -42597601.404 8  39267627.889 7
  23674555.462    23674559.360    14480046.879 7  11603925.539 6
  21068038.207    21068042.787   -14465573.463 8 -10916647.652 7
 90  3  3  7 28 59.0800000  0  4G 3G12G11G13
  22463127.583    22463131.165   -61300679.630 9  68853011.200 8
  20721538.272    20721541.997   -42585023.857 7  39277428.562 7
  23680821.758    23680825.268    14512978.155 7  11629586.241 7
  21070809.490    21070814.531   -14451010.276 8 -10905299.715 7
 90  3  3  7 29 14.0800000  0  4G 3G12G11G13
  22459201.671    22459204.980   -61321318.531 9  68836928.974 7
  20723958.529    20723965.860   -42572289.182 7  39287351.648 8
  23687087.690    23687092.366    14545900.188 7  11655239.765 8
  21073587.734    21073592.242   -14436409.496 8 -10893922.480 7
 90  3  3  7 29 29.0800000  0  4G 3G12G11G13
  22455284.615    22455286.715   -61341906.932 9  68820886.090 7
  20726412.612    20726417.997   -42559397.676 8  39297396.979 7
  23693350.622    23693355.063    14578812.993 7  11680886.099 7
  21076372.679    21076377.118   -14421771.131 8 -10882515.973 6
 90  3  3  7 29 44.0800000  0  4G 3G12G11G13
  22451375.290    22451377.948   -61362444.938 8  68804882.463 8
  20728895.630    20728901.658   -42546349.301 7  39307564.517 7
  23699613.169    23699616.364    14611716.559 8  11706525.228 7
  21079165.257    21079168.882   -14407095.398 9 -10871080.326 7
 90  3  3  7 29 59.0800000  0  4G 3G12G11G13
  22447476.379    22447478.436   -61382932.744 8  68788917.963 7
  20731409.641    20731413.823   -42533144.371 9  39317854.079 8
  23705871.415    23705876.164    14644610.786 8  11732157.086 7
  21081963.877    21081970.296   -14392382.533 9 -10859615.779 7
 90  3  3  7 30 14.0800000  0  4G 3G12G11G13
  22443586.572    22443589.612   -61403370.215 9  68772992.694 8
  20733952.985    20733956.709   -42519782.967 7  39328265.578 8
  23712129.090    23712134.182    14677495.521 8  11757781.544 6
  21084772.801    21084776.818   -14377633.051 8 -10848122.676 7
 90  3  3  7 30 29.0800000  0  4G 3G12G11G13
  22439706.491    22439709.725   -61423757.681 8  68757106.375 7
  20736524.347    20736529.160   -42506265.112 9  39338798.990 8
  23718384.704    23718390.050    14710370.825 7  11783398.667 6
  21087585.004    21087589.792   -14362846.941 9 -10836600.999 7
 90  3  3  7 30 44.0800000  0  4G 3G12G11G13
  22435836.842    22435839.661   -61444094.960 9  68741259.175 7
  20739123.812    20739131.629   -42492590.763 8  39349454.307 6
  23724638.287    23724644.673    14743236.592 7  11809008.355 7
  21090405.321    21090410.426   -14348024.203 9 -10825050.827 7
 90  3  3  7 30 59.0800000  0  4G 3G12G11G13
  22431976.666    22431979.685   -61464382.353 9  68725450.844 7
  20741756.418    20741763.791   -42478760.221 8  39360231.332 7
  23730891.893    23730896.234    14776092.805 7  11834610.597 7
  21093234.194    21093237.196   -14333164.855 8 -10813472.099 7
 90  3  3  7 31 14.0800000  0  4G 3G12G11G13
  22428125.045    22428128.204   -61484619.978 9  68709681.281 7
  20744418.969    20744424.369   -42464773.669 1  39371129.954 1
  23737141.378    23737147.025    14808939.376 6  11860205.323 6
  21096068.475    21096072.062   -14318269.398 8 -10801865.249 7
 90  3  3  7 31 29.0800000  0  4G 3G12G11G13
  22424284.127    22424288.245   -61504807.906 9  68693950.449 8
  20747109.988    20747118.011   -42450631.320 1  39382149.948 1
  23743388.272    23743395.273    14841776.110 5  11885792.393 7
  21098908.954    21098914.685   -14303337.828 8 -10790230.267 7
 90  3  3  7 31 44.0800000  0  4G 3G12G11G13
  22420450.940    22420456.244   -61524946.160 9  68678258.327 8
  20749831.605    20749835.931   -42436332.978 1  39393291.521 1
  23749635.181    23749642.199    14874603.148 5  11911371.860 7
  21101758.410    21101762.753   -14288370.269 8 -10778567.248 8
 90  3  3  7 31 59.0800000  0  4G 3G12G11G13
  22416628.523    22416633.321   -61545034.818 9  68662604.841 8
  20752581.941    20752586.728   -42421878.902 8  39404554.431 8
  23755883.452    23755888.103    14907420.326 5  11936943.704 7
  21104612.411    21104618.027   -14273367.060 8 -10766876.435 7
 90  3  3  7 32 14.0800000  0  4G 3G12G11G13
  22412815.159    22412819.564   -61565074.124 8  68646989.829 8
  20755360.229    20755366.030   -42407269.214 7  39415938.605 6
  23762123.249    23762132.304    14940227.822 6  11962507.989 7
  21107473.791    21107479.015   -14258328.352 9 -10755157.974 7
 90  3  3  7 32 29.0800000  0  4G 3G12G11G13
  22409012.356    22409015.351   -61585064.004 9  68631413.308 8
  20758172.684    20758176.524   -42392504.024 9  39427443.946 7
  23768360.435    23768372.650    14973025.495 5  11988064.571 8
  21110343.406    21110348.016   -14243254.431 9 -10743412.059 7
 90  3  3  7 32 44.0800000  0  4G 3G12G11G13
  22405217.050    22405221.731   -61605004.615 8  68615875.184 8
  20761012.115    20761015.239   -42377583.499 8  39439070.321 7
  23774602.603    23774609.231    15005813.164 3  12013613.392 7
  21113218.630    21113223.534   -14228145.060 9 -10731638.523 8
 90  3  3  7 32 59.0800000  0  4G 3G12G11G13
  22401431.280    22401435.987   -61624896.099 9  68600375.348 8
  20763881.278    20763886.691   -42362507.667 9  39450817.711 8
  23780841.720    23780848.888    15038590.907 3  12039154.472 7
  21116100.930    21116105.051   -14213000.685 9 -10719837.701 6
 90  3  3  7 33 14.0800000  0  4G 3G12G11G13
  22397653.952    22397659.118   -61644738.417 9  68584913.813 8
  20766780.118    20766784.418   -42347276.815 8  39462685.888 7
  23787078.283    23787084.405    15071358.632 4  12064687.752 7
  21118989.621    21118993.018   -14197821.461 9 -10708009.719 7
 90  3  3  7 33 29.0800000  0  4G 3G12G11G13
  22393887.237    22393893.359   -61664531.837 9  68569490.394 7
  20769708.451    20769712.849   -42331890.986 9  39474674.841 8
  23793309.351    23793316.838    15104116.298 3  12090213.189 6
  21121884.223    21121887.263   -14182607.252 8 -10696154.483 6
 90  3  3  7 33 44.0800000  0  4G 3G12G11G13
  22390129.793    22390134.678   -61684276.214 8  68554105.193 7
  20772664.559    20772668.555   -42316350.226 7  39486784.518 7
  23799541.252    23799548.865    15136863.794 4  12115730.717 7
  21124784.931    21124789.813   -14167358.587 8 -10684272.414 8
 90  3  3  7 33 59.0800000  0  4G 3G12G11G13
  22386382.638    22386386.843   -61703971.971 8  68538757.869 8
  20775651.114    20775656.341   -42300654.745 8  39499014.753 7
  23805773.824    23805779.299    15169601.106 6  12141240.293 7
  21127693.306    21127697.136   -14152075.637 8 -10672363.627 8
 90  3  3  7 34 14.0800000  0  4G 3G12G11G13
  22382645.970    22382648.465   -61723619.000 9  68523448.518 7
  20778666.503    20778671.488   -42284804.698 8  39511365.424 7
  23811999.474    23812007.041    15202328.189 4  12166741.883 7
  21130607.717    21130612.699   -14136758.405 8 -10660428.133 6
 90  3  3  7 34 29.0800000  0  4G 3G12G11G13
  22378916.801    22378918.625   -61743217.511 9  68508176.971 7
  20781710.713    20781716.257   -42268800.198 7  39523836.455 7
  23818228.974    23818233.412    15235044.943 6  12192235.433 7
  21133528.672    21133534.046   -14121407.161 7 -10648466.124 8
 90  3  3  7 34 44.0800000  0  4G 3G12G11G13
  22375196.418    22375198.469   -61762767.461 9  68492943.280 8
  20784784.555    20784792.072   -42252641.339 8  39536427.784 6
  23824451.765    23824455.966    15267751.475 6  12217721.031 6
  21136456.652    21136462.442   -14106022.158 8 -10636477.808 7
 90  3  3  7 34 59.0800000  0  4G 3G12G11G13
  22371484.315    22371488.612   -61782269.176 8  68477747.155 8
  20787891.265    20787896.106   -42236328.277 7  39549139.272 7
  23830675.135    23830679.144    15300447.757 7  12243198.636 7
  21139391.464    21139395.571   -14090603.438 8 -10624463.218 7
 90  3  3  7 35 14.0800000  0  3G 3G12G13
  22367783.471    22367786.689   -61801722.416 5  68462588.816 7
  20791024.344    20791031.423   -42219861.246 6  39561970.705 7
  21142330.847    21142336.215   -14075151.130 7 -10612422.462 6
 90  3  3  7 35 29.0800000  0  4G 3G12G19G13
  22364090.159    22364093.420   -61821127.535 9  68447467.981 8
  20794187.542    20794192.962   -42203240.460 9  39574921.970 7
                  23127144.955   -74858187.187 9
  21145277.710    21145282.271   -14059665.450 8 -10600355.692 7
 90  3  3  7 35 44.0800000  0  4G 3G12G19G13
  22360405.458    22360409.457   -61840484.494 8  68432384.636 7
  20797380.931    20797385.038   -42186465.969 8  39587992.991 7
                  23122415.123   -74883205.199 7
  21148231.701    21148235.687   -14044146.486 7 -10588262.995 7
 90  3  3  7 35 59.0800000  0  4G 3G12G19G13
  22356731.070    22356735.234   -61859793.503 9  68417338.680 7
  20800600.946    20800605.281   -42169537.882 7  39601183.703 7
  23117676.835    23117680.751   -74908101.618 8  95061956.986 8
  21151191.127    21151195.516   -14028594.433 9 -10576144.506 7
 90  3  3  7 36 14.0800000  0  4G 3G12G19G13
  22353066.457    22353070.019   -61879054.525 9  68402330.122 8
  20803852.270    20803856.132   -42152456.331 8  39614494.012 7
  23112962.692    23112966.702   -74932876.620 7  95042651.804 8
  21154158.108    21154161.336   -14013009.564 8 -10564000.455 7
 90  3  3  7 36 29.0800000  0  4G 3G12G19G13
  22349410.165    22349413.475   -61898267.691 9  68387358.855 7
  20807131.846    20807135.795   -42135221.407 8  39627923.804 6
  23108271.108    23108276.288   -74957529.915 7  95023441.452 8
  21157130.157    21157132.154   -13997392.053 8 -10551830.963 7
 90  3  3  7 36 44.0800000  0  4G 3G12G19G13
  22345764.089    22345766.607   -61917433.283 9  68372424.668 8
  20810440.602    20810444.383   -42117833.310 9  39641472.958 6
  23103603.114    23103607.163   -74982061.180 8  95004326.199 9
  21160107.870    21160111.157   -13981742.074 8 -10539636.181 7
 90  3  3  7 36 59.0800000  0  4G 3G12G19G13
  22342125.376    22342128.131   -61936551.327 9  68357527.498 8
  20813777.679    20813783.302   -42100292.268 7  39655141.290 7
  23098958.826    23098963.249   -75006470.361 7  94985306.067 7
  21163091.451    21163095.195   -13966059.791 8 -10527416.207 7
 90  3  3  7 37 14.0800000  0  4G 3G12G19G13
  22338496.156    22338499.440   -61955621.811 8  68342667.401 8
  20817145.497    20817151.009   -42082598.379 8  39668928.697 7
  23094337.483    23094340.931   -75030757.110 8  94966381.338 8
  21166081.358    21166085.817   -13950345.078 8 -10515170.988 7
 90  3  3  7 37 29.0800000  0  4G 3G12G19G13
  22334876.853    22334879.344   -61974644.788 8  68327844.321 7
  20820540.995    20820544.501   -42064751.774 8  39682835.141 7
  23089738.420    23089741.537   -75054921.421 7  94947552.026 7
  21169078.217    21169082.805   -13934598.109 9 -10502900.628 7
 90  3  3  7 37 44.0800000  0  4G 3G12G19G13
  22331265.864    22331268.310   -61993620.326 9  68313058.197 8
  20823965.763    20823972.049   -42046752.704 9  39696860.370 6
  23085164.562    23085166.953   -75078962.940 9  94928818.387 8
  21172079.512    21172086.090   -13918819.156 9 -10490605.333 7
 90  3  3  7 37 59.0800000  0  4G 3G12G19G13
  22327664.175    22327666.787   -62012548.811 9  68298308.763 9
  20827419.772    20827422.688   -42028601.283 8  39711004.362 7
  23080613.856    23080615.149   -75102881.697 7  94910180.399 9
  21175088.905    21175094.181   -13903008.498 9 -10478285.343 7
 90  3  3  7 38 14.0800000  0  4G 3G12G19G13
  22324069.443    22324074.649   -62031430.216 9  68283595.992 7
  20830903.401    20830907.765   -42010297.646 8  39725266.920 6
  23076084.541    23076087.109   -75126677.483 8  94891638.235 8
  21178104.482    21178107.496   -13887166.303 9 -10465940.753 7
 90  3  3  7 38 29.0800000  0  4G 3G12G19G13
  22320484.617    22320489.934   -62050264.512 9  68268919.939 7
  20834416.217    20834419.657   -41991841.973 9  39739647.966 7
  23071579.170    23071582.788   -75150350.079 8  94873192.068 8
  21181126.010    21181129.800   -13871292.703 9 -10453571.706 7
 90  3  3  7 38 44.0800000  0  4G 3G12G19G13
  22316909.401    22316915.583   -62069051.829 9  68254280.494 8
  20837955.505    20837961.672   -41973234.250 8  39754147.481 7
  23067098.743    23067101.005   -75173899.234 8  94854842.083 8
  21184153.350    21184155.735   -13855387.685 8 -10441178.168 7
 90  3  3  7 38 59.0800000  0  4G 3G12G19G13
  22313344.528    22313348.999   -62087792.335 8  68239677.527 8
  20841526.617    20841530.308   -41954474.816 8  39768765.230 7
  23062640.061    23062643.746   -75197324.881 8  94836588.353 8
  21187186.497    21187187.450   -13839451.403 9 -10428760.286 7
 90  3  3  7 39 14.0800000  0  4G 3G12G19G13
  22309787.049    22309791.156   -62106486.078 9  68225111.011 7
  20845124.110    20845130.762   -41935563.845 7  39783501.048 7
  23058205.936    23058209.385   -75220626.762 8  94818431.053 7
  21190224.626    21190225.967   -13823484.119 9 -10416318.249 7
 90  3  3  7 39 29.0800000  0  4G 3G12G19G13
  22306240.445    22306241.646   -62125133.195 8  68210580.828 7
  20848753.910    20848756.759   -41916501.576 7  39798354.771 7
  23053795.989    23053799.378   -75243804.690 8  94800370.351 7
  21193267.619    21193270.247   -13807486.025 8 -10403852.210 7
 90  3  3  7 39 44.0800000  0  4G 3G12G19G13
  22302699.241    22302702.730   -62143733.770 9  68196086.887 8
  20852410.126    20852413.381   -41897288.192 9  39813326.226 7
  23049409.175    23049412.196   -75266858.722 9  94782406.183 8
  21196316.250    21196321.898   -13791457.169 9 -10391362.227 7
 90  3  3  7 39 59.0800000  0  4G 3G12G19G13
  22299168.676    22299171.336   -62162287.797 9  68181629.214 7
  20856096.788    20856097.114   -41877923.773 9  39828415.391 7
  23045045.174    23045049.324   -75289788.395 8  94764538.904 7
  21199373.722    21199377.240   -13775397.721 8 -10378848.370 7
 90  3  3  7 40 14.0800000  0  4G 3G12G19G13
  22295646.223    22295649.559   -62180795.459 8  68167207.662 8
  20859809.257    20859810.470   -41858408.561 8  39843622.039 6
  23040705.997    23040709.694   -75312593.451 8  94746768.742 8
  21202434.830    21202437.628   -13759308.049 9 -10366310.960 7
 90  3  3  7 40 29.0800000  0  4G 3G12G19G13
  22292133.075    22292135.664   -62199256.984 8  68152822.085 8
  20863550.706    20863552.798   -41838742.762 8  39858946.008 6
  23036389.647    23036393.073   -75335273.909 8  94729095.672 8
  21205502.292    21205504.762   -13743188.430 9 -10353750.214 7
 90  3  3  7 40 44.0800000  0  4G 3G12G19G13
  22288627.737    22288632.536   -62217672.260 9  68138472.526 8
  20867320.777    20867322.682   -41818926.452 8  39874387.281 6
  23032096.796    23032101.051   -75357829.541 8  94711519.868 8
  21208576.162    21208578.936   -13727038.544 9 -10341165.887 7
 90  3  3  7 40 59.0800000  0  4G 3G12G19G13
  22285131.535    22285137.034   -62236041.573 9  68124158.776 8
  20871120.911    20871123.715   -41798959.899 8  39889945.602 7
  23027828.871    23027832.776   -75380260.289 8  94694041.379 7
  21211654.872    21211657.198   -13710858.460 9 -10328558.042 7
 90  3  3  7 41 14.0800000  0  4G 3G12G19G13
  22281646.155    22281650.316   -62254364.899 9  68109880.890 8
  20874948.912    20874951.816   -41778843.216 9  39905620.907 7
  23023583.857    23023587.864   -75402565.862 9  94676660.422 8
  21214739.589    21214742.605   -13694648.689 9 -10315927.053 7
 90  3  3  7 41 29.0800000  0  4G 3G12G19G13
  22278168.425    22278171.467   -62272642.371 9  68095638.729 7
  20878806.586    20878808.919   -41758576.720 8  39921413.000 6
  23019363.677    23019367.760   -75424746.141 8  94659377.108 8
  21217830.460    21217833.662   -13678409.389 9 -10303273.054 7
 90  3  3  7 41 44.0800000  0  4G 3G12G19G13
  22274699.491    22274702.602   -62290874.267 7  68081432.079 7
  20882689.575    20882695.130   -41738160.479 9  39937321.737 7
  23015165.966    23015169.664   -75446801.153 9  94642191.399 9
  21220926.397    21220928.884   -13662140.445 8 -10290595.946 7
 90  3  3  7 41 59.0800000  0  4G 3G12G19G13
  22271239.192    22271242.968   -62309060.381 9  68067261.100 8
  20886602.652    20886606.398   -41717594.658 8  39953347.053 7
  23010992.787    23010995.652   -75468730.369 9  94625103.700 9
  21224027.913    21224031.902   -13645842.135 9 -10277895.972 6
 90  3  3  7 42 14.0800000  0  4G 3G12G19G13
  22267786.032    22267789.282   -62327200.849 9  68053125.690 7
  20890544.339    20890550.158   -41696879.556 8  39969488.652 6
  23006844.888    23006847.275   -75490533.871 7  94608113.974 8
  21227134.412    21227138.056   -13629514.789 8 -10265173.358 8
 90  3  3  7 42 29.0800000  0  4G 3G12G19G13
  22264342.654    22264347.353   -62345296.036 9  68039025.549 8
  20894516.194    20894521.061   -41676015.358 9  39985746.487 7
  23002719.737    23002723.149   -75512211.627 8  94591222.224 8
  21230246.660    21230251.392   -13613158.421 8 -10252428.144 7
 90  3  3  7 42 44.0800000  0  4G 3G12G19G13
  22260908.002    22260912.760   -62363345.818 8  68024960.795 8
  20898516.553    20898518.321   -41655002.213 9  40002120.373 7
  22998617.617    22998621.751   -75533763.288 8  94574428.741 8
  21233364.147    21233368.321   -13596773.278 8 -10239660.497 7
 90  3  3  7 42 59.0800000  0  4G 3G12G19G13
  22257481.446    22257485.580   -62381350.367 8  68010931.285 8
  20902542.112    20902546.476   -41633840.343 8  40018610.144 6
  22994541.708    22994544.673   -75555188.549 7  94557733.743 8
  21236488.274    21236491.688   -13580359.241 9 -10226870.343 7
 90  3  3  7 43 14.0800000  0  4G 3G12G19G13
  22254062.844    22254068.023   -62399309.668 8  67996937.021 8
  20906597.237    20906603.319   -41612529.817 8  40035215.718 8
  22990486.808    22990492.299   -75576487.295 8  94541137.324 7
  21239617.436    21239621.339   -13563916.671 9 -10214057.957 7
 90  3  3  7 43 29.0800000  0  4G 3G12G19G13
  22250655.408    22250659.121   -62417224.013 8  67982977.781 8
  20910680.336    20910687.386   -41591071.058 8  40051936.826 7
  22986457.836    22986462.287   -75597659.552 7  94524639.472 8
  21242750.776    21242755.409   -13547445.769 9 -10201223.503 8
 90  3  3  7 43 44.0800000  0  4G 3G12G19G13
  22247254.493    22247258.415   -62435093.370 8  67969053.630 8
  20914791.985    20914797.291   -41569464.210 9  40068773.310 7
  22982452.335    22982457.672   -75618705.006 8  94508240.430 7
  21245892.044    21245895.589   -13530946.342 8 -10188366.807 7
 90  3  3  7 43 59.0800000  0  4G 3G12G19G13
  22243863.144    22243866.513   -62452917.748 7  67955164.495 7
  20918931.236    20918936.502   -41547709.500 9  40085725.016 8
  22978472.423    22978475.065   -75639623.518 9  94491940.294 9
  21249036.346    21249040.640   -13514418.829 9 -10175488.226 6
 90  3  3  7 44 14.0800000  0  4G 3G12G19G13
  22240479.835    22240482.811   -62470697.340 9  67941310.276 8
  20923100.036    20923103.227   -41525807.001 9  40102791.908 7
  22974515.725    22974519.828   -75660414.746 9  94475739.351 8
  21252186.801    21252189.688   -13497863.054 9 -10162587.618 6
 90  3  3  7 44 29.0800000  0  4G 3G12G19G13
  22237105.067    22237107.887   -62488432.185 9  67927490.927 7
  20927294.919    20927300.549   -41503756.902 8  40119973.799 7
  22970584.720    22970587.895   -75681078.913 9  94459637.408 8
  21255342.093    21255346.223   -13481279.212 8 -10149665.138 6
 90  3  3  7 44 44.0800000  0  4G 3G12G19G13
  22233737.572    22233742.065   -62506122.568 9  67913706.232 6
  20931519.516    20931523.853   -41481559.501 8  40137270.464 7
  22966676.588    22966679.670   -75701615.692 8  94443634.735 7
  21258502.965    21258508.069   -13464667.851 9 -10136721.236 7
 90  3  3  7 44 59.0800000  0  4G 3G12G19G13
  22230379.067    22230384.135   -62523768.558 8  67899956.115 7
  20935771.837    20935776.189   -41459215.002 8  40154681.736 7
  22962792.587    22962797.052   -75722025.051 9  94427731.357 8
  21261667.900    21261674.165   -13448029.152 8 -10123756.025 7
 90  3  3  7 45 14.0800000  0  4G 3G12G19G13
  22227029.242    22227034.871   -62541370.119 8  67886240.639 7
  20940052.507    20940055.909   -41436723.589 8  40172207.505 7
  22958933.642    22958938.198   -75742306.849 9  94411927.361 8
  21264840.646    21264844.549   -13431362.927 9 -10110769.359 7
 90  3  3  7 45 29.0800000  0  4G 3G12G19G13
  22223688.927    22223693.262   -62558927.440 8  67872559.624 8
  20944359.391    20944363.097   -41414085.470 9  40189847.592 6
  22955097.623    22955104.373   -75762460.677 8  94396223.081 8
  21268017.144    21268022.063   -13414669.443 9 -10097761.455 6
 90  3  3  7 45 44.0800000  0  4G 3G12G19G13
  22220356.552    22220361.386   -62576440.583 8  67858913.041 8
  20948693.876    20948699.180   -41391300.836 8  40207601.819 6
  22951286.276    22951291.873   -75782486.466 8  94380618.582 8
  21271200.740    21271203.325   -13397948.915 9 -10084732.468 7
 90  3  3  7 45 59.0800000  0  4G 3G12G19G13
  22217032.776    22217037.561   -62593909.615 9  67845300.808 6
  20953056.216    20953061.935   -41368369.903 8  40225470.087 7
  22947499.582    22947505.342   -75802384.464 9  94365113.668 8
  21274388.112    21274390.253   -13381201.461 9 -10071682.497 7
 90  3  3  7 46 14.0800000  0  4G 3G12G19G13
  22213717.107    22213720.919   -62611334.646 8  67831722.884 7
  20957448.961    20957455.108   -41345292.910 8  40243452.129 8
  22943737.534    22943742.589   -75822154.261 9  94349708.649 8
  21277581.465    21277582.479   -13364426.996 8 -10058611.487 6
 90  3  3  7 46 29.0800000  0  4G 3G12G19G13
  22210408.855    22210412.977   -62628715.818 9  67818179.117 7
  20961871.356    20961875.281   -41322070.212 9  40261547.728 7
  22939999.830    22940005.438   -75841795.749 8  94334403.602 8
  21280777.139    21280779.849   -13347625.666 8 -10045519.515 7
 90  3  3  7 46 44.0800000  0  4G 3G12G19G13
  22207110.952    22207113.171   -62646053.252 8  67804669.445 8
  20966318.619    20966322.941   -41298701.977 9  40279756.746 7
  22936286.323    22936291.172   -75861308.595 8  94319198.800 8
  21283977.816    21283983.192   -13330797.604 8 -10032406.775 7
 90  3  3  7 46 59.0800000  0  4G 3G12G19G13
  22203819.446    22203823.380   -62663346.945 8  67791193.856 7
  20970791.725    20970796.703   -41275188.341 9  40298079.041 8
  22932597.198    22932600.991   -75880692.809 9  94304094.231 8
  21287184.707    21287189.584   -13313943.072 9 -10019273.380 6
 90  3  3  7 47 14.0800000  0  4G 3G12G19G13
  22200536.222    22200540.671   -62680597.150 8  67777752.140 8
  20975293.476    20975298.343   -41251529.560 9  40316514.445 7
  22928934.684    22928937.638   -75899947.904 8  94289090.283 7
  21290396.892    21290400.923   -13297062.111 8 -10006119.383 6
 90  3  3  7 47 29.0800000  0  4G 3G12G19G13
  22197262.678    22197266.577   -62697804.013 8  67764344.221 7
  20979823.568    20979829.146   -41227725.843 9  40335062.774 8
  22925296.057    22925297.658   -75919074.189 8  94274186.699 7
  21293614.457    21293619.817   -13280154.904 9  -9992944.957 7
 90  3  3  7 47 44.0800000  0  4G 3G12G19G13
  22193995.847    22193999.802   -62714967.372 8  67750970.196 7
  20984380.559    20984387.139   -41203777.378 9  40353723.897 7
  22921681.251    22921683.626   -75938071.719 9  94259383.431 8
  21296837.429    21296841.534   -13263221.907 8  -9979750.393 7
 90  3  3  7 47 59.0800000  0  4G 3G12G19G13
  22190738.889    22190741.851   -62732087.417 8  67737629.925 7
  20988965.346    20988971.581   -41179684.442 9  40372497.615 7
  22918090.039    22918093.961   -75956939.876 9  94244680.969 8
  21300064.867    21300068.169   -13246262.903 9  -9966535.584 7
 90  3  3  7 48 14.0800000  0  4G 3G12G19G13
  22187488.675    22187492.905   -62749164.321 8  67724323.248 7
  20993577.985    20993582.019   -41155447.205 9  40391383.771 7
  22914524.448    22914528.564   -75975678.506 9  94230079.450 9
  21303297.514    21303300.000   -13229278.080 9  -9953300.646 7
 90  3  3  7 48 29.0800000  0  4G 3G12G19G13
  22184247.930    22184251.686   -62766198.095 8  67711050.205 7
  20998215.205    20998223.059   -41131065.813 8  40410382.238 9
  22910982.850    22910986.775   -75994287.644 8  94215578.826 8
  21306533.767    21306536.168   -13212267.315 9  -9940045.486 7
 90  3  3  7 48 44.0800000  0  4G 3G12G19G13
  22181014.677    22181019.346   -62783189.000 7  67697810.546 7
  21002883.414    21002889.414   -41106540.729 9  40429492.698 7
  22907465.562    22907471.407   -76012767.354 8  94201179.055 8
  21309776.001    21309780.548   -13195231.030 9  -9926770.465 7
 90  3  3  7 48 59.0800000  0  4G 3G12G19G13
  22177789.613    22177794.076   -62800136.833 9  67684604.454 7
  21007577.264    21007582.991   -41081872.115 8  40448714.987 7
  22903973.500    22903979.878   -76031117.270 8  94186880.425 9
  21313022.271    21313027.675   -13178169.433 8  -9913475.707 6
 90  3  3  7 49 14.0800000  0  4G 3G12G19G13
  22174571.396    22174577.119   -62817041.886 9  67671431.706 7
  21012298.854    21012303.148   -41057060.249 8  40468048.900 8
  22900507.134    22900512.251   -76049337.094 9  94172683.168 8
  21316274.006    21316279.009   -13161082.510 8  -9900161.235 7
 90  3  3  7 49 29.0800000  0  4G 3G12G19G13
  22171362.801    22171367.924   -62833904.312 9  67658292.148 7
  21017047.851    21017051.419   -41032105.471 8  40487494.204 8
  22897064.850    22897069.377   -76067427.021 9  94158587.125 8
  21319530.692    21319535.409   -13143970.539 9  -9886827.230 8
 90  3  3  7 49 44.0800000  0  4G 3G12G19G13
  22168160.713    22168167.145   -62850724.143 8  67645185.812 7
  21021823.539    21021826.263   -41007007.852 9  40507050.777 7
  22893648.174    22893650.956   -76085386.843 8  94144592.468 8
  21322791.471    21322796.818   -13126833.777 9  -9873473.923 7
 90  3  3  7 49 59.0800000  0  4G 3G12G19G13
  22164968.068    22164972.862   -62867501.520 7  67632112.566 6
  21026626.611    21026630.119   -40981767.595 9  40526718.494 8
  22890254.868    22890257.602   -76103216.423 9  94130699.295 9
  21326057.944    21326061.459   -13109672.139 9  -9860101.215 8
 90  3  3  7 50 14.0800000  0  4G 3G12G19G13
  22161784.909    22161790.011   -62884236.584 8  67619072.271 7
  21031457.274    21031459.141   -40956384.996 9  40546497.128 6
  22886886.123    22886890.804   -76120915.665 9  94116907.683 8
  21329327.422    21329332.540   -13092485.674 9  -9846709.176 8
 90  3  3  7 50 29.0800000  0  4G 3G12G19G13
  22158608.688    22158611.207   -62900929.291 9  67606064.992 8
  21036314.895    21036317.443   -40930860.257 9  40566386.515 7
  22883542.668    22883546.521   -76138484.661 9  94103217.555 7
  21332603.569    21332607.398   -13075274.414 8  -9833297.800 8
 90  3  3  7 50 44.0800000  0  4G 3G12G19G13
  22155440.747    22155443.131   -62917579.981 8  67593090.445 7
  21041199.688    21041200.817   -40905193.640 9  40586386.464 6
  22880224.023    22880228.461   -76155923.099 9  94089629.161 8
  21335883.065    21335887.309   -13058038.666 9  -9819867.356 8
 90  3  3  7 50 59.0800000  0  4G 3G12G19G13
  22152281.165    22152281.821   -62934188.487 8  67580148.787 7
  21046109.352    21046112.851   -40879385.392 8  40606496.749 6
  22876930.986    22876934.327   -76173230.687 9  94076142.722 8
  21339166.909    21339172.028   -13040778.610 8  -9806417.964 6
 90  3  3  7 51 14.0800000  0  4G 3G12G19G13
  22149127.618    22149130.660   -62950754.954 9  67567239.852 7
  21051047.672    21051052.082   -40853435.853 8  40626717.148 7
  22873661.843    22873665.804   -76190407.215 9  94062758.422 8
  21342455.907    21342460.093   -13023494.429 9  -9792949.769 7
 90  3  3  7 51 29.0800000  0  4G 3G12G19G13
  22145983.173    22145984.723   -62967279.496 9  67554363.600 7
  21056012.298    21056016.672   -40827345.080 8  40647047.621 7
  22870418.911    22870421.910   -76207452.791 9  94049476.171 8
  21345749.137    21345753.684   -13006186.016 8  -9779462.701 7
 90  3  3  7 51 44.0800000  0  4G 3G12G19G13
  22142846.443    22142849.451   -62983762.343 8  67541519.837 8
  21061003.528    21061009.070   -40801113.413 8  40667487.867 6
  22867199.720    22867203.766   -76224367.540 8  94036295.850 8
  21349047.434    21349052.609   -12988853.736 8  -9765957.035 7
 90  3  3  7 51 59.0800000  0  4G 3G12G19G13
  22139717.156    22139721.662   -63000203.573 9  67528708.493 7
  21066021.351    21066029.275   -40774741.183 8  40688037.640 7
  22864006.299    22864010.543   -76241151.069 8  94023217.777 8
  21352349.451    21352355.773   -12971497.758 8  -9752432.908 7
 90  3  3  7 52 14.0800000  0  4G 3G12G19G13
  22136596.040    22136600.690   -63016603.330 8  67515929.481 8
  21071066.641    21071074.089   -40748228.560 8  40708696.805 8
  22860837.333    22860841.077   -76257803.334 9  94010241.988 8
  21355657.279    21355661.483   -12954118.003 8  -9738890.245 6
 90  3  3  7 52 29.0800000  0  4G 3G12G19G13
  22133484.057    22133487.697   -63032961.487 8  67503182.883 8
  21076137.990    21076146.774   -40721575.781 9  40729465.203 6
  22857692.531    22857698.431   -76274324.188 8  93997368.584 7
  21358968.971    21358975.118   -12936714.704 8  -9725329.211 8
 90  3  3  7 52 44.0800000  0  4G 3G12G19G13
  22130378.575    22130382.102   -63049278.123 9  67490468.633 7
  21081237.203    21081244.475   -40694783.262 8  40750342.508 7
  22854574.376    22854578.889   -76290713.383 8  93984597.807 8
  21362285.755    21362289.313   -12919288.043 9  -9711749.968 7
 90  3  3  7 52 59.0800000  0  4G 3G12G19G13
  22127282.087    22127286.465   -63065553.512 8  67477786.529 7
  21086364.436    21086367.159   -40667851.195 8  40771328.553 6
  22851481.178    22851485.430   -76306970.879 9  93971929.622 8
  21365605.888    21365611.134   -12901837.911 8  -9698152.464 7
 90  3  3  7 53 14.0800000  0  4G 3G12G19G13
  22124193.711    22124196.874   -63081787.835 9  67465136.428 7
  21091515.654    21091520.507   -40640779.832 9  40792423.123 7
  22848412.601    22848415.556   -76323096.866 8  93959363.927 8
  21368931.058    21368935.347   -12884364.502 8  -9684536.833 8
 90  3  3  7 53 29.0800000  0  4G 3G12G19G13
  22121113.115    22121114.916   -63097981.062 8  67452518.346 9
  21096694.739    21096698.756   -40613569.400 9  40813626.073 6
  22845368.877    22845372.237   -76339091.089 8  93946900.910 8
  21372259.288    21372265.925   -12866867.978 8  -9670903.173 7
 90  3  3  7 53 44.0800000  0  4G 3G12G19G13
  22118038.713    22118041.745   -63114133.177 9  67439932.294 7
  21101898.080    21101902.080   -40586220.130 9  40834937.175 7
  22842352.005    22842353.100   -76354953.327 9  93934540.726 8
  21375594.733    21375598.091   -12849348.415 7  -9657251.559 7
 90  3  3  7 53 59.0800000  0  4G 3G12G19G13
  22114972.561    22114975.320   -63130244.348 9  67427378.140 7
  21107127.975    21107132.860   -40558732.434 9  40856356.148 6
  22839358.009    22839361.126   -76370683.511 8  93922283.432 8
  21378933.497    21378937.900   -12831806.073 8  -9643582.203 7
 90  3  3  7 54 14.0800000  0  4G 3G12G19G13
  22111913.190    22111917.340   -63146314.672 9  67414855.813 7
  21112384.898    21112390.187   -40531106.436 9  40877882.888 7
  22836389.156    22836393.547   -76386281.645 8  93910129.057 8
  21382277.383    21382279.483   -12814240.932 8  -9629895.073 8
 90  3  3  7 54 29.0800000  0  4G 3G12G19G13
  22108862.735    22108867.083   -63162344.478 9  67402365.065 8
  21117668.505    21117671.211   -40503342.535 9  40899517.104 7
  22833445.752    22833450.837   -76401747.442 9  93898077.755 8
  21385622.500    21385626.273   -12796653.181 9  -9616190.326 7
 90  3  3  7 54 44.0800000  0  4G 3G12G19G13
  22105820.265    22105824.492   -63178333.629 8  67389905.992 8
  21122978.516    21122980.567   -40475440.789 8  40921258.712 7
  22830528.098    22830532.605   -76417080.697 9  93886129.776 8
  21388973.600    21388977.244   -12779042.948 8  -9602468.061 7
 90  3  3  7 54 59.0800000  0  4G 3G12G19G13
  22102784.806    22102790.134   -63194282.187 8  67377478.538 8
  21128313.544    21128316.900   -40447401.530 8  40943107.483 6
  22827634.722    22827640.308   -76432281.435 8  93874285.045 8
  21392327.816    21392332.607   -12761410.314 8  -9588728.347 6
 90  3  3  7 55 14.0800000  0  4G 3G12G19G13
  22099758.447    22099761.086   -63210190.319 9  67365082.626 7
  21133675.823    21133678.459   -40419225.046 8  40965063.200 6
  22824769.306    22824772.117   -76447349.618 8  93862543.614 9
  21395686.783    21395691.088   -12743755.251 9  -9574971.151 7
 90  3  3  7 55 29.0800000  0  4G 3G12G19G13
  22096738.891    22096742.633   -63226058.107 8  67352718.126 8
  21139062.932    21139066.754   -40390911.689 9  40987125.525 6
  22821925.996    22821929.961   -76462285.290 8  93850905.434 8
  21399051.991    21399055.337   -12726078.001 8  -9561196.683 7
 90  3  3  7 55 44.0800000  0  4G 3G12G19G13
  22093726.678    22093729.655   -63241885.711 8  67340384.953 7
  21144475.936    21144480.755   -40362461.815 7  41009294.239 6
  22819109.159    22819113.315   -76477088.365 8  93839370.562 7
  21402420.977    21402423.947   -12708378.935 9  -9547405.178 8
 90  3  3  7 55 59.0800000  0  4G 3G12G19G13
  22090722.607    22090724.795   -63257673.260 9  67328082.967 7
  21149915.631    21149919.688   -40333875.658 9  41031569.155 7
  22816318.065    22816321.899   -76491758.624 8  93827939.200 8
  21405792.308    21405797.638   -12690657.955 9  -9533596.634 7
 90  3  3  7 56 14.0800000  0  4G 3G12G19G13
  22087726.776    22087729.273   -63273420.715 9  67315812.231 7
  21155382.216    21155387.977   -40305153.488 9  41053950.049 7
  22813550.865    22813555.055   -76506296.043 8  93816611.331 8
  21409169.191    21409173.967   -12672915.102 8  -9519771.031 7
 90  3  3  7 56 29.0800000  0  4G 3G12G19G13
  22084736.969    22084739.787   -63289128.196 9  67303572.652 8
  21160874.253    21160877.441   -40276295.470 8  41076436.803 7
  22810809.961    22810814.399   -76520700.472 8  93805387.112 8
  21412549.823    21412555.000   -12655150.338 8  -9505928.357 8
 90  3  3  7 56 44.0800000  0  4G 3G12G19G13
  22081755.735    22081759.482   -63304795.873 9  67291364.064 8
  21166392.525    21166394.551   -40247301.975 9  41099029.156 7
  22808094.679    22808097.507   -76534971.905 8  93794266.524 7
  21415935.008    21415939.509   -12637363.761 8  -9492068.684 7
 90  3  3  7 56 59.0800000  0  4G 3G12G19G13
  22078781.041    22078785.612   -63320423.785 7  67279186.489 8
  21171935.461    21171937.741   -40218173.254 9  41121726.845 6
  22805404.306    22805406.406   -76549109.932 9  93783249.876 9
  21419323.279    21419328.083   -12619555.824 8  -9478192.390 8
 90  3  3  7 57 14.0800000  0  4G 3G12G19G13
  22075814.860    22075818.828   -63336012.173 8  67267039.701 8
  21177504.016    21177508.808   -40188909.522 9  41144529.750 6
  22802738.887    22802741.735   -76563114.874 9  93772336.923 7
  21422715.903    21422720.278   -12601726.739 8  -9464299.588 8
 90  3  3  7 57 29.0800000  0  4G 3G12G19G13
  22072856.655    22072860.330   -63351560.958 9  67254923.763 7
  21183096.745    21183101.925   -40159511.077 9  41167437.627 6
  22800099.741    22800102.306   -76576986.553 9  93761527.827 8
  21426113.764    21426116.307   -12583876.394 8  -9450390.225 7
 90  3  3  7 57 44.0800000  0  4G 3G12G19G13
  22069905.205    22069909.441   -63367070.328 9  67242838.561 8
  21188717.523    21188722.863   -40129978.284 8  41190450.196 7
  22797484.798    22797487.909   -76590724.749 9  93750822.750 7
  21429513.800    21429517.757   -12566004.850 8  -9436464.354 7
 90  3  3  7 57 59.0800000  0  4G 3G12G19G13
  22066960.810    22066964.967   -63382540.327 8  67230783.999 7
  21194362.736    21194367.797   -40100311.350 9  41213567.300 7
  22794897.116    22794899.557   -76604329.196 8  93740221.877 8
  21432918.128    21432922.133   -12548112.315 8  -9422522.122 8
 90  3  3  7 58 14.0800000  0  4G 3G12G19G13
  22064024.748    22064029.134   -63397971.046 8  67218760.087 8
  21200033.225    21200038.767   -40070510.585 8  41236788.666 7
  22792331.506    22792335.509   -76617799.981 9  93729725.155 8
  21436327.779    21436330.094   -12530199.028 8  -9408563.710 7
 90  3  3  7 58 29.0800000  0  4G 3G12G19G13
  22061096.787    22061100.321   -63413362.584 9  67206766.678 8
  21205729.402    21205734.828   -40040576.232 8  41260114.153 7
  22789792.884    22789798.979   -76631137.129 8  93719332.565 7
  21439738.662    21439744.897   -12512264.840 8  -9394589.036 7
 90  3  3  7 58 44.0800000  0  4G 3G12G19G13
  22058175.065    22058178.105   -63428715.135 9  67194803.667 7
  21211451.523    21211454.008   -40010508.584 8  41283543.479 6
  22787280.419    22787284.743   -76644340.631 8  93709044.143 8
  21443156.068    21443160.328   -12494309.875 8  -9380598.154 6
 90  3  3  7 58 59.0800000  0  4G 3G12G19G13
  22055261.397    22055263.770   -63444028.724 9  67182871.034 7
  21217197.308    21217202.759   -39980307.980 8  41307076.404 7
  22784794.438    22784798.527   -76657410.429 8  93698859.884 8
  21446577.024    21446581.123   -12476334.290 9  -9366591.205 7
 90  3  3  7 59 14.0800000  0  4G 3G12G19G13
  22052354.742    22052355.861   -63459303.353 9  67170968.732 8
  21222970.474    21222974.249   -39949974.648 9  41330712.764 7
  22782333.396    22782335.629   -76670346.472 9  93688779.849 8
  21450002.130    21450005.486   -12458338.179 9  -9352568.266 8
 90  3  3  7 59 29.0800000  0  4G 3G12G19G13
  22049455.328    22049457.216   -63474539.150 9  67159096.697 8
  21228768.946    21228771.614   -39919508.925 9  41354452.275 7
  22779897.850    22779899.448   -76683148.285 8  93678804.425 7
  21453430.668    21453434.256   -12440321.658 8  -9338529.418 7
 90  3  3  7 59 44.0800000  0  4G 3G12G19G13
  22046563.125    22046565.137   -63489736.278 8  67147254.808 7
  21234591.164    21234594.229   -39888911.241 8  41378294.610 7
  22777487.211    22777490.425   -76695815.877 9  93668933.569 7
  21456862.844    21456865.532   -12422284.962 8  -9324474.840 6
 90  3  3  7 59 59.0800000  0  4G 3G12G19G13
  22043679.079    22043681.395   -63504894.926 8  67135442.881 8
  21240440.597    21240441.363   -39858182.055 8  41402239.419 6
  22775102.424    22775104.008   -76708349.582 8  93659167.065 7
  21460299.338    21460301.139   -12404228.264 9  -9310404.682 7
 90  3  3  8  0 14.0800000  0  4G 3G12G19G13
  22040799.819    22040804.881   -63520014.971 9  67123661.030 8
  21246313.101    21246315.217   -39827321.377 8  41426286.684 7
  22772742.692    22772745.913   -76720749.060 8  93649505.124 8
  21463740.212    21463741.868   -12386151.489 9  -9296318.886 6
 90  3  3  8  0 29.0800000  0  4G 3G12G19G13
  22037930.374    22037934.631   -63535096.666 8  67111909.069 8
  21252209.042    21252212.232   -39796329.513 9  41450436.171 6
  22770407.918    22770412.545   -76733014.405 8  93639947.719 9
  21467182.604    21467187.164   -12368054.706 9  -9282217.508 6
 90  3  3  8  0 44.0800000  0  4G 3G12G19G13
  22035067.292    22035071.298   -63550140.059 8  67100186.946 8
  21258131.752    21258135.603   -39765206.799 9  41474687.626 6
  22768099.550    22768103.086   -76745145.607 8  93630494.837 7
  21470629.574    21470634.332   -12349938.018 8  -9268100.618 7
 90  3  3  8  0 59.0800000  0  4G 3G12G19G13
  22032212.413    22032217.521   -63565145.156 8  67088494.660 8
  21264078.389    21264083.690   -39733953.401 9  41499040.896 7
  22765816.685    22765820.735   -76757142.371 8  93621146.706 9
  21474081.123    21474086.024   -12331801.549 9  -9253968.312 7
 90  3  3  8  1 14.0800000  0  4G 3G12G19G13
  22029364.276    22029368.426   -63580112.173 9  67076832.050 8
  21270050.195    21270056.592   -39702569.818 8  41523495.640 7
  22763559.331    22763563.425   -76769004.824 9  93611903.230 8
  21477537.591    21477541.350   -12313645.416 8  -9239820.683 7
 90  3  3  8  1 29.0800000  0  4G 3G12G19G13
  22026522.577    22026527.678   -63595041.034 9  67065199.157 8
  21276046.308    21276053.276   -39671056.291 8  41548051.611 7
  22761327.217    22761330.374   -76780732.615 8  93602764.694 8
  21480995.610    21480999.669   -12295469.848 9  -9225657.908 7
 90  3  3  8  1 44.0800000  0  4G 3G12G19G13
  22023689.858    22023694.264   -63609932.172 9  67053595.687 9
  21282067.889    21282074.103   -39639413.190 8  41572708.579 7
  22759120.425    22759125.112   -76792325.994 8  93593730.905 8
  21484456.859    21484462.193   -12277274.799 9  -9211479.955 8
 90  3  3  8  1 59.0800000  0  4G 3G12G19G13
  22020863.384    22020867.706   -63624785.357 9  67042021.790 8
  21288112.940    21288120.628   -39607640.772 7  41597466.292 8
  22756940.083    22756944.467   -76803784.766 8  93584801.982 8
  21487922.689    21487927.606   -12259060.218 9  -9197286.766 6
 90  3  3  8  2 14.0800000  0  4G 3G12G19G13
  22018044.544    22018047.456   -63639600.992 9  67030477.157 8
  21294184.739    21294191.466   -39575739.384 8  41622324.531 7
  22754786.203    22754788.806   -76815108.686 8  93575978.159 8
  21491391.352    21491397.627   -12240826.363 9  -9183078.583 6
 90  3  3  8  2 29.0800000  0  4G 3G12G19G13
  22015232.866    22015234.984   -63654378.919 9  67018961.913 8
  21300280.551    21300286.271   -39543709.243 9  41647283.075 8
  22752656.720    22752660.346   -76826297.823 9  93567259.356 7
  21494865.996    21494871.186   -12222573.354 8  -9168855.455 6
 90  3  3  8  2 44.0800000  0  4G 3G12G19G13
  22012426.627    22012430.432   -63669119.273 8  67007475.934 8
  21306400.374    21306407.454   -39511550.778 7  41672341.619 7
  22750553.247    22750555.359   -76837352.467 8  93558645.349 6
  21498342.871    21498346.444   -12204301.263 8  -9154617.452 6
 90  3  3  8  2 59.0800000  0  4G 3G12G19G13
  22009628.814    22009632.081   -63683822.149 9  66996019.160 7
  21312543.010    21312550.771   -39479264.255 8  41697499.938 8
  22748474.385    22748478.926   -76848272.151 8  93550136.493 7
  21501823.524    21501826.785   -12186010.229 9  -9140364.691 6
 90  3  3  8  3 14.0800000  0  4G 3G12G19G13
  22006839.452    22006840.024   -63698487.662 7  66984591.497 8
  21318711.068    21318719.450   -39446849.984 9  41722757.787 7
  22746423.501    22746426.120   -76859056.859 8  93541732.823 8
  21505308.243    21505311.917   -12167700.189 9  -9126097.108 7
 90  3  3  8  3 29.0800000  0  4G 3G12G19G13
  22004054.847    22004058.472   -63713115.757 8  66973192.981 7
  21324904.742    21324911.468   -39414308.102 8  41748115.083 8
  22744396.782    22744399.716   -76869706.511 8  93533434.415 8
  21508795.279    21508799.379   -12149371.321 8  -9111814.866 8
 90  3  3  8  3 44.0800000  0  4G 3G12G19G13
  22001276.963    22001281.874   -63727706.665 8  66961823.451 8
  21331122.076    21331128.886   -39381639.061 9  41773571.471 8
  22742394.967    22742398.868   -76880221.281 9  93525241.074 8
  21512285.690    21512291.527   -12131023.937 8  -9097518.214 8
 90  3  3  8  3 59.0800000  0  4G 3G12G19G13
  21998507.801    21998512.752   -63742260.429 8  66950482.852 7
  21337362.892    21337368.331   -39348843.356 9  41799126.560 8
  22740419.365    22740424.193   -76890601.161 8  93517152.863 8
  21515782.741    21515787.215   -12112658.273 9  -9083207.292 7
 90  3  3  8  4 14.0800000  0  4G 3G12G19G13
  21995746.521    21995749.975   -63756777.270 8  66939171.052 8
  21343628.666    21343631.421   -39315921.130 8  41824780.260 8
  22738470.066    22738473.475   -76900845.876 8  93509169.971 7
  21519280.910    21519284.025   -12094273.965 8  -9068881.863 7
 90  3  3  8  4 29.0800000  0  4G 3G12G19G13
  21992990.958    21992994.198   -63771257.132 9  66927888.054 8
  21349917.226    21349920.989   -39282872.683 8  41850532.276 8
  22736546.190    22736550.123   -76910955.511 8  93501292.329 7
  21522782.485    21522785.528   -12075871.247 8  -9054542.081 7
 90  3  3  8  4 44.0800000  0  4G 3G12G19G13
  21990241.883    21990247.089   -63785700.349 9  66916633.597 8
  21356229.632    21356233.502   -39249698.380 9  41876382.365 8
  22734648.688    22734652.504   -76920929.863 8  93493520.108 8
  21526287.749    21526291.752   -12057450.164 8  -9040187.996 7
 90  3  3  8  4 59.0800000  0  4G 3G12G19G13
  21987500.592    21987504.783   -63800106.955 9  66905407.683 8
  21362566.267    21362570.471   -39216398.584 9  41902330.242 7
  22732775.376    22732779.196   -76930769.027 8  93485853.231 8
  21529796.449    21529799.864   -12039010.972 8  -9025819.782 8
 90  3  3  8  5 14.0800000  0  4G 3G12G19G13
  21984766.726    21984769.688   -63814476.751 9  66894210.463 8
  21368926.953    21368931.103   -39182973.571 9  41928375.703 7
  22730929.502    22730933.533   -76940473.203 8  93478291.537 7
  21533308.412    21533314.245   -12020553.661 9  -9011437.468 8
 90  3  3  8  5 29.0800000  0  4G 3G12G19G13
  21982039.393    21982043.623   -63828810.081 8  66883041.638 8
  21375311.975    21375315.853   -39149423.658 8  41954518.473 8
  22729107.800    22729112.561   -76950042.101 8  93470835.250 8
  21536824.065    21536828.354   -12002078.344 9  -8997041.125 8
 90  3  3  8  5 44.0800000  0  4G 3G12G19G13
  21979319.133    21979322.113   -63843107.025 9  66871901.171 8
  21381718.889    21381722.982   -39115749.222 9  41980758.279 7
  22727312.941    22727317.002   -76959475.558 8  93463484.519 8
  21540343.010    21540347.998   -11983585.080 9  -8982630.796 7
 90  3  3  8  5 59.0800000  0  4G 3G12G19G13
  21976604.898    21976608.603   -63857367.460 9  66860789.142 8
  21388150.738    21388154.859   -39081950.624 8  42007094.840 7
  22725543.296    22725547.401   -76968773.649 8  93456239.251 8
  21543865.590    21543870.136   -11965073.933 8  -8968206.530 7
 90  3  3  8  6 14.0800000  0  4G 3G12G19G13
  21973898.509    21973901.197   -63871591.729 8  66849705.293 7
  21394605.271    21394610.750   -39048028.063 8  42033527.987 7
  22723800.335    22723803.415   -76977936.359 9  93449099.488 7
  21547392.921    21547396.135   -11946544.986 9  -8953768.383 8
 90  3  3  8  6 29.0800000  0  4G 3G12G19G13
  21971197.691    21971200.688   -63885779.766 9  66838649.689 8
  21401083.542    21401089.224   -39013981.979 9  42060057.393 7
  22722082.712    22722087.034   -76986963.573 8  93442065.282 8
  21550922.769    21550925.999   -11927998.443 9  -8939316.534 8
 90  3  3  8  6 44.0800000  0  4G 3G12G19G13
  21968504.858    21968508.191   -63899931.606 9  66827622.286 7
  21407587.052    21407591.301   -38979812.651 8  42086682.841 7
  22720391.537    22720393.840   -76995855.367 9  93435136.625 8
  21554455.423    21554458.251   -11909434.405 8  -8924851.049 8
 90  3  3  8  6 59.0800000  0  4G 3G12G19G13
  21965818.988    21965822.619   -63914047.586 9  66816622.821 8
  21414112.152    21414117.781   -38945520.287 8  42113404.148 8
  22718725.370    22718728.345   -77004611.883 8  93428313.371 8
  21557992.024    21557994.454   -11890852.897 9  -8910371.942 8
 90  3  3  8  7 14.0800000  0  4G 3G12G19G13
  21963140.448    21963142.345   -63928127.481 8  66805651.497 7
  21420660.478    21420666.432   -38911105.208 9  42140221.082 8
  22717086.672    22717087.266   -77013232.685 9  93421595.870 8
  21561530.431    21561534.032   -11872254.066 9  -8895879.348 8
 90  3  3  8  7 29.0800000  0  4G 3G12G19G13
  21960467.047    21960470.410   -63942171.622 9  66794708.007 6
  21427233.320    21427238.987   -38876567.824 9  42167133.329 7
  22715469.682    22715473.367   -77021718.007 8  93414983.916 7
  21565072.498    21565075.841   -11853637.910 9  -8881373.248 7
 90  3  3  8  7 44.0800000  0  4G 3G12G19G13
  21957800.973    21957805.617   -63956180.064 9  66783792.344 8
  21433830.349    21433835.608   -38841908.603 8  42194140.506 8
  22713879.370    22713884.239   -77030067.854 8  93408477.537 7
  21568619.004    21568622.175   -11835004.368 8  -8866853.605 8
 90  3  3  8  7 59.0800000  0  4G 3G12G19G13
  21955141.709    21955146.189   -63970152.794 9  66772904.507 8
  21440447.874    21440453.250   -38807127.779 8  42221242.444 8
  22712315.256    22712320.890   -77038282.159 8  93402076.775 7
  21572167.968    21572171.614   -11816353.658 9  -8852320.587 7
 90  3  3  8  8 14.0800000  0  4G 3G12G19G13
  21952489.107    21952493.886   -63984089.935 8  66762044.427 7
  21447089.496    21447096.321   -38772225.742 8  42248438.813 7
  22710778.823    22710783.787   -77046360.923 9  93395781.638 8
  21575719.827    21575725.231   -11797685.993 9  -8837774.375 7
 90  3  3  8  8 29.0800000  0  4G 3G12G19G13
  21949844.367    21949847.766   -63997991.705 9  66751211.890 8
  21453753.138    21453759.131   -38737202.807 9  42275729.416 7
  22709267.508    22709271.630   -77054303.968 9  93389592.276 8
  21579275.831    21579279.675   -11779001.361 9  -8823214.924 8
 90  3  3  8  8 44.0800000  0  4G 3G12G19G13
  21947206.104    21947207.777   -64011858.009 8  66740406.989 7
  21460440.701    21460446.769   -38702059.279 9  42303113.972 8
  22707783.600    22707784.746   -77062111.229 9  93383508.681 8
  21582835.444    21582838.673   -11760299.919 9  -8808642.374 8
 90  3  3  8  8 59.0800000  0  4G 3G12G19G13
  21944574.283    21944577.504   -64025689.043 9  66729629.566 8
  21467151.886    21467156.881   -38666795.590 9  42330592.162 7
  22706324.183    22706326.184   -77069782.945 9  93377530.719 8
  21586397.487    21586399.931   -11741581.654 9  -8794056.706 7
 90  3  3  8  9 14.0800000  0  4G 3G12G19G13
  21941949.449    21941950.620   -64039484.821 9  66718879.619 8
  21473884.972    21473890.305   -38631411.953 8  42358163.842 7
  22704890.312    22704891.882   -77077319.159 8  93371658.350 7
  21589962.193    21589964.966   -11722846.617 8  -8779457.979 7
 90  3  3  8  9 29.0800000  0  4G 3G12G19G13
  21939330.539    21939332.597   -64053245.539 9  66708156.989 7
  21480641.804    21480646.026   -38595908.712 9  42385828.706 7
  22703481.310    22703484.487   -77084719.590 8  93365891.768 7
  21593529.273    21593533.576   -11704094.732 9  -8764846.148 7
 90  3  3  8  9 44.0800000  0  4G 3G12G19G13
  21936718.586    21936719.862   -64066971.043 8  66697461.798 8
  21487422.561    21487424.200   -38560286.252 9  42413586.464 7
  22702097.943    22702102.394   -77091984.359 8  93360230.903 8
  21597101.363    21597103.376   -11685326.403 9  -8750221.464 7
 90  3  3  8  9 59.0800000  0  4G 3G12G19G13
  21934113.875    21934115.523   -64080661.673 9  66686793.771 7
  21494223.405    21494225.638   -38524544.875 9  42441436.898 8
  22700740.366    22700746.039   -77099113.262 8  93354675.903 7
  21600675.198    21600677.629   -11666541.625 8  -8735583.985 7
 90  3  3  8 10 14.0800000  0  4G 3G12G19G13
  21931513.090    21931517.310   -64094317.624 9  66676152.757 8
  21501047.001    21501048.564   -38488685.033 8  42469379.623 6
  22699409.230    22699415.185   -77106106.490 8  93349226.629 7
  21604251.840    21604256.355   -11647740.462 9  -8720933.723 7
 90  3  3  8 10 29.0800000  0  4G 3G12G19G13
  21928921.458    21928925.665   -64107938.603 9  66665539.021 7
  21507891.552    21507895.386   -38452707.001 9  42497414.440 8
  22698104.949    22698109.637   -77112963.982 8  93343883.134 7
  21607833.259    21607837.733   -11628922.755 9  -8706270.561 7
 90  3  3  8 10 44.0800000  0  4G 3G12G19G13
  21926335.915    21926340.337   -64121524.899 8  66654952.297 7
  21514760.977    21514763.170   -38416611.108 8  42525541.084 7
  22696826.893    22696830.812   -77119685.787 8  93338645.350 8
  21611416.565    21611421.854   -11610088.731 8  -8691594.704 6
 90  3  3  8 10 59.0800000  0  4G 3G12G19G13
  21923757.900    21923761.848   -64135076.714 8  66644392.451 8
  21521651.787    21521654.971   -38380397.801 8  42553759.218 8
  22695574.931    22695576.617   -77126271.843 7  93333513.363 8
  21615005.511    21615009.572   -11591238.684 8  -8676906.361 7
 90  3  3  8 11 14.0800000  0  4G 3G12G19G13
  21921186.345    21921189.543   -64148593.949 9  66633859.525 7
  21528566.584    21528568.238   -38344067.312 9  42582068.686 7
  22694347.527    22694351.254   -77132722.132 8  93328487.164 8
  21618595.030    21618599.818   -11572372.492 8  -8662205.425 7
 90  3  3  8 11 29.0800000  0  4G 3G12G19G13
  21918621.257    21918623.259   -64162076.575 8  66623353.605 7
  21535502.278    21535503.927   -38307619.845 9  42610469.322 8
  22693145.252    22693147.521   -77139036.747 8  93323566.676 8
  21622188.409    21622191.712   -11553490.222 9  -8647491.957 7
